Air Quality Table

TIMESTAMP NO2 SO2 O3 PM10 PM2.5 CO TEMP HUM AIRPRES WS WD NO BENZENE
2022-01-21 05:00 45.55 µg/m3 0.31 µg/m3 15.73 µg/m3 18.84 µg/m3 12.92 µg/m3 0.26 mg/m3 10.83 °C 72.19 % 1,021.16 mbar 0.38 m/s 245.44 Deg 11.16 µg/m3 1.47 µg/m3
2022-01-21 04:00 19.59 µg/m3 0.14 µg/m3 62.45 µg/m3 14.22 µg/m3 9.93 µg/m3 0.21 mg/m3 11.29 °C 68.25 % 1,021.51 mbar 0.51 m/s 246.73 Deg 0.31 µg/m3 1.23 µg/m3
2022-01-21 03:00 20.45 µg/m3 0.22 µg/m3 47.21 µg/m3 17.79 µg/m3 13.24 µg/m3 0.22 mg/m3 11.43 °C 70.22 % 1,022.02 mbar 0.13 m/s 236.09 Deg -0.05 µg/m3 1.47 µg/m3
2022-01-21 02:00 23.82 µg/m3 0.31 µg/m3 49.85 µg/m3 17.81 µg/m3 13.1 µg/m3 0.23 mg/m3 11.42 °C 70.67 % 1,022.20 mbar 0.69 m/s 244.8 Deg 5.96 µg/m3 1.29 µg/m3
2022-01-21 01:00 20.57 µg/m3 0.27 µg/m3 57.73 µg/m3 17.91 µg/m3 13.11 µg/m3 0.26 mg/m3 11.82 °C 71.63 % 1,022.60 mbar 1.04 m/s 235.37 Deg 0.52 µg/m3 2.2 µg/m3
2022-01-21 00:00 56.68 µg/m3 0.81 µg/m3 9.35 µg/m3 45.37 µg/m3 30.76 µg/m3 0.79 mg/m3 11.76 °C 73.58 % 1,023.09 mbar 0.6 m/s 240.57 Deg 25 µg/m3 7.12 µg/m3
2022-01-20 23:00 63.39 µg/m3 1 µg/m3 3.41 µg/m3 51.43 µg/m3 34.38 µg/m3 0.84 mg/m3 11.64 °C 72.99 % 1,023.38 mbar 0.43 m/s 240.28 Deg 44.73 µg/m3 5.46 µg/m3
2022-01-20 22:00 68.98 µg/m3 1.13 µg/m3 3.64 µg/m3 46.78 µg/m3 30.88 µg/m3 0.88 mg/m3 11.82 °C 71.29 % 1,023.51 mbar 0.72 m/s 236.25 Deg 49.47 µg/m3 6.77 µg/m3
2022-01-20 21:00 72.13 µg/m3 0.72 µg/m3 9.58 µg/m3 52.28 µg/m3 24.79 µg/m3 0.72 mg/m3 12.4 °C 67.94 % 1,023.45 mbar 0.71 m/s 230.03 Deg 22.71 µg/m3 4.91 µg/m3
2022-01-20 20:00 66.45 µg/m3 0.53 µg/m3 18.39 µg/m3 47.71 µg/m3 21.73 µg/m3 0.56 mg/m3 12.91 °C 66.67 % 1,023.50 mbar 0.74 m/s 229.18 Deg 10.88 µg/m3 3.97 µg/m3
2022-01-20 19:00 68.97 µg/m3 0.7 µg/m3 13.84 µg/m3 45.05 µg/m3 17.82 µg/m3 0.56 mg/m3 13.44 °C 66.56 % 1,023.44 mbar 0.79 m/s 228.98 Deg 16.03 µg/m3 3.2 µg/m3
2022-01-20 18:00 50.14 µg/m3 0.66 µg/m3 32.82 µg/m3 35.58 µg/m3 12.54 µg/m3 0.4 mg/m3 13.81 °C 63.97 % 1,023.33 mbar 1.31 m/s 234.87 Deg 8.52 µg/m3 2.13 µg/m3
2022-01-20 17:00 42.08 µg/m3 0.84 µg/m3 45.42 µg/m3 29.64 µg/m3 10.48 µg/m3 0.37 mg/m3 14.3 °C 62.8 % 1,023.36 mbar 1.68 m/s 251.35 Deg 10.04 µg/m3 2.05 µg/m3
2022-01-20 16:00 30.12 µg/m3 2.48 µg/m3 57.21 µg/m3 26.23 µg/m3 9.24 µg/m3 0.3 mg/m3 14.62 °C 60.18 % 1,023.46 mbar 1.81 m/s 251.42 Deg 6.94 µg/m3 1.07 µg/m3
2022-01-20 15:00 25.49 µg/m3 0 µg/m3 62.34 µg/m3 27.17 µg/m3 9.59 µg/m3 0.26 mg/m3 15 °C 58.48 % 1,023.82 mbar 1.7 m/s 254.78 Deg 8.6 µg/m3 0.94 µg/m3
2022-01-20 14:00 24.71 µg/m3 0 µg/m3 61.97 µg/m3 26.62 µg/m3 8.38 µg/m3 0.25 mg/m3 14.96 °C 58.5 % 1,024.41 mbar 2.14 m/s 251.42 Deg 6.94 µg/m3 1.03 µg/m3
2022-01-20 13:00 28.89 µg/m3 0 µg/m3 56.62 µg/m3 26.87 µg/m3 9.97 µg/m3 0.29 mg/m3 14.24 °C 66.76 % 1,025.17 mbar 1.84 m/s 252.75 Deg 9.08 µg/m3 1.57 µg/m3
2022-01-20 12:00 33.29 µg/m3 0 µg/m3 50.68 µg/m3 40.99 µg/m3 11.56 µg/m3 0.29 mg/m3 14.53 °C 68.12 % 1,026.13 mbar 1.48 m/s 276.78 Deg 13.25 µg/m3 1.52 µg/m3
2022-01-20 11:00 29.48 µg/m3 0 µg/m3 56.88 µg/m3 20.14 µg/m3 8.12 µg/m3 0.28 mg/m3 14.75 °C 64.87 % 1,026.47 mbar 1.83 m/s 210.23 Deg 12.64 µg/m3 2.47 µg/m3
2022-01-20 10:00 72.07 µg/m3 0 µg/m3 22.04 µg/m3 108.85 µg/m3 32.75 µg/m3 0.71 mg/m3 14.47 °C 70.94 % 1,026.44 mbar 0.61 m/s 185.76 Deg 91.74 µg/m3 8.14 µg/m3
2022-01-20 09:00 78.98 µg/m3 3.55 µg/m3 4.32 µg/m3 68.46 µg/m3 33.96 µg/m3 1.28 mg/m3 12.19 °C 77.68 % 1,026.38 mbar 0.71 m/s 219.44 Deg 164.16 µg/m3 11.13 µg/m3
2022-01-20 08:00 69.39 µg/m3 4.09 µg/m3 2.85 µg/m3 44.88 µg/m3 29.92 µg/m3 1.54 mg/m3 10.92 °C 82.13 % 1,026.61 mbar 0.5 m/s 235.53 Deg 197.48 µg/m3 14.12 µg/m3
2022-01-20 07:00 61.72 µg/m3 2.58 µg/m3 3.15 µg/m3 30.75 µg/m3 20.51 µg/m3 1.11 mg/m3 10.88 °C 82.98 % 1,026.63 mbar 0.59 m/s 235.67 Deg 117.88 µg/m3 6.72 µg/m3
2022-01-20 06:00 43.85 µg/m3 1 µg/m3 12.99 µg/m3 17.01 µg/m3 11.47 µg/m3 0.4 mg/m3 11.02 °C 83.33 % 1,026.51 mbar 0.79 m/s 233.63 Deg 16.48 µg/m3 2.29 µg/m3
2022-01-20 05:00 19.39 µg/m3 0.75 µg/m3 36.63 µg/m3 12.85 µg/m3 9.32 µg/m3 0.26 mg/m3 11.34 °C 82.74 % 1,026.65 mbar 0.88 m/s 242.93 Deg 1.41 µg/m3 1.97 µg/m3
2022-01-20 04:00 16.94 µg/m3 0.77 µg/m3 30.75 µg/m3 17.24 µg/m3 13.26 µg/m3 0.34 mg/m3 11.84 °C 82.03 % 1,027.15 mbar 0.7 m/s 244.55 Deg 0.62 µg/m3 2.52 µg/m3
2022-01-20 03:00 16.37 µg/m3 0.81 µg/m3 32.16 µg/m3 17.05 µg/m3 13.13 µg/m3 0.26 mg/m3 11.6 °C 81.89 % 1,027.65 mbar 0.82 m/s 238.47 Deg 0.21 µg/m3 2.47 µg/m3
2022-01-20 02:00 26.12 µg/m3 0.74 µg/m3 26.21 µg/m3 20.54 µg/m3 15.34 µg/m3 0.36 mg/m3 11.38 °C 81.77 % 1,027.98 mbar 0.85 m/s 240.05 Deg 1.26 µg/m3 2.89 µg/m3
2022-01-20 01:00 40.69 µg/m3 0.89 µg/m3 11.52 µg/m3 28.85 µg/m3 20.46 µg/m3 0.55 mg/m3 11.36 °C 82.82 % 1,028.29 mbar 0.59 m/s 236.77 Deg 5.78 µg/m3 3.96 µg/m3
2022-01-20 00:00 50.64 µg/m3 1.23 µg/m3 6.2 µg/m3 32.97 µg/m3 22.56 µg/m3 0.62 mg/m3 11.62 °C 82.89 % 1,028.66 mbar 0.79 m/s 235.28 Deg 26.58 µg/m3 5.3 µg/m3
2022-01-19 23:00 64.26 µg/m3 1.4 µg/m3 4.06 µg/m3 29.88 µg/m3 20.06 µg/m3 0.68 mg/m3 12.22 °C 80.63 % 1,029.04 mbar 0.52 m/s 249.11 Deg 41.29 µg/m3 3.8 µg/m3
2022-01-19 22:00 36.46 µg/m3 0.87 µg/m3 39.79 µg/m3 16.52 µg/m3 12.59 µg/m3 0.38 mg/m3 12.59 °C 78.95 % 1,029.25 mbar 0.38 m/s 209.61 Deg 4.89 µg/m3 1.92 µg/m3
2022-01-19 21:00 38.48 µg/m3 0.82 µg/m3 39.5 µg/m3 13.98 µg/m3 11.22 µg/m3 0.37 mg/m3 13.01 °C 78.13 % 1,029.37 mbar 0.56 m/s 209.92 Deg 4.6 µg/m3 3.57 µg/m3
2022-01-19 20:00 57.89 µg/m3 0.96 µg/m3 24.38 µg/m3 16.13 µg/m3 12.88 µg/m3 0.47 mg/m3 13.23 °C 78.16 % 1,029.28 mbar 0.38 m/s 205.53 Deg 11.65 µg/m3 3.54 µg/m3
2022-01-19 19:00 75.16 µg/m3 1.32 µg/m3 11.14 µg/m3 13.9 µg/m3 11.28 µg/m3 0.46 mg/m3 12.92 °C 81.12 % 1,029.37 mbar 0.76 m/s 111 Deg 38.55 µg/m3 2.2 µg/m3
2022-01-19 18:00 39.71 µg/m3 1.15 µg/m3 50.96 µg/m3 13.4 µg/m3 9.75 µg/m3 0.42 mg/m3 13.26 °C 75.65 % 1,029.15 mbar 2.46 m/s 76.72 Deg 30.61 µg/m3 1.54 µg/m3
2022-01-19 17:00 39.29 µg/m3 1.24 µg/m3 51.53 µg/m3 20.84 µg/m3 10.81 µg/m3 0.43 mg/m3 14.68 °C 62.7 % 1,028.81 mbar 2.49 m/s 116.83 Deg 36.04 µg/m3 2.05 µg/m3
2022-01-19 16:00 29.24 µg/m3 1.13 µg/m3 60.07 µg/m3 20.25 µg/m3 9.14 µg/m3 0.32 mg/m3 15.17 °C 60.17 % 1,028.90 mbar 2.01 m/s 140.67 Deg 28.08 µg/m3 1.52 µg/m3
2022-01-19 15:00 32.22 µg/m3 1.11 µg/m3 60.17 µg/m3 28.13 µg/m3 9.59 µg/m3 0.5 mg/m3 15.51 °C 59.34 % 1,029.19 mbar 1.68 m/s 148.07 Deg 23.97 µg/m3 1.57 µg/m3
2022-01-19 14:00 34.34 µg/m3 1.29 µg/m3 54.23 µg/m3 37.18 µg/m3 11.8 µg/m3 0.36 mg/m3 15.23 °C 53.63 % 1,029.54 mbar 1.79 m/s 177.8 Deg 34.11 µg/m3 1.45 µg/m3
2022-01-19 13:00 39.18 µg/m3 1.32 µg/m3 57.02 µg/m3 49.82 µg/m3 12.11 µg/m3 0.39 mg/m3 15.11 °C 50.48 % 1,030.40 mbar 2.02 m/s 89.13 Deg 37.21 µg/m3 1.63 µg/m3
2022-01-19 12:00 42.75 µg/m3 1.35 µg/m3 51.95 µg/m3 21.96 µg/m3 8.77 µg/m3 0.38 mg/m3 14.88 °C 55.22 % 1,030.97 mbar 1.65 m/s 139.3 Deg 31.83 µg/m3 1.31 µg/m3
2022-01-19 11:00 45.32 µg/m3 1.7 µg/m3 45.96 µg/m3 28.05 µg/m3 11.42 µg/m3 0.4 mg/m3 14.42 °C 61.44 % 1,031.25 mbar 1.85 m/s 66.07 Deg 48.88 µg/m3 3.29 µg/m3
2022-01-19 10:00 83.38 µg/m3 2.49 µg/m3 7.55 µg/m3 67.35 µg/m3 24.46 µg/m3 0.67 mg/m3 13.82 °C 68.68 % 1,031.23 mbar 0.55 m/s 59.48 Deg 99.32 µg/m3 8.08 µg/m3
2022-01-19 09:00 83.77 µg/m3 2.74 µg/m3 4.31 µg/m3 102.11 µg/m3 32.34 µg/m3 1.03 mg/m3 13.03 °C 71.63 % 1,030.75 mbar 0.42 m/s 179.81 Deg 105.76 µg/m3 19.42 µg/m3
2022-01-19 08:00 81.85 µg/m3 3.9 µg/m3 6.64 µg/m3 51.29 µg/m3 34.22 µg/m3 1.42 mg/m3 12.73 °C 74.28 % 1,030.47 mbar 0.56 m/s 210.56 Deg 186.46 µg/m3 10.74 µg/m3
2022-01-19 07:00 60.04 µg/m3 2.68 µg/m3 2.74 µg/m3 35.64 µg/m3 23.77 µg/m3 1.11 mg/m3 12.24 °C 74.27 % 1,030.00 mbar 0.28 m/s 290.37 Deg 115.94 µg/m3 5.54 µg/m3
2022-01-19 06:00 41.21 µg/m3 1.17 µg/m3 11.62 µg/m3 22.78 µg/m3 15.81 µg/m3 0.47 mg/m3 12.05 °C 73.9 % 1,029.73 mbar 0.37 m/s 196.33 Deg 24.89 µg/m3 2.91 µg/m3
2022-01-19 05:00 21.46 µg/m3 0.84 µg/m3 27.99 µg/m3 14.38 µg/m3 10.55 µg/m3 0.24 mg/m3 11.86 °C 73.34 % 1,029.67 mbar 0.52 m/s 232.93 Deg 1.33 µg/m3 1.84 µg/m3
2022-01-19 04:00 17.3 µg/m3 0.81 µg/m3 36.28 µg/m3 16.21 µg/m3 12.58 µg/m3 0.28 mg/m3 11.76 °C 72.86 % 1,029.88 mbar 0.59 m/s 232 Deg 0.91 µg/m3 2.78 µg/m3
2022-01-19 03:00 11.64 µg/m3 0.77 µg/m3 43.53 µg/m3 12.69 µg/m3 9.74 µg/m3 0.23 mg/m3 11.47 °C 72.75 % 1,030.05 mbar 0.84 m/s 230.28 Deg 0 µg/m3 1.47 µg/m3
2022-01-19 02:00 16.89 µg/m3 0.81 µg/m3 42.49 µg/m3 12.88 µg/m3 9.65 µg/m3 0.24 mg/m3 11.32 °C 72.7 % 1,030.22 mbar 1 m/s 228.77 Deg 4.96 µg/m3 1.52 µg/m3
2022-01-19 01:00 25.79 µg/m3 0.86 µg/m3 32.08 µg/m3 17.85 µg/m3 12.88 µg/m3 0.34 mg/m3 11.41 °C 72.45 % 1,030.42 mbar 1.14 m/s 224.73 Deg 0.88 µg/m3 2.2 µg/m3
2022-01-19 00:00 36.38 µg/m3 0.94 µg/m3 25.01 µg/m3 26.43 µg/m3 17.33 µg/m3 0.42 mg/m3 11.4 °C 72.27 % 1,030.60 mbar 0.97 m/s 227.83 Deg 2.16 µg/m3 3.62 µg/m3
2022-01-18 23:00 44.85 µg/m3 1.02 µg/m3 18.05 µg/m3 33.54 µg/m3 23.8 µg/m3 0.5 mg/m3 11.12 °C 74.16 % 1,030.98 mbar 1.12 m/s 229.7 Deg 7.77 µg/m3 4.67 µg/m3
2022-01-18 22:00 60.16 µg/m3 1.47 µg/m3 5.85 µg/m3 51.81 µg/m3 35.51 µg/m3 0.81 mg/m3 11.25 °C 74.81 % 1,030.80 mbar 1.13 m/s 227.75 Deg 32.04 µg/m3 8.98 µg/m3
2022-01-18 21:00 68.23 µg/m3 2.14 µg/m3 4.64 µg/m3 60 µg/m3 40.06 µg/m3 1.11 mg/m3 11.78 °C 73.51 % 1,030.74 mbar 0.91 m/s 230.85 Deg 76.39 µg/m3 10 µg/m3
2022-01-18 20:00 76.5 µg/m3 2.08 µg/m3 4.04 µg/m3 67.92 µg/m3 33.88 µg/m3 1.06 mg/m3 12.45 °C 70.73 % 1,030.45 mbar 0.97 m/s 234.5 Deg 77.01 µg/m3 7.54 µg/m3
2022-01-18 19:00 82.78 µg/m3 1.44 µg/m3 6.43 µg/m3 56.86 µg/m3 21.59 µg/m3 0.7 mg/m3 13.27 °C 65.44 % 1,030.04 mbar 0.62 m/s 231.33 Deg 45.08 µg/m3 4.78 µg/m3
2022-01-18 18:00 62.06 µg/m3 0.91 µg/m3 28.13 µg/m3 33.51 µg/m3 12.06 µg/m3 0.48 mg/m3 13.74 °C 62.44 % 1,029.41 mbar 0.88 m/s 261.52 Deg 13.86 µg/m3 1.81 µg/m3
2022-01-18 17:00 24 µg/m3 0.75 µg/m3 69.37 µg/m3 20.83 µg/m3 8.74 µg/m3 0.26 mg/m3 14.39 °C 58.67 % 1,028.95 mbar 1.79 m/s 308.03 Deg 5.54 µg/m3 1.23 µg/m3
2022-01-18 16:00 25.57 µg/m3 0.85 µg/m3 66.17 µg/m3 32.86 µg/m3 10.58 µg/m3 0.28 mg/m3 14.99 °C 55.77 % 1,028.76 mbar 1.75 m/s 311.4 Deg 11.46 µg/m3 1.21 µg/m3
2022-01-18 15:00 25.12 µg/m3 0.81 µg/m3 67.69 µg/m3 29.82 µg/m3 10.03 µg/m3 0.28 mg/m3 15.18 °C 56.03 % 1,028.54 mbar 1.83 m/s 308.4 Deg 9.51 µg/m3 1.19 µg/m3
2022-01-18 14:00 21.36 µg/m3 0.81 µg/m3 70.07 µg/m3 33.37 µg/m3 10.62 µg/m3 0.25 mg/m3 15.22 °C 55.16 % 1,028.64 mbar 1.95 m/s 299.77 Deg 8.15 µg/m3 1.1 µg/m3
2022-01-18 13:00 22.66 µg/m3 0.88 µg/m3 69.14 µg/m3 18.62 µg/m3 8.43 µg/m3 0.3 mg/m3 15.04 °C 57.29 % 1,029.05 mbar 2.13 m/s 237.9 Deg 14.63 µg/m3 1.63 µg/m3
2022-01-18 12:00 27.98 µg/m3 0.85 µg/m3 62.02 µg/m3 31.14 µg/m3 10.59 µg/m3 0.29 mg/m3 15.1 °C 59.14 % 1,029.42 mbar 1.84 m/s 303.43 Deg 11.61 µg/m3 1.21 µg/m3
2022-01-18 11:00 29.98 µg/m3 0.86 µg/m3 56.51 µg/m3 39.07 µg/m3 11.53 µg/m3 0.29 mg/m3 15.18 °C 59.94 % 1,029.40 mbar 1.83 m/s 281.7 Deg 12.32 µg/m3 1.57 µg/m3
2022-01-18 10:00 59.72 µg/m3 1.31 µg/m3 25.57 µg/m3 86.8 µg/m3 20.97 µg/m3 0.46 mg/m3 13.91 °C 67.1 % 1,028.70 mbar 1.13 m/s 264.67 Deg 35.67 µg/m3 4.41 µg/m3
2022-01-18 09:00 70.09 µg/m3 1.36 µg/m3 15.19 µg/m3 72.39 µg/m3 19.74 µg/m3 0.54 mg/m3 12.95 °C 70.54 % 1,028.03 mbar 1.64 m/s 260.27 Deg 42.92 µg/m3 4.55 µg/m3
2022-01-18 08:00 73.46 µg/m3 1.49 µg/m3 12.06 µg/m3 71.27 µg/m3 18.86 µg/m3 0.61 mg/m3 12.76 °C 70.59 % 1,027.50 mbar 1.45 m/s 260.17 Deg 55.34 µg/m3 3.52 µg/m3
2022-01-18 07:00 44.76 µg/m3 0.9 µg/m3 38.17 µg/m3 20.43 µg/m3 9.41 µg/m3 0.4 mg/m3 12.86 °C 70.44 % 1,026.98 mbar 1.57 m/s 273.82 Deg 15.57 µg/m3 1.44 µg/m3
2022-01-18 06:00 20.37 µg/m3 0.7 µg/m3 59.4 µg/m3 13.77 µg/m3 7.92 µg/m3 0.23 mg/m3 12.56 °C 70.99 % 1,026.41 mbar 1.56 m/s 279.23 Deg 2 µg/m3 0.91 µg/m3
2022-01-18 05:00 13.85 µg/m3 0.69 µg/m3 56.29 µg/m3 10.05 µg/m3 7.12 µg/m3 0.18 mg/m3 11.48 °C 75.32 % 1,026.10 mbar 1.25 m/s 249.35 Deg 1.04 µg/m3 0.84 µg/m3
2022-01-18 04:00 7.49 µg/m3 0.71 µg/m3 64.78 µg/m3 9.93 µg/m3 6.8 µg/m3 0.17 mg/m3 11.68 °C 73.59 % 1,026.20 mbar 1.23 m/s 247.02 Deg -0.07 µg/m3 0.76 µg/m3
2022-01-18 03:00 7.92 µg/m3 0.62 µg/m3 65.03 µg/m3 10.14 µg/m3 7.07 µg/m3 0.15 mg/m3 11.94 °C 75.05 % 1,026.12 mbar 1.2 m/s 245.78 Deg 0.11 µg/m3 0.73 µg/m3
2022-01-18 02:00 11.02 µg/m3 0.65 µg/m3 63.85 µg/m3 11 µg/m3 7.63 µg/m3 0.18 mg/m3 12.37 °C 74.74 % 1,026.08 mbar 1.08 m/s 240.8 Deg 1.1 µg/m3 0.92 µg/m3
2022-01-18 01:00 8.65 µg/m3 0.61 µg/m3 67.41 µg/m3 12.92 µg/m3 9.11 µg/m3 0.2 mg/m3 12.62 °C 75.53 % 1,025.98 mbar 1.38 m/s 247.38 Deg 0.18 µg/m3 1.05 µg/m3
2022-01-18 00:00 15.64 µg/m3 0.65 µg/m3 58.9 µg/m3 12.42 µg/m3 8.61 µg/m3 0.24 mg/m3 12.93 °C 77.15 % 1,025.97 mbar 1.21 m/s 251.37 Deg 0.87 µg/m3 1.08 µg/m3
2022-01-17 23:00 17.98 µg/m3 0.68 µg/m3 58.27 µg/m3 12.7 µg/m3 8.62 µg/m3 0.26 mg/m3 12.97 °C 74.67 % 1,025.91 mbar 1.14 m/s 247.67 Deg 1.02 µg/m3 1.21 µg/m3
2022-01-17 22:00 18.78 µg/m3 0.74 µg/m3 61.08 µg/m3 14.16 µg/m3 9.51 µg/m3 0.26 mg/m3 13.01 °C 72.6 % 1,025.89 mbar 1.42 m/s 258.6 Deg 1.15 µg/m3 1.4 µg/m3
2022-01-17 21:00 23.13 µg/m3 0.75 µg/m3 58.9 µg/m3 19.43 µg/m3 10.84 µg/m3 0.29 mg/m3 13.44 °C 71.87 % 1,025.86 mbar 1.73 m/s 266.32 Deg 2.07 µg/m3 1.4 µg/m3
2022-01-17 20:00 29.61 µg/m3 0.74 µg/m3 54.95 µg/m3 24.83 µg/m3 11.98 µg/m3 0.31 mg/m3 13.41 °C 70.12 % 1,025.38 mbar 1.93 m/s 257.78 Deg 4.12 µg/m3 1.91 µg/m3
2022-01-17 19:00 36.37 µg/m3 0.73 µg/m3 51.11 µg/m3 26.04 µg/m3 12.85 µg/m3 0.33 mg/m3 13.49 °C 69.25 % 1,025.16 mbar 1.89 m/s 258.93 Deg 5.24 µg/m3 1.65 µg/m3
2022-01-17 18:00 34.82 µg/m3 0.69 µg/m3 56.57 µg/m3 25.84 µg/m3 10.85 µg/m3 0.32 mg/m3 13.76 °C 67.16 % 1,024.89 mbar 2.31 m/s 263.57 Deg 4.76 µg/m3 1.47 µg/m3
2022-01-17 17:00 35.55 µg/m3 0.76 µg/m3 58.18 µg/m3 35.27 µg/m3 12.29 µg/m3 0.31 mg/m3 14.15 °C 64.97 % 1,024.60 mbar 2.78 m/s 263.85 Deg 6.67 µg/m3 1.5 µg/m3
2022-01-17 16:00 27.58 µg/m3 0.75 µg/m3 67.31 µg/m3 37.51 µg/m3 11.25 µg/m3 0.28 mg/m3 14.81 °C 63.58 % 1,024.59 mbar 3.24 m/s 259.63 Deg 6.07 µg/m3 1.12 µg/m3
2022-01-17 15:00 28.04 µg/m3 0.76 µg/m3 63.75 µg/m3 43.48 µg/m3 11.96 µg/m3 0.27 mg/m3 15.2 °C 64.2 % 1,024.50 mbar 3.31 m/s 262.82 Deg 7.43 µg/m3 1.57 µg/m3
2022-01-17 14:00 22.74 µg/m3 0.75 µg/m3 65.66 µg/m3 41.24 µg/m3 12.43 µg/m3 0.24 mg/m3 15.34 °C 63.05 % 1,024.92 mbar 3.56 m/s 262.82 Deg 6.98 µg/m3 0.84 µg/m3
2022-01-17 13:00 24.84 µg/m3 0.79 µg/m3 63.6 µg/m3 29.87 µg/m3 8.89 µg/m3 0.25 mg/m3 15.3 °C 63.27 % 1,025.69 mbar 3.19 m/s 264.08 Deg 7.18 µg/m3 2.02 µg/m3
2022-01-17 12:00 28.44 µg/m3 0.81 µg/m3 59.18 µg/m3 51.57 µg/m3 11.78 µg/m3 0.27 mg/m3 15.07 °C 63.6 % 1,026.18 mbar 2.91 m/s 262.8 Deg 8.29 µg/m3 1.55 µg/m3
2022-01-17 11:00 34.38 µg/m3 0.92 µg/m3 52.44 µg/m3 49.06 µg/m3 11.91 µg/m3 0.29 mg/m3 14.6 °C 67.65 % 1,027.09 mbar 2.39 m/s 260.67 Deg 11.5 µg/m3 2.02 µg/m3
2022-01-17 10:00 60.58 µg/m3 1.53 µg/m3 23.13 µg/m3 66.78 µg/m3 20.41 µg/m3 0.5 mg/m3 13.97 °C 73.04 % 1,026.83 mbar 1.22 m/s 265.6 Deg 43.92 µg/m3 6.07 µg/m3
2022-01-17 09:00 85.35 µg/m3 3.73 µg/m3 4.23 µg/m3 53.85 µg/m3 34.82 µg/m3 1.43 mg/m3 12.55 °C 78.35 % 1,026.57 mbar 0.51 m/s 230.67 Deg 176.71 µg/m3 17.87 µg/m3
2022-01-17 08:00 94.67 µg/m3 6.11 µg/m3 3.69 µg/m3 58.35 µg/m3 39.03 µg/m3 2.22 mg/m3 11.05 °C 82.94 % 1,026.51 mbar 0.38 m/s 245.4 Deg 347.18 µg/m3 17.82 µg/m3
2022-01-17 07:00 76.36 µg/m3 3.61 µg/m3 3.69 µg/m3 26.12 µg/m3 18.39 µg/m3 1.55 mg/m3 11.27 °C 81.76 % 1,026.31 mbar 0.62 m/s 239.38 Deg 193.23 µg/m3 7.19 µg/m3
2022-01-17 06:00 52.72 µg/m3 1.48 µg/m3 5.32 µg/m3 16.14 µg/m3 12.12 µg/m3 0.55 mg/m3 11.02 °C 84.12 % 1,026.08 mbar 0.26 m/s 252.24 Deg 48.69 µg/m3 3.15 µg/m3
2022-01-17 05:00 35.26 µg/m3 0.95 µg/m3 9.99 µg/m3 14.15 µg/m3 10.82 µg/m3 0.3 mg/m3 10.69 °C 84.96 % 1,025.81 mbar 0.15 m/s 269.01 Deg 10.72 µg/m3 2.47 µg/m3
2022-01-17 04:00 30.28 µg/m3 0.89 µg/m3 12.92 µg/m3 13.68 µg/m3 10.46 µg/m3 0.31 mg/m3 10.97 °C 84.84 % 1,025.93 mbar 0.07 m/s 245 Deg 7.84 µg/m3 2.71 µg/m3
2022-01-17 03:00 38.39 µg/m3 1.03 µg/m3 2.52 µg/m3 17.45 µg/m3 13.34 µg/m3 0.4 mg/m3 10.68 °C 85.44 % 1,026.23 mbar 0.27 m/s 256.5 Deg 11.94 µg/m3 4.23 µg/m3
2022-01-17 02:00 51.37 µg/m3 1.56 µg/m3 1.9 µg/m3 23.71 µg/m3 17.94 µg/m3 0.69 mg/m3 10.71 °C 85.33 % 1,026.18 mbar 0.37 m/s 290.45 Deg 47.1 µg/m3 5.67 µg/m3
2022-01-17 01:00 47.24 µg/m3 1.72 µg/m3 2.52 µg/m3 31.75 µg/m3 24.59 µg/m3 0.9 mg/m3 10.91 °C 84.56 % 1,026.28 mbar 0.35 m/s 255.88 Deg 55.67 µg/m3 7.16 µg/m3
2022-01-17 00:00 48.8 µg/m3 1.57 µg/m3 3.76 µg/m3 37.07 µg/m3 29.14 µg/m3 0.9 mg/m3 11.04 °C 84.4 % 1,026.46 mbar 0.43 m/s 266.62 Deg 46.95 µg/m3 7.16 µg/m3
2022-01-16 23:00 53.42 µg/m3 1.62 µg/m3 4.22 µg/m3 43.63 µg/m3 32.93 µg/m3 0.91 mg/m3 11.22 °C 84.59 % 1,026.75 mbar 0.67 m/s 247.73 Deg 50.34 µg/m3 7.54 µg/m3
2022-01-16 22:00 56.08 µg/m3 1.67 µg/m3 4.66 µg/m3 53.44 µg/m3 38.07 µg/m3 1.11 mg/m3 11.56 °C 84.19 % 1,026.75 mbar 0.78 m/s 240.02 Deg 48.41 µg/m3 10.45 µg/m3
2022-01-16 21:00 61.76 µg/m3 1.71 µg/m3 4.2 µg/m3 48.89 µg/m3 34.45 µg/m3 1.08 mg/m3 11.86 °C 82.96 % 1,026.48 mbar 0.86 m/s 233.82 Deg 53.5 µg/m3 11.34 µg/m3
2022-01-16 20:00 66.96 µg/m3 2.36 µg/m3 4.84 µg/m3 45.88 µg/m3 30.82 µg/m3 1.47 mg/m3 12.55 °C 81.07 % 1,026.02 mbar 0.72 m/s 239.13 Deg 92.64 µg/m3 12.02 µg/m3
2022-01-16 19:00 73.62 µg/m3 1.59 µg/m3 4.38 µg/m3 41.17 µg/m3 27.93 µg/m3 1.01 mg/m3 13.43 °C 78.4 % 1,025.66 mbar 0.62 m/s 224.4 Deg 49 µg/m3 8.24 µg/m3
2022-01-16 18:00 82.92 µg/m3 1.83 µg/m3 7.5 µg/m3 34.5 µg/m3 23.08 µg/m3 1.04 mg/m3 14.47 °C 74.38 % 1,025.09 mbar 0.51 m/s 199.13 Deg 71.85 µg/m3 5.09 µg/m3
2022-01-16 17:00 46.22 µg/m3 1.14 µg/m3 56.78 µg/m3 22.69 µg/m3 12.21 µg/m3 0.59 mg/m3 14.89 °C 72.88 % 1,024.74 mbar 1.9 m/s 53.02 Deg 30.48 µg/m3 2.36 µg/m3
2022-01-16 16:00 32.79 µg/m3 0.95 µg/m3 65.99 µg/m3 22.11 µg/m3 12.62 µg/m3 0.42 mg/m3 15.3 °C 69.33 % 1,024.64 mbar 2.15 m/s 48.65 Deg 19.37 µg/m3 1.91 µg/m3
2022-01-16 15:00 23.9 µg/m3 0.97 µg/m3 70.37 µg/m3 18.95 µg/m3 11.67 µg/m3 0.48 mg/m3 15.29 °C 68.1 % 1,024.57 mbar 2.15 m/s 53.85 Deg 19.06 µg/m3 3.36 µg/m3
2022-01-16 14:00 27.62 µg/m3 1.01 µg/m3 63.75 µg/m3 17.81 µg/m3 11.01 µg/m3 0.43 mg/m3 15.01 °C 68.29 % 1,024.62 mbar 2.73 m/s 58.87 Deg 23.55 µg/m3 2.89 µg/m3
2022-01-16 13:00 33.26 µg/m3 1.16 µg/m3 51.64 µg/m3 21.89 µg/m3 12.52 µg/m3 0.46 mg/m3 15.2 °C 67.76 % 1,024.98 mbar 2.01 m/s 58.27 Deg 28.56 µg/m3 4.86 µg/m3
2022-01-16 12:00 26.64 µg/m3 1.1 µg/m3 53.51 µg/m3 20.94 µg/m3 11.86 µg/m3 0.39 mg/m3 15.65 °C 65.27 % 1,025.23 mbar 1.51 m/s 118.12 Deg 20.53 µg/m3 2.52 µg/m3
2022-01-16 11:00 49.61 µg/m3 1.56 µg/m3 36.6 µg/m3 39.95 µg/m3 18.49 µg/m3 0.71 mg/m3 15.3 °C 65.21 % 1,025.41 mbar 0.54 m/s 181.27 Deg 40.72 µg/m3 9.13 µg/m3
2022-01-16 10:00 63.97 µg/m3 2.23 µg/m3 14.09 µg/m3 69.44 µg/m3 28.5 µg/m3 1.21 mg/m3 13.46 °C 71.62 % 1,025.09 mbar 0.26 m/s 200.69 Deg 79.01 µg/m3 9.01 µg/m3
2022-01-16 09:00 47.41 µg/m3 1.85 µg/m3 8.32 µg/m3 28 µg/m3 18.54 µg/m3 0.91 mg/m3 10.32 °C 80.77 % 1,024.50 mbar 0.64 m/s 237.85 Deg 57.25 µg/m3 8.66 µg/m3
2022-01-16 08:00 41.33 µg/m3 1.82 µg/m3 2.61 µg/m3 24.45 µg/m3 17.05 µg/m3 0.8 mg/m3 8.54 °C 85.22 % 1,024.14 mbar 0.69 m/s 240.9 Deg 60.79 µg/m3 6.19 µg/m3
2022-01-16 07:00 43.67 µg/m3 1.51 µg/m3 2.17 µg/m3 18.65 µg/m3 13.58 µg/m3 0.63 mg/m3 8.64 °C 84.86 % 1,023.41 mbar 0.46 m/s 242.95 Deg 39.21 µg/m3 5.65 µg/m3
2022-01-16 06:00 31.64 µg/m3 1.05 µg/m3 10.46 µg/m3 15.13 µg/m3 11.89 µg/m3 0.45 mg/m3 8.77 °C 84.61 % 1,022.65 mbar 0.67 m/s 243.43 Deg 12.93 µg/m3 2.97 µg/m3
2022-01-16 05:00 24.47 µg/m3 0.89 µg/m3 14.71 µg/m3 13.56 µg/m3 10.81 µg/m3 0.37 mg/m3 8.77 °C 84.1 % 1,022.64 mbar 0.82 m/s 238.98 Deg 3.61 µg/m3 2.96 µg/m3
2022-01-16 04:00 34.09 µg/m3 1.07 µg/m3 6.56 µg/m3 18.98 µg/m3 14.69 µg/m3 0.44 mg/m3 8.89 °C 83.46 % 1,023.04 mbar 0.71 m/s 239.12 Deg 11.95 µg/m3 4.43 µg/m3
2022-01-16 03:00 41.89 µg/m3 1.34 µg/m3 2.92 µg/m3 24.94 µg/m3 18.13 µg/m3 0.63 mg/m3 9.08 °C 82.73 % 1,022.93 mbar 0.62 m/s 246.92 Deg 20.3 µg/m3 6.04 µg/m3
2022-01-16 02:00 48.58 µg/m3 1.38 µg/m3 2.91 µg/m3 32.94 µg/m3 24.31 µg/m3 0.89 mg/m3 9.17 °C 82.18 % 1,022.29 mbar 0.76 m/s 238.67 Deg 32.45 µg/m3 7.45 µg/m3
2022-01-16 01:00 51.28 µg/m3 1.68 µg/m3 3.82 µg/m3 42.49 µg/m3 30.6 µg/m3 1.04 mg/m3 9.54 °C 81.11 % 1,022.64 mbar 0.5 m/s 241.7 Deg 43.11 µg/m3 11.18 µg/m3
2022-01-16 00:00 59.02 µg/m3 2.08 µg/m3 5.16 µg/m3 49.96 µg/m3 35.06 µg/m3 1.21 mg/m3 9.79 °C 80.09 % 1,022.32 mbar 0.46 m/s 236.78 Deg 74.69 µg/m3 11.13 µg/m3
2022-01-15 23:00 60.97 µg/m3 2.22 µg/m3 5.66 µg/m3 56.1 µg/m3 38.48 µg/m3 1.43 mg/m3 10.12 °C 79.02 % 1,021.87 mbar 0.51 m/s 233.1 Deg 80.57 µg/m3 12.36 µg/m3
2022-01-15 22:00 63.42 µg/m3 1.84 µg/m3 5.97 µg/m3 55.68 µg/m3 38.26 µg/m3 1.18 mg/m3 10.5 °C 77.3 % 1,022.46 mbar 0.71 m/s 227.13 Deg 54.04 µg/m3 11.23 µg/m3
2022-01-15 21:00 71.02 µg/m3 2.51 µg/m3 4.84 µg/m3 58.24 µg/m3 39.33 µg/m3 1.42 mg/m3 11.05 °C 75.36 % 1,021.96 mbar 0.47 m/s 219.04 Deg 97.87 µg/m3 14.96 µg/m3
2022-01-15 20:00 73.38 µg/m3 1.75 µg/m3 5.58 µg/m3 49.67 µg/m3 33.27 µg/m3 1.08 mg/m3 11.54 °C 73.16 % 1,021.75 mbar 0.36 m/s 215.31 Deg 55.94 µg/m3 9.92 µg/m3
2022-01-15 19:00 74.43 µg/m3 1.51 µg/m3 6.54 µg/m3 46.27 µg/m3 22.47 µg/m3 0.97 mg/m3 12.17 °C 69.9 % 1,021.53 mbar 0.71 m/s 229.57 Deg 42.02 µg/m3 6.54 µg/m3
2022-01-15 18:00 66.13 µg/m3 1.03 µg/m3 21.4 µg/m3 38.45 µg/m3 14.27 µg/m3 0.55 mg/m3 13.02 °C 65.21 % 1,021.14 mbar 0.69 m/s 254.97 Deg 15.38 µg/m3 3.94 µg/m3
2022-01-15 17:00 28.39 µg/m3 0.81 µg/m3 62.21 µg/m3 19.61 µg/m3 8.62 µg/m3 0.33 mg/m3 13.79 °C 61.98 % 1,021.08 mbar 1.4 m/s 307.45 Deg 5.3 µg/m3 1.33 µg/m3
2022-01-15 16:00 24.03 µg/m3 0.8 µg/m3 70.87 µg/m3 22.96 µg/m3 7.93 µg/m3 0.28 mg/m3 14.08 °C 60.37 % 1,020.85 mbar 1.82 m/s 307.75 Deg 7.24 µg/m3 1.13 µg/m3
2022-01-15 15:00 19.63 µg/m3 0.82 µg/m3 75.47 µg/m3 20.34 µg/m3 7.68 µg/m3 0.28 mg/m3 14.33 °C 58.5 % 1,020.78 mbar 1.89 m/s 319.07 Deg 6.85 µg/m3 2.97 µg/m3
2022-01-15 14:00 19.5 µg/m3 0.88 µg/m3 71.44 µg/m3 24.68 µg/m3 8.84 µg/m3 0.29 mg/m3 14.55 °C 55.26 % 1,020.97 mbar 1.73 m/s 307.2 Deg 10.39 µg/m3 1.24 µg/m3
2022-01-15 13:00 20.59 µg/m3 0.83 µg/m3 71.2 µg/m3 26.92 µg/m3 9.82 µg/m3 0.28 mg/m3 14.25 °C 57.12 % 1,021.73 mbar 2.17 m/s 279.67 Deg 5.58 µg/m3 1.55 µg/m3
2022-01-15 12:00 19.36 µg/m3 0.85 µg/m3 68.62 µg/m3 34.13 µg/m3 9.64 µg/m3 0.3 mg/m3 13.97 °C 60.14 % 1,022.59 mbar 2.05 m/s 295.8 Deg 7.67 µg/m3 1.91 µg/m3
2022-01-15 11:00 29.24 µg/m3 0.95 µg/m3 59.33 µg/m3 45.91 µg/m3 11.41 µg/m3 0.33 mg/m3 13.66 °C 60.37 % 1,023.01 mbar 1.64 m/s 284.92 Deg 9.5 µg/m3 2.02 µg/m3
2022-01-15 10:00 53.47 µg/m3 1.42 µg/m3 29.06 µg/m3 87.55 µg/m3 22.53 µg/m3 0.55 mg/m3 12.35 °C 67.57 % 1,022.95 mbar 1.14 m/s 239.55 Deg 33.52 µg/m3 5.98 µg/m3
2022-01-15 09:00 67.03 µg/m3 2.62 µg/m3 8.29 µg/m3 78.2 µg/m3 33.59 µg/m3 0.91 mg/m3 10 °C 73.95 % 1,022.87 mbar 0.93 m/s 231.2 Deg 102.67 µg/m3 15.43 µg/m3
2022-01-15 08:00 60.82 µg/m3 2.41 µg/m3 3.05 µg/m3 30.19 µg/m3 20.12 µg/m3 0.84 mg/m3 7.95 °C 79.3 % 1,022.91 mbar 1.03 m/s 231.23 Deg 95.71 µg/m3 6.88 µg/m3
2022-01-15 07:00 48.08 µg/m3 1.65 µg/m3 3.45 µg/m3 19.91 µg/m3 13.73 µg/m3 0.7 mg/m3 7.7 °C 79.64 % 1,022.70 mbar 1 m/s 230.88 Deg 46.52 µg/m3 5.41 µg/m3
2022-01-15 06:00 33.28 µg/m3 1.03 µg/m3 11.63 µg/m3 15.07 µg/m3 11.29 µg/m3 0.45 mg/m3 7.75 °C 78.68 % 1,022.47 mbar 1.15 m/s 236.18 Deg 12.4 µg/m3 3.23 µg/m3
2022-01-15 05:00 23.39 µg/m3 0.89 µg/m3 21.37 µg/m3 14.43 µg/m3 11.39 µg/m3 0.31 mg/m3 7.89 °C 75.97 % 1,022.82 mbar 1 m/s 240.88 Deg 2.63 µg/m3 2.49 µg/m3
2022-01-15 04:00 21.09 µg/m3 0.92 µg/m3 26.96 µg/m3 15.25 µg/m3 12.12 µg/m3 0.31 mg/m3 8.02 °C 74.27 % 1,023.42 mbar 0.99 m/s 240.03 Deg 1.83 µg/m3 2.89 µg/m3
2022-01-15 03:00 21.07 µg/m3 0.88 µg/m3 29.25 µg/m3 17.34 µg/m3 13.27 µg/m3 0.3 mg/m3 8.15 °C 73.28 % 1,024.03 mbar 1.03 m/s 235.58 Deg 1.09 µg/m3 3.08 µg/m3
2022-01-15 02:00 38.17 µg/m3 0.96 µg/m3 21.49 µg/m3 20.04 µg/m3 15.08 µg/m3 0.44 mg/m3 8.37 °C 71.3 % 1,024.33 mbar 1.12 m/s 234.13 Deg 6.31 µg/m3 6.25 µg/m3
2022-01-15 01:00 42.49 µg/m3 0.92 µg/m3 19.81 µg/m3 19.61 µg/m3 14.01 µg/m3 0.44 mg/m3 8.6 °C 69.71 % 1,024.55 mbar 0.75 m/s 231.62 Deg 4.37 µg/m3 3.7 µg/m3
2022-01-15 00:00 48.4 µg/m3 1.02 µg/m3 16.07 µg/m3 28.76 µg/m3 19.81 µg/m3 0.56 mg/m3 8.94 °C 69.92 % 1,025.25 mbar 0.84 m/s 232.2 Deg 10.44 µg/m3 4.64 µg/m3
2022-01-14 23:00 58.49 µg/m3 1.15 µg/m3 11.53 µg/m3 37.23 µg/m3 22.56 µg/m3 0.64 mg/m3 9.54 °C 68.4 % 1,025.83 mbar 0.8 m/s 229.38 Deg 19.39 µg/m3 4.78 µg/m3
2022-01-14 22:00 58.28 µg/m3 1.14 µg/m3 19.86 µg/m3 31.73 µg/m3 18.3 µg/m3 0.64 mg/m3 10.32 °C 64.44 % 1,026.04 mbar 1.11 m/s 237.17 Deg 15.82 µg/m3 6.09 µg/m3
2022-01-14 21:00 79.37 µg/m3 1.92 µg/m3 6.28 µg/m3 50.31 µg/m3 27.47 µg/m3 1.02 mg/m3 11 °C 61.45 % 1,026.17 mbar 0.92 m/s 241.42 Deg 64.41 µg/m3 8.08 µg/m3
2022-01-14 20:00 71.88 µg/m3 1.34 µg/m3 19.34 µg/m3 38.15 µg/m3 16.54 µg/m3 0.72 mg/m3 12.07 °C 55.95 % 1,026.13 mbar 0.79 m/s 283.33 Deg 37.22 µg/m3 3.34 µg/m3
2022-01-14 19:00 48.08 µg/m3 1.22 µg/m3 47.1 µg/m3 46.43 µg/m3 14.24 µg/m3 0.47 mg/m3 12.45 °C 55.42 % 1,026.00 mbar 0.91 m/s 35.15 Deg 29.3 µg/m3 3.49 µg/m3
2022-01-14 18:00 34.17 µg/m3 1.21 µg/m3 55.93 µg/m3 38.93 µg/m3 13.83 µg/m3 0.48 mg/m3 12.61 °C 57.04 % 1,025.76 mbar 1.88 m/s 40.57 Deg 36.73 µg/m3 2.83 µg/m3
2022-01-14 17:00 22.86 µg/m3 1.11 µg/m3 63.71 µg/m3 31.03 µg/m3 11.8 µg/m3 0.36 mg/m3 12.87 °C 58.32 % 1,025.65 mbar 2.32 m/s 36.5 Deg 28.54 µg/m3 1.75 µg/m3
2022-01-14 16:00 21.2 µg/m3 1.28 µg/m3 68.35 µg/m3 29.22 µg/m3 11.69 µg/m3 0.31 mg/m3 13.06 °C 56.72 % 1,025.80 mbar 3.01 m/s 35.88 Deg 19.22 µg/m3 1.57 µg/m3
2022-01-14 15:00 25.25 µg/m3 1.14 µg/m3 68.35 µg/m3 34.58 µg/m3 12.84 µg/m3 0.32 mg/m3 13.27 °C 53.93 % 1,025.81 mbar 3.4 m/s 43.05 Deg 30.88 µg/m3 1.44 µg/m3
2022-01-14 14:00 23.45 µg/m3 1.02 µg/m3 70.19 µg/m3 40.31 µg/m3 13.46 µg/m3 0 mg/m3 13.1 °C 56.49 % 1,026.15 mbar 3.71 m/s 40.37 Deg 26.3 µg/m3 1.78 µg/m3
2022-01-14 13:00 20.59 µg/m3 2.07 µg/m3 70.21 µg/m3 30.75 µg/m3 11.81 µg/m3 0.33 mg/m3 13 °C 56.78 % 1,026.82 mbar 4.61 m/s 46.15 Deg 25.78 µg/m3 1.36 µg/m3
2022-01-14 12:00 20.06 µg/m3 1.07 µg/m3 70.49 µg/m3 22.37 µg/m3 11.06 µg/m3 0.29 mg/m3 12.87 °C 57.14 % 1,027.27 mbar 4.74 m/s 44.87 Deg 23.99 µg/m3 1.57 µg/m3
2022-01-14 11:00 21.34 µg/m3 1.11 µg/m3 70.2 µg/m3 20.04 µg/m3 10.7 µg/m3 0.28 mg/m3 12.92 °C 59.58 % 1,027.44 mbar 5.4 m/s 47.23 Deg 25.54 µg/m3 1.05 µg/m3
2022-01-14 10:00 20.14 µg/m3 0.96 µg/m3 71.47 µg/m3 20.02 µg/m3 10.8 µg/m3 0.26 mg/m3 12.74 °C 61.07 % 1,027.18 mbar 5.45 m/s 47.68 Deg 22.35 µg/m3 2.08 µg/m3
2022-01-14 09:00 24.86 µg/m3 1.06 µg/m3 68.29 µg/m3 21.56 µg/m3 11.06 µg/m3 0.31 mg/m3 12.76 °C 61.2 % 1,026.95 mbar 4.73 m/s 45.23 Deg 28.05 µg/m3 1.57 µg/m3
2022-01-14 08:00 24.15 µg/m3 1.07 µg/m3 67.28 µg/m3 21.07 µg/m3 11.18 µg/m3 0.33 mg/m3 12.51 °C 60.78 % 1,026.82 mbar 4.65 m/s 43.03 Deg 30.53 µg/m3 1.47 µg/m3
2022-01-14 07:00 12.86 µg/m3 0.91 µg/m3 75.53 µg/m3 18.96 µg/m3 10.7 µg/m3 0.26 mg/m3 12.37 °C 60.75 % 1,026.65 mbar 4.91 m/s 41.7 Deg 14.88 µg/m3 1.34 µg/m3
2022-01-14 06:00 6.33 µg/m3 0.79 µg/m3 80.66 µg/m3 16.31 µg/m3 9.57 µg/m3 0.19 mg/m3 12.32 °C 60.96 % 1,026.56 mbar 5.03 m/s 39.32 Deg 2.78 µg/m3 0.94 µg/m3
2022-01-14 05:00 2.91 µg/m3 0.71 µg/m3 83.97 µg/m3 14.63 µg/m3 9.47 µg/m3 0.16 mg/m3 12.33 °C 59.03 % 1,026.71 mbar 5.51 m/s 42.93 Deg 0.55 µg/m3 0.92 µg/m3
2022-01-14 04:00 -2.36 µg/m3 0.72 µg/m3 85.57 µg/m3 15.71 µg/m3 10.24 µg/m3 0.15 mg/m3 12.25 °C 57.96 % 1,026.95 mbar 5.64 m/s 45.12 Deg 2.54 µg/m3 0.86 µg/m3
2022-01-14 03:00 1.18 µg/m3 0.72 µg/m3 85.31 µg/m3 15.21 µg/m3 9.99 µg/m3 0.13 mg/m3 12.04 °C 56.9 % 1,027.05 mbar 5.28 m/s 40.43 Deg -0.07 µg/m3 0.86 µg/m3
2022-01-14 02:00 0.69 µg/m3 0.66 µg/m3 84.36 µg/m3 15.17 µg/m3 10.26 µg/m3 0.17 mg/m3 12.21 °C 58.67 % 1,026.87 mbar 6.13 m/s 45.18 Deg 0.5 µg/m3 0.94 µg/m3
2022-01-14 01:00 1.7 µg/m3 0.69 µg/m3 83.51 µg/m3 15.2 µg/m3 10.57 µg/m3 0.17 mg/m3 12.5 °C 59.82 % 1,026.95 mbar 6.34 m/s 46.12 Deg 1.32 µg/m3 1 µg/m3
2022-01-14 00:00 6.79 µg/m3 0.77 µg/m3 80.45 µg/m3 14.9 µg/m3 10.16 µg/m3 0.19 mg/m3 12.62 °C 59.41 % 1,027.09 mbar 6.12 m/s 46.08 Deg 1.81 µg/m3 1.05 µg/m3
2022-01-13 23:00 5.36 µg/m3 0.73 µg/m3 79.9 µg/m3 14.14 µg/m3 9.73 µg/m3 0.21 mg/m3 12.73 °C 59.9 % 1,027.17 mbar 6.6 m/s 47.13 Deg 3.89 µg/m3 1.29 µg/m3
2022-01-13 22:00 7.28 µg/m3 0.74 µg/m3 78.6 µg/m3 15.26 µg/m3 10.33 µg/m3 0.21 mg/m3 12.76 °C 62.2 % 1,027.06 mbar 6.42 m/s 47.55 Deg 4.62 µg/m3 1.66 µg/m3
2022-01-13 21:00 2.61 µg/m3 0.72 µg/m3 78.93 µg/m3 15.88 µg/m3 10.68 µg/m3 0.22 mg/m3 12.71 °C 63.36 % 1,026.83 mbar 6.38 m/s 48 Deg 9.98 µg/m3 1.08 µg/m3
2022-01-13 20:00 5.31 µg/m3 0.75 µg/m3 78.75 µg/m3 15.99 µg/m3 10.89 µg/m3 0.23 mg/m3 12.83 °C 65.57 % 1,026.33 mbar 6.96 m/s 48.35 Deg 9.53 µg/m3 1.12 µg/m3
2022-01-13 19:00 5.89 µg/m3 0.75 µg/m3 76.99 µg/m3 16.22 µg/m3 10.85 µg/m3 0.23 mg/m3 12.95 °C 66.65 % 1,025.80 mbar 7.14 m/s 49.55 Deg 10.01 µg/m3 1.28 µg/m3
2022-01-13 18:00 9.57 µg/m3 0.8 µg/m3 74.22 µg/m3 16.03 µg/m3 11.05 µg/m3 0.26 mg/m3 13.04 °C 66.8 % 1,025.19 mbar 7.38 m/s 48.77 Deg 12.6 µg/m3 3.41 µg/m3
2022-01-13 17:00 6.38 µg/m3 0.8 µg/m3 74.57 µg/m3 16.1 µg/m3 11.1 µg/m3 0.26 mg/m3 13.12 °C 67.58 % 1,024.73 mbar 7.53 m/s 48.45 Deg 12.9 µg/m3 1.73 µg/m3
2022-01-13 16:00 9.34 µg/m3 0.82 µg/m3 75.05 µg/m3 17.24 µg/m3 11.62 µg/m3 0.26 mg/m3 13.15 °C 66.93 % 1,024.39 mbar 8.02 m/s 48.42 Deg 15.34 µg/m3 2.05 µg/m3
2022-01-13 15:00 6.91 µg/m3 0.8 µg/m3 72.98 µg/m3 16.92 µg/m3 11.9 µg/m3 0.25 mg/m3 13.12 °C 67.78 % 1,024.01 mbar 8.21 m/s 47.77 Deg 15.68 µg/m3 1.44 µg/m3
2022-01-13 14:00 12.36 µg/m3 0.78 µg/m3 71 µg/m3 15.82 µg/m3 11.64 µg/m3 0.25 mg/m3 13.12 °C 68.22 % 1,023.77 mbar 8.41 m/s 47.68 Deg 12.09 µg/m3 1.21 µg/m3
2022-01-13 13:00 8.28 µg/m3 0.8 µg/m3 69.18 µg/m3 14.83 µg/m3 11.42 µg/m3 0.25 mg/m3 12.84 °C 70.75 % 1,023.88 mbar 8.81 m/s 49.02 Deg 14.73 µg/m3 1.44 µg/m3
2022-01-13 12:00 8.42 µg/m3 0.76 µg/m3 68.28 µg/m3 13.28 µg/m3 10.8 µg/m3 0.24 mg/m3 13.08 °C 72.6 % 1,023.94 mbar 9.57 m/s 50.87 Deg 9.68 µg/m3 1.6 µg/m3
2022-01-13 11:00 9.77 µg/m3 0.83 µg/m3 65.76 µg/m3 12.16 µg/m3 9.58 µg/m3 0.25 mg/m3 13.43 °C 71.84 % 1,023.92 mbar 8.44 m/s 50 Deg 12.69 µg/m3 1.42 µg/m3
2022-01-13 10:00 12.96 µg/m3 0.85 µg/m3 59.23 µg/m3 11.42 µg/m3 8.57 µg/m3 0.27 mg/m3 12.98 °C 76.09 % 1,023.45 mbar 6.53 m/s 44.27 Deg 16.52 µg/m3 1.66 µg/m3
2022-01-13 09:00 11.21 µg/m3 0.78 µg/m3 56.05 µg/m3 10.63 µg/m3 7.15 µg/m3 0.31 mg/m3 13.34 °C 72.56 % 1,022.71 mbar 6.11 m/s 47.7 Deg 15.31 µg/m3 1.76 µg/m3
2022-01-13 08:00 33.56 µg/m3 1.07 µg/m3 42.47 µg/m3 8.86 µg/m3 6.55 µg/m3 0.4 mg/m3 12.25 °C 77.15 % 1,022.18 mbar 4.39 m/s 65.95 Deg 29.51 µg/m3 3.6 µg/m3
2022-01-13 07:00 46.97 µg/m3 1.23 µg/m3 18.2 µg/m3 12 µg/m3 8.79 µg/m3 0.53 mg/m3 11.63 °C 81.99 % 1,021.67 mbar 1.6 m/s 177.97 Deg 45.23 µg/m3 2.91 µg/m3
2022-01-13 06:00 23.16 µg/m3 0.7 µg/m3 46.11 µg/m3 8.23 µg/m3 6.69 µg/m3 0.26 mg/m3 10.83 °C 83.83 % 1,021.40 mbar 1.69 m/s 105.53 Deg 8.47 µg/m3 1.45 µg/m3
2022-01-13 05:00 5.62 µg/m3 0.61 µg/m3 57.77 µg/m3 8.5 µg/m3 6.28 µg/m3 0.24 mg/m3 10.6 °C 87.95 % 1,021.16 mbar 0.99 m/s 266.92 Deg 0.49 µg/m3 2.15 µg/m3
2022-01-13 04:00 5.84 µg/m3 0.62 µg/m3 62 µg/m3 9.2 µg/m3 7.19 µg/m3 0.23 mg/m3 10.79 °C 87.03 % 1,021.35 mbar 1.31 m/s 309.03 Deg 0.03 µg/m3 1.26 µg/m3
2022-01-13 03:00 5.23 µg/m3 0.61 µg/m3 55.29 µg/m3 6.1 µg/m3 5.01 µg/m3 0.19 mg/m3 10.97 °C 87.74 % 1,021.06 mbar 1.41 m/s 247.95 Deg 0.06 µg/m3 1.49 µg/m3
2022-01-13 02:00 5.18 µg/m3 0.61 µg/m3 58.35 µg/m3 5.72 µg/m3 4.99 µg/m3 0.24 mg/m3 10.92 °C 88.62 % 1,020.96 mbar 1.26 m/s 257.98 Deg -0.02 µg/m3 1.57 µg/m3
2022-01-13 01:00 9.28 µg/m3 0.66 µg/m3 54.41 µg/m3 7.16 µg/m3 6.44 µg/m3 0.3 mg/m3 10.57 °C 89.14 % 1,020.91 mbar 0.95 m/s 266.77 Deg 0.12 µg/m3 1.91 µg/m3
2022-01-13 00:00 14.5 µg/m3 0.62 µg/m3 47.56 µg/m3 6.25 µg/m3 5.73 µg/m3 0.32 mg/m3 10.38 °C 89.5 % 1,020.79 mbar 1.03 m/s 223.52 Deg 0.43 µg/m3 2.44 µg/m3
2022-01-12 23:00 17.59 µg/m3 0.64 µg/m3 48.43 µg/m3 5.09 µg/m3 4.42 µg/m3 0.31 mg/m3 10.46 °C 89.61 % 1,020.72 mbar 0.83 m/s 180.82 Deg 1.39 µg/m3 1.97 µg/m3
2022-01-12 22:00 25.88 µg/m3 0.7 µg/m3 38.78 µg/m3 10.75 µg/m3 9.57 µg/m3 0.37 mg/m3 11.12 °C 89.48 % 1,020.24 mbar 1 m/s 283.9 Deg 4.78 µg/m3 2.47 µg/m3
2022-01-12 21:00 29.35 µg/m3 0.73 µg/m3 36.18 µg/m3 13.53 µg/m3 11.66 µg/m3 0.37 mg/m3 11.58 °C 87.48 % 1,019.85 mbar 0.98 m/s 249.5 Deg 3.47 µg/m3 3.34 µg/m3
2022-01-12 20:00 34.58 µg/m3 0.8 µg/m3 32.93 µg/m3 15.04 µg/m3 12.12 µg/m3 0.38 mg/m3 11.97 °C 83.33 % 1,019.24 mbar 1.12 m/s 228.37 Deg 6.89 µg/m3 2.47 µg/m3
2022-01-12 19:00 22.02 µg/m3 0.84 µg/m3 48.9 µg/m3 16.61 µg/m3 10.46 µg/m3 0.35 mg/m3 13.22 °C 70.55 % 1,018.48 mbar 2.42 m/s 183.1 Deg 15.78 µg/m3 2.94 µg/m3
2022-01-12 18:00 30.06 µg/m3 1.12 µg/m3 45.49 µg/m3 26.55 µg/m3 12.88 µg/m3 0.45 mg/m3 13.45 °C 68.14 % 1,017.65 mbar 3.24 m/s 64.83 Deg 34.93 µg/m3 2.24 µg/m3
2022-01-12 17:00 31.02 µg/m3 1.27 µg/m3 35.74 µg/m3 34 µg/m3 15.86 µg/m3 0.52 mg/m3 13.31 °C 71.59 % 1,017.13 mbar 2.47 m/s 70.95 Deg 50.65 µg/m3 2.2 µg/m3
2022-01-12 16:00 11.08 µg/m3 1.09 µg/m3 50.37 µg/m3 21 µg/m3 12.19 µg/m3 0.38 mg/m3 13.29 °C 74.59 % 1,016.78 mbar 4.02 m/s 58.9 Deg 35.05 µg/m3 2.89 µg/m3
2022-01-12 15:00 29.61 µg/m3 1.22 µg/m3 46.48 µg/m3 22.69 µg/m3 13.33 µg/m3 0.42 mg/m3 13.67 °C 74.1 % 1,016.34 mbar 3.54 m/s 62.05 Deg 38.07 µg/m3 2.94 µg/m3
2022-01-12 14:00 23.22 µg/m3 1.02 µg/m3 45.39 µg/m3 40.96 µg/m3 13.31 µg/m3 0.39 mg/m3 14.84 °C 61.53 % 1,016.20 mbar 1.5 m/s 269.72 Deg 31.27 µg/m3 4.07 µg/m3
2022-01-12 13:00 13.65 µg/m3 0.94 µg/m3 48.04 µg/m3 39.6 µg/m3 12.9 µg/m3 0.35 mg/m3 15.18 °C 60.25 % 1,016.11 mbar 1.66 m/s 331.98 Deg 25.11 µg/m3 2.62 µg/m3
2022-01-12 12:00 19.96 µg/m3 1.06 µg/m3 43.03 µg/m3 38 µg/m3 12.16 µg/m3 0.35 mg/m3 15.23 °C 60.47 % 1,016.18 mbar 1.31 m/s 249.37 Deg 26.17 µg/m3 5.51 µg/m3
2022-01-12 11:00 22.9 µg/m3 1.18 µg/m3 42.62 µg/m3 40.33 µg/m3 13.1 µg/m3 0.43 mg/m3 15.01 °C 62.01 % 1,016.25 mbar 1.33 m/s 109.23 Deg 36.98 µg/m3 3.34 µg/m3
2022-01-12 10:00 54.33 µg/m3 2.6 µg/m3 20.02 µg/m3 74.92 µg/m3 24.25 µg/m3 0.87 mg/m3 14.31 °C 68.74 % 1,015.68 mbar 0.78 m/s 228.48 Deg 104.66 µg/m3 12.23 µg/m3
2022-01-12 09:00 66.88 µg/m3 4.23 µg/m3 4.26 µg/m3 102.52 µg/m3 39.74 µg/m3 1.62 mg/m3 12.06 °C 75.86 % 1,014.94 mbar 0.58 m/s 229.32 Deg 214.79 µg/m3 15.75 µg/m3
2022-01-12 08:00 54.27 µg/m3 3.79 µg/m3 3.06 µg/m3 45.47 µg/m3 30.32 µg/m3 1.4 mg/m3 10.46 °C 80.64 % 1,014.29 mbar 0.77 m/s 230.48 Deg 187.29 µg/m3 10.29 µg/m3
2022-01-12 07:00 45.02 µg/m3 2.46 µg/m3 2.71 µg/m3 25.57 µg/m3 17.16 µg/m3 1.05 mg/m3 10.34 °C 80.72 % 1,013.74 mbar 0.92 m/s 231.6 Deg 111.65 µg/m3 8.89 µg/m3
2022-01-12 06:00 31.22 µg/m3 1.09 µg/m3 8.45 µg/m3 18.01 µg/m3 12.56 µg/m3 0.48 mg/m3 10.43 °C 79.86 % 1,013.15 mbar 0.96 m/s 232.98 Deg 19.97 µg/m3 3.81 µg/m3
2022-01-12 05:00 20.99 µg/m3 0.83 µg/m3 18.56 µg/m3 15.11 µg/m3 10.67 µg/m3 0.33 mg/m3 11.18 °C 76.24 % 1,012.83 mbar 1.04 m/s 233.53 Deg 5.26 µg/m3 3.1 µg/m3
2022-01-12 04:00 15.96 µg/m3 0.78 µg/m3 27.8 µg/m3 15.24 µg/m3 10.75 µg/m3 0.28 mg/m3 11.64 °C 73.45 % 1,012.71 mbar 0.9 m/s 234.72 Deg 1.83 µg/m3 3.15 µg/m3
2022-01-12 03:00 11.43 µg/m3 0.65 µg/m3 40.1 µg/m3 16.57 µg/m3 9.44 µg/m3 0.21 mg/m3 12.2 °C 70.21 % 1,012.81 mbar 0.9 m/s 241.5 Deg 0.31 µg/m3 1.78 µg/m3
2022-01-12 02:00 7.16 µg/m3 0.65 µg/m3 52.22 µg/m3 18.64 µg/m3 8.44 µg/m3 0.27 mg/m3 12.88 °C 67.57 % 1,012.46 mbar 0.97 m/s 271.65 Deg -0.18 µg/m3 1.73 µg/m3
2022-01-12 01:00 14.98 µg/m3 0.69 µg/m3 45.78 µg/m3 19.63 µg/m3 9.75 µg/m3 0.29 mg/m3 13.04 °C 66.57 % 1,012.19 mbar 1.04 m/s 253.07 Deg 1 µg/m3 1.97 µg/m3
2022-01-12 00:00 10.59 µg/m3 0.64 µg/m3 54.91 µg/m3 16.12 µg/m3 8.45 µg/m3 0.28 mg/m3 13.39 °C 63.52 % 1,011.93 mbar 1.55 m/s 282.77 Deg 1.1 µg/m3 1.78 µg/m3
2022-01-11 23:00 10.22 µg/m3 0.7 µg/m3 55.99 µg/m3 16.3 µg/m3 9.35 µg/m3 0.29 mg/m3 13.59 °C 63.2 % 1,011.63 mbar 1.98 m/s 302.02 Deg 1.33 µg/m3 1.82 µg/m3
2022-01-11 22:00 12.34 µg/m3 0.7 µg/m3 55.18 µg/m3 17.09 µg/m3 10.23 µg/m3 0.3 mg/m3 13.72 °C 62.18 % 1,010.92 mbar 2.03 m/s 298.35 Deg 1.5 µg/m3 2.08 µg/m3
2022-01-11 21:00 15.33 µg/m3 0.68 µg/m3 51.37 µg/m3 19.32 µg/m3 10.26 µg/m3 0.31 mg/m3 13.89 °C 62.02 % 1,010.40 mbar 2 m/s 289.95 Deg 2.31 µg/m3 2.07 µg/m3
2022-01-11 20:00 17.83 µg/m3 0.71 µg/m3 48.85 µg/m3 19.23 µg/m3 10.85 µg/m3 0.33 mg/m3 14.25 °C 59.22 % 1,009.70 mbar 2.09 m/s 297.5 Deg 4.3 µg/m3 2.23 µg/m3
2022-01-11 19:00 24.98 µg/m3 0.75 µg/m3 44.09 µg/m3 23.24 µg/m3 12.56 µg/m3 0.35 mg/m3 14.28 °C 61.4 % 1,009.18 mbar 2.2 m/s 294.32 Deg 7.06 µg/m3 2.73 µg/m3
2022-01-11 18:00 28.37 µg/m3 0.78 µg/m3 42.25 µg/m3 22.76 µg/m3 10.69 µg/m3 0.37 mg/m3 14.34 °C 61.85 % 1,008.36 mbar 2.47 m/s 284.87 Deg 6.78 µg/m3 2.62 µg/m3
2022-01-11 17:00 29.31 µg/m3 0.83 µg/m3 44.33 µg/m3 33.35 µg/m3 12.63 µg/m3 0.37 mg/m3 14.5 °C 61.99 % 1,007.86 mbar 2.25 m/s 277.48 Deg 8.08 µg/m3 2.29 µg/m3
2022-01-11 16:00 22.79 µg/m3 0.8 µg/m3 52.3 µg/m3 30.1 µg/m3 12.27 µg/m3 0.32 mg/m3 14.73 °C 60.42 % 1,007.40 mbar 3.15 m/s 280.52 Deg 7.58 µg/m3 1.73 µg/m3
2022-01-11 15:00 20.83 µg/m3 0.81 µg/m3 69.36 µg/m3 26.15 µg/m3 9.06 µg/m3 0.29 mg/m3 14.74 °C 59.47 % 1,006.95 mbar 3.26 m/s 290.4 Deg 8.5 µg/m3 1.42 µg/m3
2022-01-11 14:00 18.18 µg/m3 0.78 µg/m3 57.43 µg/m3 18.96 µg/m3 7.52 µg/m3 0.28 mg/m3 14.62 °C 58.74 % 1,006.44 mbar 3.44 m/s 297.57 Deg 8.36 µg/m3 1.66 µg/m3
2022-01-11 13:00 18.45 µg/m3 0.78 µg/m3 54.94 µg/m3 19.03 µg/m3 7.15 µg/m3 0.3 mg/m3 14.67 °C 58.48 % 1,006.12 mbar 3.12 m/s 292.45 Deg 8.84 µg/m3 2.15 µg/m3
2022-01-11 12:00 18.9 µg/m3 0.82 µg/m3 54.2 µg/m3 19.53 µg/m3 6.57 µg/m3 0.29 mg/m3 14.37 °C 60.09 % 1,006.23 mbar 2.98 m/s 299.95 Deg 9.7 µg/m3 1.84 µg/m3
2022-01-11 11:00 18.26 µg/m3 0.8 µg/m3 54.38 µg/m3 21.91 µg/m3 7.23 µg/m3 0.29 mg/m3 13.8 °C 60.32 % 1,006.11 mbar 2.83 m/s 304.7 Deg 8.12 µg/m3 1.47 µg/m3
2022-01-11 10:00 25.17 µg/m3 0.84 µg/m3 47.78 µg/m3 24.74 µg/m3 8.11 µg/m3 0.31 mg/m3 13.08 °C 64.95 % 1,005.47 mbar 2.72 m/s 296.93 Deg 9.83 µg/m3 1.91 µg/m3
2022-01-11 09:00 25.24 µg/m3 0.86 µg/m3 46.83 µg/m3 22.87 µg/m3 7.82 µg/m3 0.32 mg/m3 12.47 °C 66.1 % 1,004.57 mbar 3.01 m/s 300.27 Deg 10.33 µg/m3 1.84 µg/m3
2022-01-11 08:00 32.79 µg/m3 0.87 µg/m3 41.44 µg/m3 14.76 µg/m3 6.09 µg/m3 0.35 mg/m3 12.04 °C 65.65 % 1,003.72 mbar 2.49 m/s 293.08 Deg 11.82 µg/m3 2.49 µg/m3
2022-01-11 07:00 29.91 µg/m3 0.81 µg/m3 44.41 µg/m3 13.01 µg/m3 6.5 µg/m3 0.31 mg/m3 11.74 °C 64.82 % 1,003.04 mbar 2.31 m/s 283.27 Deg 9.55 µg/m3 1.76 µg/m3
2022-01-11 06:00 14.19 µg/m3 0.72 µg/m3 59.71 µg/m3 11.77 µg/m3 5.97 µg/m3 0.23 mg/m3 11.73 °C 63.27 % 1,002.51 mbar 2.3 m/s 278.13 Deg 2.51 µg/m3 1 µg/m3
2022-01-11 05:00 4.97 µg/m3 0.66 µg/m3 70.14 µg/m3 10.23 µg/m3 5.69 µg/m3 0.19 mg/m3 11.81 °C 61.75 % 1,002.34 mbar 2.05 m/s 272.58 Deg 0.15 µg/m3 1.5 µg/m3
2022-01-11 04:00 2.53 µg/m3 0.75 µg/m3 74.99 µg/m3 11.41 µg/m3 7.07 µg/m3 0.19 mg/m3 11.92 °C 59.25 % 1,002.31 mbar 2.15 m/s 280.62 Deg -0.2 µg/m3 2.49 µg/m3
2022-01-11 03:00 2.85 µg/m3 0.69 µg/m3 73.31 µg/m3 10.31 µg/m3 5.95 µg/m3 0.15 mg/m3 11.73 °C 61.77 % 1,002.25 mbar 1.95 m/s 268.33 Deg -0.11 µg/m3 0.92 µg/m3
2022-01-11 02:00 3.6 µg/m3 0.63 µg/m3 73.98 µg/m3 8.52 µg/m3 5.21 µg/m3 0.19 mg/m3 11.81 °C 60.92 % 1,001.76 mbar 2.54 m/s 279.23 Deg 0.04 µg/m3 0.92 µg/m3
2022-01-11 01:00 5.04 µg/m3 0.62 µg/m3 72.77 µg/m3 10.28 µg/m3 5.55 µg/m3 0.2 mg/m3 11.82 °C 60.87 % 1,001.60 mbar 1.97 m/s 269.28 Deg 0.06 µg/m3 1.03 µg/m3
2022-01-11 00:00 7.07 µg/m3 0.58 µg/m3 71.91 µg/m3 10.62 µg/m3 5.62 µg/m3 0.21 mg/m3 11.98 °C 60.2 % 1,001.46 mbar 2.11 m/s 271.82 Deg 0.22 µg/m3 1.34 µg/m3
2022-01-10 23:00 6.34 µg/m3 0.64 µg/m3 73.69 µg/m3 11.48 µg/m3 6.61 µg/m3 0.2 mg/m3 12.05 °C 59.74 % 1,000.92 mbar 2.78 m/s 281.98 Deg 0.6 µg/m3 1 µg/m3
2022-01-10 22:00 7.9 µg/m3 0.58 µg/m3 71.28 µg/m3 14.87 µg/m3 9.38 µg/m3 0.21 mg/m3 12.13 °C 60.25 % 1,000.40 mbar 3.07 m/s 281.4 Deg 1.09 µg/m3 1.03 µg/m3
2022-01-10 21:00 10.87 µg/m3 0.65 µg/m3 67.85 µg/m3 12.86 µg/m3 5.99 µg/m3 0.21 mg/m3 12.25 °C 59.22 % 1,000.33 mbar 2.9 m/s 277.57 Deg 1.63 µg/m3 1.23 µg/m3
2022-01-10 20:00 15.48 µg/m3 0.71 µg/m3 63.23 µg/m3 17.82 µg/m3 9.35 µg/m3 0.26 mg/m3 12.14 °C 61.95 % 999.98 mbar 3.23 m/s 275.98 Deg 2.92 µg/m3 1.6 µg/m3
2022-01-10 19:00 16.96 µg/m3 0.67 µg/m3 62.29 µg/m3 14.89 µg/m3 7.14 µg/m3 0.25 mg/m3 11.98 °C 63.04 % 999.55 mbar 3.53 m/s 283.45 Deg 4.13 µg/m3 1.29 µg/m3
2022-01-10 18:00 22.42 µg/m3 0.7 µg/m3 58.61 µg/m3 16.11 µg/m3 6.32 µg/m3 0.29 mg/m3 11.97 °C 64.06 % 998.81 mbar 3.73 m/s 278.28 Deg 5.91 µg/m3 1.39 µg/m3
2022-01-10 17:00 20.61 µg/m3 0.68 µg/m3 60.08 µg/m3 19.81 µg/m3 7.57 µg/m3 0.26 mg/m3 12.03 °C 62.73 % 998.09 mbar 4.32 m/s 272.23 Deg 5.62 µg/m3 1.28 µg/m3
2022-01-10 16:00 21.5 µg/m3 0.68 µg/m3 59.31 µg/m3 24.14 µg/m3 7.42 µg/m3 0.26 mg/m3 12.57 °C 60.89 % 997.43 mbar 4.26 m/s 271.18 Deg 7.41 µg/m3 1.24 µg/m3
2022-01-10 15:00 19.71 µg/m3 0.65 µg/m3 62.4 µg/m3 23.71 µg/m3 8.11 µg/m3 0.24 mg/m3 12.68 °C 59.59 % 996.93 mbar 4.86 m/s 270.38 Deg 7.41 µg/m3 1.18 µg/m3
2022-01-10 14:00 18.98 µg/m3 0.62 µg/m3 62.13 µg/m3 26.06 µg/m3 9.75 µg/m3 0.24 mg/m3 13.09 °C 58.83 % 997.12 mbar 4.92 m/s 272.82 Deg 8.03 µg/m3 1.12 µg/m3
2022-01-10 13:00 18.93 µg/m3 0.7 µg/m3 61.86 µg/m3 30.98 µg/m3 10.75 µg/m3 0.24 mg/m3 13.23 °C 56.09 % 997.48 mbar 4.03 m/s 269 Deg 7.59 µg/m3 1.21 µg/m3
2022-01-10 12:00 22.7 µg/m3 0.61 µg/m3 60.68 µg/m3 19.6 µg/m3 7.54 µg/m3 0.24 mg/m3 12 °C 64.11 % 998.29 mbar 3.11 m/s 269.33 Deg 8.34 µg/m3 0.98 µg/m3
2022-01-10 11:00 21.5 µg/m3 0.65 µg/m3 62.87 µg/m3 12.44 µg/m3 5.77 µg/m3 0.23 mg/m3 12.46 °C 56.54 % 998.90 mbar 3.87 m/s 274.2 Deg 7.03 µg/m3 2.15 µg/m3
2022-01-10 10:00 34.67 µg/m3 0.7 µg/m3 47.98 µg/m3 14.41 µg/m3 6.13 µg/m3 0.27 mg/m3 11.64 °C 66.48 % 998.98 mbar 2.84 m/s 267.45 Deg 12.49 µg/m3 1.82 µg/m3
2022-01-10 09:00 38.51 µg/m3 0.75 µg/m3 46.26 µg/m3 6.77 µg/m3 4.57 µg/m3 0.29 mg/m3 10.07 °C 73.96 % 999.04 mbar 2.9 m/s 261.32 Deg 14.37 µg/m3 1.47 µg/m3
2022-01-10 08:00 49.81 µg/m3 0.84 µg/m3 33.86 µg/m3 7.88 µg/m3 5.4 µg/m3 0.38 mg/m3 10.29 °C 79.09 % 998.98 mbar 2.22 m/s 250.48 Deg 18.22 µg/m3 2.41 µg/m3
2022-01-10 07:00 40.26 µg/m3 0.74 µg/m3 42.38 µg/m3 7.2 µg/m3 5.04 µg/m3 0.33 mg/m3 9.64 °C 84.55 % 999.30 mbar 1.94 m/s 253.55 Deg 11.92 µg/m3 2.66 µg/m3
2022-01-10 06:00 13.05 µg/m3 0.55 µg/m3 68.08 µg/m3 5.79 µg/m3 4.17 µg/m3 0.19 mg/m3 9.64 °C 85.15 % 1,000.08 mbar 2.26 m/s 265.33 Deg 1.35 µg/m3 0.52 µg/m3
2022-01-10 05:00 4.26 µg/m3 0.54 µg/m3 77.77 µg/m3 7.54 µg/m3 5.49 µg/m3 0.15 mg/m3 10.14 °C 82.11 % 1,000.62 mbar 2.58 m/s 280.43 Deg 0.09 µg/m3 0.52 µg/m3
2022-01-10 04:00 1.98 µg/m3 0.53 µg/m3 79.64 µg/m3 6.27 µg/m3 4.36 µg/m3 0.14 mg/m3 10.52 °C 76.3 % 1,001.35 mbar 2.56 m/s 252.68 Deg -0.11 µg/m3 0.44 µg/m3
2022-01-10 03:00 2.61 µg/m3 0.55 µg/m3 77 µg/m3 10.98 µg/m3 7.43 µg/m3 0.12 mg/m3 11.19 °C 75.63 % 1,002.31 mbar 2.22 m/s 248.37 Deg 0.03 µg/m3 0.47 µg/m3
2022-01-10 02:00 2.24 µg/m3 0.57 µg/m3 79.33 µg/m3 8.4 µg/m3 4.73 µg/m3 0.15 mg/m3 11.06 °C 71.95 % 1,003.35 mbar 3.21 m/s 256.82 Deg 0.1 µg/m3 0.52 µg/m3
2022-01-10 01:00 6.71 µg/m3 0.64 µg/m3 76.2 µg/m3 11.08 µg/m3 5.78 µg/m3 0.15 mg/m3 12.25 °C 69.26 % 1,003.76 mbar 4.11 m/s 254.7 Deg 1.68 µg/m3 0.49 µg/m3
2022-01-10 00:00 2.95 µg/m3 0.55 µg/m3 79.71 µg/m3 8.47 µg/m3 5.12 µg/m3 0.16 mg/m3 12.67 °C 71.43 % 1,004.58 mbar 3.59 m/s 246.87 Deg 0.21 µg/m3 0.58 µg/m3
2022-01-09 23:00 8.41 µg/m3 0.55 µg/m3 73.34 µg/m3 8.34 µg/m3 5.78 µg/m3 0.19 mg/m3 11.79 °C 76.41 % 1,005.43 mbar 2.44 m/s 240.95 Deg 0.85 µg/m3 0.98 µg/m3
2022-01-09 22:00 9.17 µg/m3 0.58 µg/m3 73.67 µg/m3 9.6 µg/m3 6.93 µg/m3 0.19 mg/m3 11.48 °C 77.48 % 1,006.25 mbar 2.58 m/s 250.08 Deg 1.11 µg/m3 0.86 µg/m3
2022-01-09 21:00 9.8 µg/m3 0.53 µg/m3 72.78 µg/m3 13.36 µg/m3 9.29 µg/m3 0.2 mg/m3 12.72 °C 72.8 % 1,006.49 mbar 3.3 m/s 253.05 Deg 1.15 µg/m3 1.05 µg/m3
2022-01-09 20:00 13.54 µg/m3 0.58 µg/m3 67.84 µg/m3 14.93 µg/m3 9.32 µg/m3 0.24 mg/m3 13.07 °C 70.39 % 1,006.60 mbar 3.91 m/s 253.65 Deg 2.63 µg/m3 0.76 µg/m3
2022-01-09 19:00 10.17 µg/m3 0.61 µg/m3 70.34 µg/m3 18.86 µg/m3 11.1 µg/m3 0.23 mg/m3 14.26 °C 68.87 % 1,006.87 mbar 4.61 m/s 255.82 Deg 1.87 µg/m3 0.92 µg/m3
2022-01-09 18:00 12.66 µg/m3 0.61 µg/m3 68.04 µg/m3 19.59 µg/m3 10.98 µg/m3 0.23 mg/m3 14.21 °C 67.98 % 1,007.07 mbar 4.1 m/s 256.82 Deg 1.83 µg/m3 1.03 µg/m3
2022-01-09 17:00 9.92 µg/m3 0.6 µg/m3 72.55 µg/m3 16.93 µg/m3 9.46 µg/m3 0.22 mg/m3 14.22 °C 67.72 % 1,007.32 mbar 4.62 m/s 256.87 Deg 1.47 µg/m3 1.18 µg/m3
2022-01-09 16:00 11.34 µg/m3 0.63 µg/m3 70.64 µg/m3 15.85 µg/m3 9.67 µg/m3 0.21 mg/m3 14.23 °C 70.14 % 1,007.66 mbar 3.87 m/s 255.7 Deg 1.82 µg/m3 0.89 µg/m3
2022-01-09 15:00 11.23 µg/m3 0.66 µg/m3 68.58 µg/m3 16.27 µg/m3 9.32 µg/m3 0.21 mg/m3 14.46 °C 66.03 % 1,007.91 mbar 3.65 m/s 264.07 Deg 1.96 µg/m3 0.84 µg/m3
2022-01-09 14:00 11.19 µg/m3 0.64 µg/m3 70.32 µg/m3 13.81 µg/m3 8.38 µg/m3 0.21 mg/m3 14.52 °C 64.76 % 1,008.54 mbar 3.92 m/s 263.63 Deg 2.57 µg/m3 0.84 µg/m3
2022-01-09 13:00 10.71 µg/m3 0.69 µg/m3 68.26 µg/m3 19.2 µg/m3 9.44 µg/m3 0.22 mg/m3 15.27 °C 59.45 % 1,009.12 mbar 4.14 m/s 267.17 Deg 2.7 µg/m3 0.87 µg/m3
2022-01-09 12:00 13.92 µg/m3 0.68 µg/m3 61.41 µg/m3 16.42 µg/m3 7 µg/m3 0.25 mg/m3 15.03 °C 61.17 % 1,009.90 mbar 2.9 m/s 280.48 Deg 4.39 µg/m3 0.92 µg/m3
2022-01-09 11:00 11.47 µg/m3 0.68 µg/m3 62.48 µg/m3 14.73 µg/m3 6.3 µg/m3 0.24 mg/m3 14.53 °C 61.66 % 1,010.69 mbar 3.06 m/s 273.77 Deg 3.82 µg/m3 1.12 µg/m3
2022-01-09 10:00 13.71 µg/m3 0.65 µg/m3 61.71 µg/m3 16.81 µg/m3 6.59 µg/m3 0.24 mg/m3 13.91 °C 61.11 % 1,010.72 mbar 2.78 m/s 271.78 Deg 3.53 µg/m3 1.18 µg/m3
2022-01-09 09:00 13.43 µg/m3 0.61 µg/m3 60.69 µg/m3 15.52 µg/m3 6.12 µg/m3 0.23 mg/m3 13.08 °C 62.74 % 1,010.53 mbar 2.34 m/s 266.52 Deg 2.01 µg/m3 1.02 µg/m3
2022-01-09 08:00 10.87 µg/m3 0.61 µg/m3 63.09 µg/m3 12.81 µg/m3 5.65 µg/m3 0.19 mg/m3 12.65 °C 62.85 % 1,010.48 mbar 2.61 m/s 267.5 Deg 0.98 µg/m3 0.86 µg/m3
2022-01-09 07:00 8.61 µg/m3 0.61 µg/m3 67.13 µg/m3 12.95 µg/m3 5.49 µg/m3 0.18 mg/m3 12.63 °C 62.28 % 1,010.19 mbar 2.78 m/s 276.5 Deg 0.92 µg/m3 0.63 µg/m3
2022-01-09 06:00 5.23 µg/m3 0.57 µg/m3 72.86 µg/m3 10.55 µg/m3 4.64 µg/m3 0.15 mg/m3 12.56 °C 56.24 % 1,010.01 mbar 3.1 m/s 283.53 Deg 0.72 µg/m3 0.6 µg/m3
2022-01-09 05:00 3.3 µg/m3 0.56 µg/m3 77.03 µg/m3 13.8 µg/m3 4.87 µg/m3 0.14 mg/m3 12.66 °C 51.2 % 1,009.79 mbar 3.32 m/s 277.3 Deg 0.15 µg/m3 0.68 µg/m3
2022-01-09 04:00 2.49 µg/m3 0.61 µg/m3 77.87 µg/m3 10.77 µg/m3 4.44 µg/m3 0.15 mg/m3 12.6 °C 53.68 % 1,009.81 mbar 3.2 m/s 275.45 Deg 0.05 µg/m3 0.6 µg/m3
2022-01-09 03:00 3.98 µg/m3 0.61 µg/m3 73.84 µg/m3 10.22 µg/m3 4.73 µg/m3 0.14 mg/m3 12.38 °C 60.7 % 1,009.79 mbar 2.49 m/s 271.92 Deg 0.1 µg/m3 0.89 µg/m3
2022-01-09 02:00 9.35 µg/m3 0.55 µg/m3 68.93 µg/m3 10.55 µg/m3 4.83 µg/m3 0.21 mg/m3 12.39 °C 60.25 % 1,009.85 mbar 2.43 m/s 269.5 Deg 1.04 µg/m3 0.84 µg/m3
2022-01-09 01:00 7.92 µg/m3 0.54 µg/m3 71.07 µg/m3 10.07 µg/m3 5.19 µg/m3 0.19 mg/m3 12.57 °C 52.67 % 1,009.92 mbar 2.76 m/s 284.43 Deg 0.4 µg/m3 0.87 µg/m3
2022-01-09 00:00 8.67 µg/m3 0.51 µg/m3 69.72 µg/m3 10.79 µg/m3 5.52 µg/m3 0.21 mg/m3 12.68 °C 54.08 % 1,010.11 mbar 2.77 m/s 290.78 Deg 0.67 µg/m3 0.89 µg/m3
2022-01-08 23:00 9.73 µg/m3 0.55 µg/m3 67.9 µg/m3 13.2 µg/m3 7.08 µg/m3 0.22 mg/m3 12.95 °C 54.13 % 1,010.09 mbar 2.56 m/s 289.5 Deg 0.88 µg/m3 1.05 µg/m3
2022-01-08 22:00 8.59 µg/m3 0.6 µg/m3 68.49 µg/m3 13.03 µg/m3 7.08 µg/m3 0.21 mg/m3 12.95 °C 57.5 % 1,009.96 mbar 3.34 m/s 300.23 Deg 1.07 µg/m3 1.26 µg/m3
2022-01-08 21:00 12.9 µg/m3 0.59 µg/m3 62.66 µg/m3 15.14 µg/m3 9.83 µg/m3 0.25 mg/m3 13.02 °C 60.16 % 1,009.85 mbar 2.83 m/s 292.58 Deg 2.08 µg/m3 1.71 µg/m3
2022-01-08 20:00 15.81 µg/m3 0.57 µg/m3 58.03 µg/m3 15.9 µg/m3 9.03 µg/m3 0.26 mg/m3 13.13 °C 59.69 % 1,009.48 mbar 2.49 m/s 289.33 Deg 2.88 µg/m3 1.15 µg/m3
2022-01-08 19:00 15.33 µg/m3 0.58 µg/m3 59.98 µg/m3 13.99 µg/m3 7.78 µg/m3 0.25 mg/m3 13.16 °C 59.75 % 1,009.24 mbar 2.94 m/s 300.73 Deg 2.5 µg/m3 1.54 µg/m3
2022-01-08 18:00 15.53 µg/m3 0.59 µg/m3 60.14 µg/m3 12.49 µg/m3 6.11 µg/m3 0.25 mg/m3 13.28 °C 60.04 % 1,008.99 mbar 2.92 m/s 298.2 Deg 3.67 µg/m3 1.6 µg/m3
2022-01-08 17:00 14.41 µg/m3 0.58 µg/m3 60.12 µg/m3 15.8 µg/m3 6.23 µg/m3 0.25 mg/m3 13.71 °C 61.92 % 1,008.44 mbar 2.81 m/s 296.78 Deg 3.73 µg/m3 1.44 µg/m3
2022-01-08 16:00 14.54 µg/m3 0.55 µg/m3 61.16 µg/m3 22.42 µg/m3 9.29 µg/m3 0.24 mg/m3 14.23 °C 60.47 % 1,008.33 mbar 3.12 m/s 283.57 Deg 3.48 µg/m3 1.5 µg/m3
2022-01-08 15:00 14.02 µg/m3 0.54 µg/m3 61.23 µg/m3 23.45 µg/m3 7.82 µg/m3 0.24 mg/m3 14.02 °C 62.57 % 1,008.43 mbar 2.99 m/s 281.37 Deg 5.17 µg/m3 1.13 µg/m3
2022-01-08 14:00 15.01 µg/m3 0.56 µg/m3 60.6 µg/m3 15.81 µg/m3 6.56 µg/m3 0.24 mg/m3 14.32 °C 63.5 % 1,008.42 mbar 3.18 m/s 286.17 Deg 6.19 µg/m3 1.15 µg/m3
2022-01-08 13:00 16 µg/m3 0.59 µg/m3 61.32 µg/m3 15.72 µg/m3 6.14 µg/m3 0.25 mg/m3 14.16 °C 63.34 % 1,008.74 mbar 4.03 m/s 276.87 Deg 5.48 µg/m3 1.73 µg/m3
2022-01-08 12:00 18.18 µg/m3 0.6 µg/m3 57.3 µg/m3 21.86 µg/m3 7.47 µg/m3 0.26 mg/m3 14.61 °C 63.15 % 1,009.26 mbar 3.09 m/s 280.68 Deg 6.76 µg/m3 1.4 µg/m3
2022-01-08 11:00 17.93 µg/m3 0.65 µg/m3 58.58 µg/m3 16.38 µg/m3 6.15 µg/m3 0.25 mg/m3 14.31 °C 65.29 % 1,009.90 mbar 3.36 m/s 283.12 Deg 6.78 µg/m3 1.15 µg/m3
2022-01-08 10:00 20.59 µg/m3 0.64 µg/m3 55.45 µg/m3 22.05 µg/m3 7.55 µg/m3 0.26 mg/m3 13.6 °C 69.73 % 1,009.99 mbar 3.07 m/s 273.77 Deg 6.64 µg/m3 1.45 µg/m3
2022-01-08 09:00 21.27 µg/m3 0.61 µg/m3 54.02 µg/m3 11.15 µg/m3 7.49 µg/m3 0.24 mg/m3 12.78 °C 78.58 % 1,009.72 mbar 2.61 m/s 274.75 Deg 4.51 µg/m3 1.23 µg/m3
2022-01-08 08:00 16.83 µg/m3 0.55 µg/m3 58.5 µg/m3 12.43 µg/m3 6.73 µg/m3 0.21 mg/m3 13.58 °C 73.96 % 1,009.53 mbar 2.94 m/s 275.95 Deg 2.73 µg/m3 1 µg/m3
2022-01-08 07:00 13.77 µg/m3 0.49 µg/m3 60.52 µg/m3 12.41 µg/m3 6.44 µg/m3 0.21 mg/m3 13.87 °C 72.94 % 1,009.42 mbar 2.56 m/s 277.73 Deg 2.3 µg/m3 0.84 µg/m3
2022-01-08 06:00 8.81 µg/m3 0.46 µg/m3 64.72 µg/m3 11.3 µg/m3 6.13 µg/m3 0.18 mg/m3 13.77 °C 73.02 % 1,009.13 mbar 2.86 m/s 277.92 Deg 1.25 µg/m3 0.68 µg/m3
2022-01-08 05:00 4.67 µg/m3 0.41 µg/m3 66.68 µg/m3 11.21 µg/m3 6.46 µg/m3 0.16 mg/m3 13.59 °C 73.79 % 1,008.83 mbar 2.6 m/s 272.6 Deg 0.16 µg/m3 0.63 µg/m3
2022-01-08 04:00 3.61 µg/m3 0.52 µg/m3 67.52 µg/m3 10.68 µg/m3 6.58 µg/m3 0.17 mg/m3 13.72 °C 72.55 % 1,009.01 mbar 2.54 m/s 279.63 Deg -0.05 µg/m3 0.89 µg/m3
2022-01-08 03:00 4.53 µg/m3 0.46 µg/m3 65.94 µg/m3 10.64 µg/m3 6.09 µg/m3 0.14 mg/m3 13.94 °C 72.59 % 1,009.30 mbar 2.8 m/s 286.58 Deg -0.11 µg/m3 0.73 µg/m3
2022-01-08 02:00 6.66 µg/m3 0.49 µg/m3 64.89 µg/m3 8.75 µg/m3 5.01 µg/m3 0.17 mg/m3 13.86 °C 71.35 % 1,009.32 mbar 2.4 m/s 287.2 Deg 0.58 µg/m3 0.76 µg/m3
2022-01-08 01:00 6.9 µg/m3 0.38 µg/m3 66.04 µg/m3 8.84 µg/m3 5.59 µg/m3 0.2 mg/m3 13.68 °C 71.74 % 1,009.38 mbar 2.59 m/s 287.65 Deg 0.6 µg/m3 0.94 µg/m3
2022-01-08 00:00 10.34 µg/m3 0.46 µg/m3 61.34 µg/m3 8.64 µg/m3 5.51 µg/m3 0.21 mg/m3 13.63 °C 72.96 % 1,009.58 mbar 2.52 m/s 285.07 Deg 1.07 µg/m3 0.76 µg/m3
2022-01-07 23:00 12.69 µg/m3 0.43 µg/m3 55.15 µg/m3 10.55 µg/m3 8.41 µg/m3 0.23 mg/m3 13.66 °C 74.54 % 1,009.69 mbar 2.05 m/s 279.65 Deg 1.43 µg/m3 1.54 µg/m3
2022-01-07 22:00 17.81 µg/m3 0.41 µg/m3 50.32 µg/m3 12.17 µg/m3 9.52 µg/m3 0.26 mg/m3 13.73 °C 73.23 % 1,009.61 mbar 1.57 m/s 282.37 Deg 2.79 µg/m3 1.28 µg/m3
2022-01-07 21:00 21.48 µg/m3 0.55 µg/m3 50.72 µg/m3 14.28 µg/m3 11.39 µg/m3 0.26 mg/m3 13.59 °C 74.26 % 1,009.59 mbar 1.82 m/s 287.42 Deg 3.43 µg/m3 1.15 µg/m3
2022-01-07 20:00 17.35 µg/m3 0.52 µg/m3 59.47 µg/m3 8.31 µg/m3 6.05 µg/m3 0.23 mg/m3 13.51 °C 73.2 % 1,009.57 mbar 2.22 m/s 304.35 Deg 2.67 µg/m3 1.1 µg/m3
2022-01-07 19:00 18.98 µg/m3 0.51 µg/m3 58.87 µg/m3 9.92 µg/m3 7.44 µg/m3 0.22 mg/m3 13.04 °C 78.24 % 1,009.35 mbar 2.52 m/s 304.33 Deg 3.46 µg/m3 1.63 µg/m3
2022-01-07 18:00 21.39 µg/m3 0.58 µg/m3 53.27 µg/m3 10.74 µg/m3 7.91 µg/m3 0.27 mg/m3 12.88 °C 81.91 % 1,008.82 mbar 2.36 m/s 305.3 Deg 5.64 µg/m3 1.44 µg/m3
2022-01-07 17:00 25.94 µg/m3 0.56 µg/m3 50.58 µg/m3 10.84 µg/m3 7.98 µg/m3 0.28 mg/m3 13.52 °C 77.91 % 1,008.65 mbar 2.7 m/s 287.15 Deg 6 µg/m3 1.54 µg/m3
2022-01-07 16:00 23.72 µg/m3 0.59 µg/m3 53.06 µg/m3 9.7 µg/m3 6.92 µg/m3 0.25 mg/m3 13.18 °C 81.16 % 1,008.40 mbar 2.64 m/s 276.85 Deg 5.47 µg/m3 1.6 µg/m3
2022-01-07 15:00 28.91 µg/m3 0.58 µg/m3 47.35 µg/m3 11.71 µg/m3 8.34 µg/m3 0.25 mg/m3 13.1 °C 83.23 % 1,008.38 mbar 2.48 m/s 276.97 Deg 7.2 µg/m3 1.57 µg/m3
2022-01-07 14:00 30.65 µg/m3 0.58 µg/m3 45.45 µg/m3 14.14 µg/m3 9.88 µg/m3 0.26 mg/m3 13.3 °C 82.98 % 1,008.31 mbar 2.08 m/s 278.52 Deg 7.46 µg/m3 1.57 µg/m3
2022-01-07 13:00 30.61 µg/m3 0.6 µg/m3 44.32 µg/m3 13.55 µg/m3 9.44 µg/m3 0.26 mg/m3 12.98 °C 84.87 % 1,008.78 mbar 2.25 m/s 284.02 Deg 8.86 µg/m3 1.45 µg/m3
2022-01-07 12:00 49.22 µg/m3 0.78 µg/m3 28.46 µg/m3 16.75 µg/m3 11.35 µg/m3 0.33 mg/m3 12.6 °C 88.12 % 1,009.24 mbar 1.6 m/s 270.25 Deg 17.62 µg/m3 3.18 µg/m3
2022-01-07 11:00 51.29 µg/m3 0.72 µg/m3 25.07 µg/m3 21.43 µg/m3 14.32 µg/m3 0.31 mg/m3 12.31 °C 88.16 % 1,009.76 mbar 1.66 m/s 258.38 Deg 18.75 µg/m3 2.08 µg/m3
2022-01-07 10:00 35.37 µg/m3 0.61 µg/m3 41.98 µg/m3 15.11 µg/m3 10.2 µg/m3 0.31 mg/m3 12.87 °C 85.58 % 1,009.59 mbar 1.62 m/s 302.33 Deg 11.76 µg/m3 1.44 µg/m3
2022-01-07 09:00 33.87 µg/m3 0.69 µg/m3 35.59 µg/m3 17.2 µg/m3 11.57 µg/m3 0.27 mg/m3 13.3 °C 85.57 % 1,009.23 mbar 1.98 m/s 278.5 Deg 10.57 µg/m3 1.36 µg/m3
2022-01-07 08:00 35.52 µg/m3 0.69 µg/m3 36.64 µg/m3 14.06 µg/m3 9.99 µg/m3 0.31 mg/m3 13.57 °C 81.42 % 1,009.18 mbar 1.99 m/s 278.72 Deg 11.31 µg/m3 2.52 µg/m3
2022-01-07 07:00 30.24 µg/m3 0.59 µg/m3 42.34 µg/m3 10.99 µg/m3 8.28 µg/m3 0.28 mg/m3 13.59 °C 78.16 % 1,008.84 mbar 1.62 m/s 280.3 Deg 7.22 µg/m3 1.31 µg/m3
2022-01-07 06:00 16.17 µg/m3 0.51 µg/m3 54.99 µg/m3 9.58 µg/m3 7.51 µg/m3 0.2 mg/m3 13.39 °C 79.77 % 1,008.68 mbar 1.53 m/s 282.85 Deg 1.91 µg/m3 1.05 µg/m3
2022-01-07 05:00 6.92 µg/m3 0.51 µg/m3 65.11 µg/m3 9.53 µg/m3 7.57 µg/m3 0.17 mg/m3 13.63 °C 80.09 % 1,008.65 mbar 1.81 m/s 306.53 Deg 0.42 µg/m3 1.03 µg/m3
2022-01-07 04:00 5.96 µg/m3 0.44 µg/m3 64.09 µg/m3 13.93 µg/m3 11.46 µg/m3 0.21 mg/m3 13.95 °C 80.02 % 1,008.86 mbar 1.6 m/s 319.97 Deg -0.03 µg/m3 3.7 µg/m3
2022-01-07 03:00 4.37 µg/m3 0.45 µg/m3 66.26 µg/m3 10.39 µg/m3 7.77 µg/m3 0.14 mg/m3 14.02 °C 76.93 % 1,009.14 mbar 1.8 m/s 287.6 Deg -0.03 µg/m3 0.68 µg/m3
2022-01-07 02:00 7.62 µg/m3 0.45 µg/m3 65.97 µg/m3 10.98 µg/m3 7.08 µg/m3 0.18 mg/m3 13.83 °C 73.87 % 1,009.25 mbar 1.66 m/s 282.77 Deg 0.37 µg/m3 0.68 µg/m3
2022-01-07 01:00 8.13 µg/m3 0.45 µg/m3 62.61 µg/m3 13.42 µg/m3 9.36 µg/m3 0.19 mg/m3 13.8 °C 76.39 % 1,009.50 mbar 2.24 m/s 286.23 Deg 0.39 µg/m3 0.92 µg/m3
2022-01-07 00:00 8.42 µg/m3 0.46 µg/m3 66.18 µg/m3 14.98 µg/m3 9.25 µg/m3 0.2 mg/m3 14.28 °C 74.21 % 1,009.78 mbar 2.21 m/s 287.05 Deg 0.65 µg/m3 0.89 µg/m3
2022-01-06 23:00 8.69 µg/m3 0.4 µg/m3 67.97 µg/m3 14.21 µg/m3 8.79 µg/m3 0.2 mg/m3 14.33 °C 74.94 % 1,009.72 mbar 2.23 m/s 306.48 Deg 0.48 µg/m3 0.73 µg/m3
2022-01-06 22:00 7.74 µg/m3 0.45 µg/m3 69.27 µg/m3 12.38 µg/m3 8.81 µg/m3 0.19 mg/m3 14.27 °C 78.23 % 1,009.45 mbar 2.51 m/s 307.32 Deg 0.56 µg/m3 0.73 µg/m3
2022-01-06 21:00 11.94 µg/m3 0.41 µg/m3 65.06 µg/m3 10.75 µg/m3 7.7 µg/m3 0.2 mg/m3 14.49 °C 78.72 % 1,009.09 mbar 2.2 m/s 308.7 Deg 1.42 µg/m3 0.98 µg/m3
2022-01-06 20:00 22.64 µg/m3 0.49 µg/m3 55.3 µg/m3 14.37 µg/m3 10.01 µg/m3 0.3 mg/m3 14.92 °C 77.11 % 1,009.03 mbar 1.39 m/s 173.28 Deg 9.56 µg/m3 1.52 µg/m3
2022-01-06 19:00 28.92 µg/m3 0.59 µg/m3 55.84 µg/m3 13.74 µg/m3 9.63 µg/m3 0.36 mg/m3 14.73 °C 78.67 % 1,008.83 mbar 1.79 m/s 20.72 Deg 16.09 µg/m3 2.41 µg/m3
2022-01-06 18:00 36.85 µg/m3 0.77 µg/m3 47.03 µg/m3 17.62 µg/m3 12.25 µg/m3 0.45 mg/m3 15.1 °C 79.16 % 1,008.44 mbar 1.44 m/s 22.37 Deg 26.48 µg/m3 1.92 µg/m3
2022-01-06 17:00 36.23 µg/m3 0.82 µg/m3 54.13 µg/m3 15.5 µg/m3 10.73 µg/m3 0.43 mg/m3 15.32 °C 78.25 % 1,008.03 mbar 2.35 m/s 52.82 Deg 28.71 µg/m3 1.12 µg/m3
2022-01-06 16:00 19.55 µg/m3 0.77 µg/m3 68.05 µg/m3 19.38 µg/m3 9.59 µg/m3 0.32 mg/m3 15.62 °C 73.88 % 1,007.97 mbar 3.07 m/s 49.55 Deg 23.07 µg/m3 2.18 µg/m3
2022-01-06 15:00 28.77 µg/m3 0.83 µg/m3 65.47 µg/m3 19.28 µg/m3 10.29 µg/m3 0.35 mg/m3 15.54 °C 74.23 % 1,008.15 mbar 2.75 m/s 51.87 Deg 25.55 µg/m3 1.31 µg/m3
2022-01-06 14:00 27.18 µg/m3 0.76 µg/m3 65.27 µg/m3 20.57 µg/m3 10.52 µg/m3 0.31 mg/m3 15.65 °C 73.76 % 1,008.22 mbar 3.04 m/s 51.75 Deg 21.03 µg/m3 1.36 µg/m3
2022-01-06 13:00 21.53 µg/m3 0.81 µg/m3 63.8 µg/m3 25.11 µg/m3 12 µg/m3 0.32 mg/m3 15.48 °C 75.32 % 1,008.73 mbar 2.63 m/s 51.28 Deg 27.53 µg/m3 1.21 µg/m3
2022-01-06 12:00 25.98 µg/m3 0.97 µg/m3 60.8 µg/m3 27.38 µg/m3 11.43 µg/m3 0.36 mg/m3 15.42 °C 74.09 % 1,009.54 mbar 2.14 m/s 56.42 Deg 35.16 µg/m3 2.71 µg/m3
2022-01-06 11:00 28.13 µg/m3 0.98 µg/m3 56.6 µg/m3 25.9 µg/m3 10.93 µg/m3 0.37 mg/m3 15.35 °C 73.54 % 1,010.20 mbar 1.91 m/s 53.88 Deg 31.46 µg/m3 1.57 µg/m3
2022-01-06 10:00 55.1 µg/m3 3.29 µg/m3 19.37 µg/m3 67.84 µg/m3 33.58 µg/m3 1.05 mg/m3 14.78 °C 76.43 % 1,010.60 mbar 0.71 m/s 85.68 Deg 160.11 µg/m3 14.38 µg/m3
2022-01-06 09:00 67.35 µg/m3 5.02 µg/m3 3.93 µg/m3 64.61 µg/m3 43.07 µg/m3 1.96 mg/m3 13.06 °C 81.9 % 1,010.45 mbar 0.31 m/s 240.65 Deg 279.29 µg/m3 17.88 µg/m3
2022-01-06 08:00 60.45 µg/m3 3.97 µg/m3 3.13 µg/m3 42.66 µg/m3 28.44 µg/m3 1.61 mg/m3 12.21 °C 83.73 % 1,010.41 mbar 0.44 m/s 241.88 Deg 221.7 µg/m3 11.44 µg/m3
2022-01-06 07:00 49.48 µg/m3 2.38 µg/m3 2.2 µg/m3 28.25 µg/m3 18.86 µg/m3 1.07 mg/m3 11.99 °C 84.24 % 1,010.60 mbar 0.83 m/s 236.45 Deg 121.05 µg/m3 7.22 µg/m3
2022-01-06 06:00 46.17 µg/m3 1.26 µg/m3 2 µg/m3 20.8 µg/m3 13.91 µg/m3 0.5 mg/m3 12.22 °C 83.4 % 1,010.35 mbar 0.73 m/s 243.95 Deg 47.47 µg/m3 4.23 µg/m3
2022-01-06 05:00 35.5 µg/m3 0.72 µg/m3 9.32 µg/m3 18.23 µg/m3 12.27 µg/m3 0.35 mg/m3 12.62 °C 81.78 % 1,010.16 mbar 0.59 m/s 243.13 Deg 13.66 µg/m3 2.26 µg/m3
2022-01-06 04:00 17.56 µg/m3 0.53 µg/m3 31.38 µg/m3 17.57 µg/m3 11.88 µg/m3 0.22 mg/m3 12.63 °C 82.07 % 1,010.42 mbar 0.72 m/s 236.92 Deg 0.52 µg/m3 2.03 µg/m3
2022-01-06 03:00 14.8 µg/m3 0.47 µg/m3 35.66 µg/m3 16.49 µg/m3 11.17 µg/m3 0.2 mg/m3 12.89 °C 80.9 % 1,010.74 mbar 0.77 m/s 239.55 Deg 0.09 µg/m3 1.82 µg/m3
2022-01-06 02:00 29.13 µg/m3 0.61 µg/m3 20.96 µg/m3 18.12 µg/m3 12.39 µg/m3 0.33 mg/m3 13.05 °C 82.7 % 1,011.09 mbar 0.69 m/s 244.58 Deg 5.22 µg/m3 2.36 µg/m3
2022-01-06 01:00 38.97 µg/m3 0.65 µg/m3 11.85 µg/m3 21.08 µg/m3 14.3 µg/m3 0.37 mg/m3 13.3 °C 83.91 % 1,011.22 mbar 0.8 m/s 244 Deg 7.77 µg/m3 3.62 µg/m3
2022-01-06 00:00 41.3 µg/m3 0.65 µg/m3 11.5 µg/m3 24.67 µg/m3 16.71 µg/m3 0.45 mg/m3 13.57 °C 84.51 % 1,011.49 mbar 0.69 m/s 234.27 Deg 10.05 µg/m3 3.96 µg/m3
2022-01-05 23:00 41.55 µg/m3 0.54 µg/m3 17.06 µg/m3 25.33 µg/m3 17.04 µg/m3 0.43 mg/m3 13.77 °C 85.46 % 1,011.66 mbar 0.8 m/s 230.32 Deg 5.9 µg/m3 3.34 µg/m3
2022-01-05 22:00 51.56 µg/m3 0.72 µg/m3 11.65 µg/m3 25.15 µg/m3 16.83 µg/m3 0.48 mg/m3 14.13 °C 84.9 % 1,011.58 mbar 1 m/s 230.07 Deg 13.12 µg/m3 3.8 µg/m3
2022-01-05 21:00 46.73 µg/m3 0.64 µg/m3 25.91 µg/m3 22.79 µg/m3 15.23 µg/m3 0.41 mg/m3 14.72 °C 82.67 % 1,011.45 mbar 1.09 m/s 223.6 Deg 9.48 µg/m3 2.45 µg/m3
2022-01-05 20:00 38.25 µg/m3 0.62 µg/m3 38.43 µg/m3 22.05 µg/m3 14.82 µg/m3 0.37 mg/m3 15.05 °C 81.8 % 1,011.60 mbar 1.27 m/s 223.48 Deg 4.63 µg/m3 2.5 µg/m3
2022-01-05 19:00 32.19 µg/m3 0.58 µg/m3 46.78 µg/m3 29.03 µg/m3 20.07 µg/m3 0.32 mg/m3 15.48 °C 80.32 % 1,011.39 mbar 2.02 m/s 222.68 Deg 5.33 µg/m3 2.57 µg/m3
2022-01-05 18:00 32.01 µg/m3 0.55 µg/m3 47.82 µg/m3 21.35 µg/m3 14.43 µg/m3 0.3 mg/m3 16.22 °C 77.45 % 1,011.10 mbar 1.51 m/s 209.8 Deg 4.92 µg/m3 1.96 µg/m3
2022-01-05 17:00 20.57 µg/m3 0.52 µg/m3 60.39 µg/m3 21.73 µg/m3 12.82 µg/m3 0.24 mg/m3 16.89 °C 73.4 % 1,010.87 mbar 2.7 m/s 221 Deg 2.64 µg/m3 1.68 µg/m3
2022-01-05 16:00 15.96 µg/m3 0.48 µg/m3 64.49 µg/m3 21.65 µg/m3 11.62 µg/m3 0.2 mg/m3 17.44 °C 70.2 % 1,010.63 mbar 4.48 m/s 221.97 Deg 2.57 µg/m3 1 µg/m3
2022-01-05 15:00 14.25 µg/m3 0.47 µg/m3 65.02 µg/m3 24.13 µg/m3 11.38 µg/m3 0.19 mg/m3 17.7 °C 67.62 % 1,010.66 mbar 4.44 m/s 220.03 Deg 3.41 µg/m3 0.91 µg/m3
2022-01-05 14:00 12.13 µg/m3 0.5 µg/m3 64.39 µg/m3 25.15 µg/m3 10.55 µg/m3 0.17 mg/m3 17.87 °C 65.88 % 1,011.17 mbar 4.63 m/s 218 Deg 3.23 µg/m3 0.94 µg/m3
2022-01-05 13:00 14.11 µg/m3 0.6 µg/m3 60.45 µg/m3 24.23 µg/m3 10.06 µg/m3 0.19 mg/m3 18.16 °C 64.29 % 1,011.68 mbar 4 m/s 217.08 Deg 4.37 µg/m3 1.05 µg/m3
2022-01-05 12:00 16.88 µg/m3 0.57 µg/m3 58.48 µg/m3 27.08 µg/m3 10.84 µg/m3 0.21 mg/m3 17.87 °C 66.99 % 1,012.40 mbar 3.84 m/s 215.27 Deg 5.19 µg/m3 0.98 µg/m3
2022-01-05 11:00 11.71 µg/m3 0.53 µg/m3 61.61 µg/m3 22.45 µg/m3 9.58 µg/m3 0.19 mg/m3 17.37 °C 70.78 % 1,012.99 mbar 4.22 m/s 210.52 Deg 3.24 µg/m3 0.82 µg/m3
2022-01-05 10:00 16.7 µg/m3 0.57 µg/m3 56.07 µg/m3 25.31 µg/m3 10.03 µg/m3 0.2 mg/m3 17.04 °C 72.04 % 1,013.14 mbar 3.39 m/s 212.98 Deg 4.61 µg/m3 0.97 µg/m3
2022-01-05 09:00 27.91 µg/m3 0.6 µg/m3 46.81 µg/m3 19.89 µg/m3 10.87 µg/m3 0.24 mg/m3 16.29 °C 76.29 % 1,012.91 mbar 2.59 m/s 216.4 Deg 7.89 µg/m3 1.52 µg/m3
2022-01-05 08:00 37.18 µg/m3 0.62 µg/m3 39.18 µg/m3 17.81 µg/m3 12.07 µg/m3 0.29 mg/m3 15.43 °C 79.22 % 1,012.88 mbar 1.8 m/s 209.8 Deg 7.51 µg/m3 2.26 µg/m3
2022-01-05 07:00 34.93 µg/m3 0.59 µg/m3 40.51 µg/m3 13.68 µg/m3 9.42 µg/m3 0.32 mg/m3 15.17 °C 80.7 % 1,013.04 mbar 1.15 m/s 206.3 Deg 7.89 µg/m3 1.47 µg/m3
2022-01-05 06:00 13.45 µg/m3 0.53 µg/m3 54.63 µg/m3 11.66 µg/m3 8.01 µg/m3 0.2 mg/m3 15.22 °C 81.47 % 1,013.30 mbar 0.93 m/s 199.9 Deg 1.33 µg/m3 0.81 µg/m3
2022-01-05 05:00 6.39 µg/m3 0.5 µg/m3 62.72 µg/m3 11.44 µg/m3 7.83 µg/m3 0.15 mg/m3 15.32 °C 79.69 % 1,013.55 mbar 1.42 m/s 214.38 Deg -0.15 µg/m3 0.63 µg/m3
2022-01-05 04:00 2.34 µg/m3 0.53 µg/m3 75.49 µg/m3 10.85 µg/m3 7.56 µg/m3 0.14 mg/m3 15.39 °C 77.27 % 1,014.16 mbar 2.18 m/s 218.53 Deg -0.26 µg/m3 0.68 µg/m3
2022-01-05 03:00 3.26 µg/m3 0.47 µg/m3 67.64 µg/m3 12.04 µg/m3 8.38 µg/m3 0.13 mg/m3 14.93 °C 83.68 % 1,014.67 mbar 1.66 m/s 225 Deg -0.24 µg/m3 0.86 µg/m3
2022-01-05 02:00 16.6 µg/m3 0.39 µg/m3 56.99 µg/m3 13.04 µg/m3 8.97 µg/m3 0.22 mg/m3 14.82 °C 84.63 % 1,015.04 mbar 0.85 m/s 231.02 Deg 1.76 µg/m3 0.97 µg/m3
2022-01-05 01:00 7.62 µg/m3 0.46 µg/m3 68.55 µg/m3 13.93 µg/m3 9.64 µg/m3 0.2 mg/m3 14.78 °C 84.99 % 1,015.30 mbar 1.37 m/s 229.22 Deg 0.03 µg/m3 1 µg/m3
2022-01-05 00:00 6.16 µg/m3 0.41 µg/m3 76.01 µg/m3 14.24 µg/m3 10.35 µg/m3 0.2 mg/m3 14.88 °C 85.63 % 1,015.82 mbar 2.26 m/s 222.05 Deg -0.04 µg/m3 0.87 µg/m3
2022-01-04 23:00 11.57 µg/m3 0.44 µg/m3 67.26 µg/m3 15.01 µg/m3 10.9 µg/m3 0.22 mg/m3 14.97 °C 87.21 % 1,016.34 mbar 1.67 m/s 214.02 Deg 0.28 µg/m3 1.44 µg/m3
2022-01-04 22:00 17.49 µg/m3 0.45 µg/m3 65.4 µg/m3 18.64 µg/m3 12.92 µg/m3 0.27 mg/m3 15.04 °C 87.19 % 1,016.55 mbar 0.99 m/s 205.33 Deg 0.6 µg/m3 1.49 µg/m3
2022-01-04 21:00 23.43 µg/m3 0.46 µg/m3 61.37 µg/m3 20.98 µg/m3 14.51 µg/m3 0.3 mg/m3 15.06 °C 86.6 % 1,016.88 mbar 1.38 m/s 220.68 Deg 1.1 µg/m3 1.6 µg/m3
2022-01-04 20:00 33.33 µg/m3 0.53 µg/m3 49.68 µg/m3 25.84 µg/m3 18.24 µg/m3 0.36 mg/m3 15.09 °C 85.03 % 1,017.23 mbar 1.47 m/s 220.2 Deg 3.13 µg/m3 3.1 µg/m3
2022-01-04 19:00 45.18 µg/m3 0.57 µg/m3 33.06 µg/m3 36.52 µg/m3 26.18 µg/m3 0.43 mg/m3 15.28 °C 83.25 % 1,017.53 mbar 0.94 m/s 212.03 Deg 5.49 µg/m3 3.2 µg/m3
2022-01-04 18:00 39.44 µg/m3 0.59 µg/m3 38.69 µg/m3 24.04 µg/m3 16.62 µg/m3 0.37 mg/m3 15.61 °C 81.69 % 1,017.68 mbar 1.27 m/s 216.15 Deg 3.94 µg/m3 2.44 µg/m3
2022-01-04 17:00 27.51 µg/m3 0.6 µg/m3 48.31 µg/m3 25.77 µg/m3 18 µg/m3 0.31 mg/m3 15.99 °C 80.11 % 1,017.86 mbar 2.1 m/s 219.48 Deg 3.77 µg/m3 1.47 µg/m3
2022-01-04 16:00 19.05 µg/m3 0.61 µg/m3 59.23 µg/m3 31.16 µg/m3 22.48 µg/m3 0.27 mg/m3 16.19 °C 78.39 % 1,018.01 mbar 2.97 m/s 222.75 Deg 3.72 µg/m3 1.5 µg/m3
2022-01-04 15:00 19.32 µg/m3 0.57 µg/m3 59.89 µg/m3 37.73 µg/m3 25.91 µg/m3 0.24 mg/m3 16.35 °C 76.44 % 1,018.41 mbar 2.98 m/s 220.7 Deg 4.58 µg/m3 1.47 µg/m3
2022-01-04 14:00 18.58 µg/m3 0.56 µg/m3 62.3 µg/m3 41.53 µg/m3 27.15 µg/m3 0.25 mg/m3 16.27 °C 74.59 % 1,018.96 mbar 3.14 m/s 221.38 Deg 4.96 µg/m3 1.29 µg/m3
2022-01-04 13:00 15.4 µg/m3 0.58 µg/m3 63.22 µg/m3 29.35 µg/m3 18.8 µg/m3 0.23 mg/m3 16.25 °C 72.86 % 1,019.69 mbar 3.07 m/s 224.4 Deg 3.97 µg/m3 1.13 µg/m3
2022-01-04 12:00 18.5 µg/m3 0.63 µg/m3 55.74 µg/m3 30.08 µg/m3 12.24 µg/m3 0.22 mg/m3 16.31 °C 71.84 % 1,020.32 mbar 2.42 m/s 230.4 Deg 7.42 µg/m3 1.21 µg/m3
2022-01-04 11:00 18.01 µg/m3 0.64 µg/m3 54.23 µg/m3 19.16 µg/m3 8.42 µg/m3 0.23 mg/m3 15.79 °C 73.05 % 1,020.90 mbar 2.34 m/s 232.18 Deg 6.16 µg/m3 1.44 µg/m3
2022-01-04 10:00 29.28 µg/m3 0.72 µg/m3 43.88 µg/m3 21.63 µg/m3 9.26 µg/m3 0.27 mg/m3 15.14 °C 75.02 % 1,021.05 mbar 2.35 m/s 253.28 Deg 11.53 µg/m3 1.42 µg/m3
2022-01-04 09:00 43.23 µg/m3 0.81 µg/m3 28.25 µg/m3 19.59 µg/m3 13.06 µg/m3 0.34 mg/m3 14.46 °C 77.53 % 1,020.96 mbar 1.62 m/s 242.27 Deg 16.75 µg/m3 2.08 µg/m3
2022-01-04 08:00 45 µg/m3 0.79 µg/m3 25.89 µg/m3 13.98 µg/m3 9.42 µg/m3 0.35 mg/m3 14.15 °C 78.18 % 1,020.63 mbar 1.68 m/s 252.92 Deg 15.52 µg/m3 1.84 µg/m3
2022-01-04 07:00 33.6 µg/m3 0.66 µg/m3 36.97 µg/m3 10.56 µg/m3 7.31 µg/m3 0.3 mg/m3 14.19 °C 77.47 % 1,020.54 mbar 1.95 m/s 249.42 Deg 12.76 µg/m3 0.87 µg/m3
2022-01-04 06:00 16.67 µg/m3 0.53 µg/m3 50.72 µg/m3 8.86 µg/m3 6.24 µg/m3 0.17 mg/m3 14.26 °C 76.75 % 1,020.68 mbar 2.02 m/s 251.28 Deg 3.11 µg/m3 0.31 µg/m3
2022-01-04 05:00 5.55 µg/m3 0.49 µg/m3 59.92 µg/m3 8 µg/m3 5.69 µg/m3 0.12 mg/m3 14.23 °C 76.82 % 1,020.70 mbar 1.66 m/s 256.43 Deg 0.3 µg/m3 0.21 µg/m3
2022-01-04 04:00 3.59 µg/m3 0.55 µg/m3 62.93 µg/m3 7.69 µg/m3 5.46 µg/m3 0.12 mg/m3 14.1 °C 78.86 % 1,021.13 mbar 1.63 m/s 259.48 Deg -0.02 µg/m3 0.21 µg/m3
2022-01-04 03:00 2.4 µg/m3 0.52 µg/m3 64.2 µg/m3 8.01 µg/m3 5.64 µg/m3 0.11 mg/m3 14.16 °C 79.13 % 1,021.36 mbar 1.65 m/s 247.05 Deg -0.11 µg/m3 0.28 µg/m3
2022-01-04 02:00 4.22 µg/m3 0.48 µg/m3 63.55 µg/m3 7.93 µg/m3 5.57 µg/m3 0.13 mg/m3 14.15 °C 79.54 % 1,021.45 mbar 1.57 m/s 246.93 Deg 0.12 µg/m3 0.26 µg/m3
2022-01-04 01:00 4.93 µg/m3 0.52 µg/m3 63.26 µg/m3 7.76 µg/m3 5.41 µg/m3 0.14 mg/m3 14.11 °C 79.4 % 1,021.65 mbar 1.6 m/s 256.15 Deg 0.2 µg/m3 0.28 µg/m3
2022-01-04 00:00 7.11 µg/m3 0.53 µg/m3 59.72 µg/m3 9.54 µg/m3 6.59 µg/m3 0.18 mg/m3 14.31 °C 80.11 % 1,021.82 mbar 1.55 m/s 265.33 Deg 0.5 µg/m3 0.34 µg/m3
2022-01-03 23:00 8.71 µg/m3 0.54 µg/m3 57.99 µg/m3 10.37 µg/m3 7.41 µg/m3 0.18 mg/m3 14.31 °C 79.46 % 1,021.95 mbar 1.78 m/s 253.68 Deg 0.8 µg/m3 0.42 µg/m3
2022-01-03 22:00 10.18 µg/m3 0.53 µg/m3 57.71 µg/m3 9.72 µg/m3 6.78 µg/m3 0.19 mg/m3 14.5 °C 79.3 % 1,022.10 mbar 2.57 m/s 279.07 Deg 1.28 µg/m3 0.68 µg/m3
2022-01-03 21:00 11.95 µg/m3 0.57 µg/m3 56.56 µg/m3 10.37 µg/m3 7.24 µg/m3 0.19 mg/m3 14.42 °C 79.28 % 1,022.03 mbar 2.15 m/s 252.6 Deg 1.94 µg/m3 0.68 µg/m3
2022-01-03 20:00 18.38 µg/m3 0.61 µg/m3 50.48 µg/m3 13.76 µg/m3 9.69 µg/m3 0.24 mg/m3 14.6 °C 79.1 % 1,021.84 mbar 2.13 m/s 262.03 Deg 3.65 µg/m3 1.36 µg/m3
2022-01-03 19:00 19.46 µg/m3 0.61 µg/m3 50.18 µg/m3 12.27 µg/m3 8.66 µg/m3 0.24 mg/m3 14.52 °C 77.82 % 1,021.89 mbar 2.2 m/s 264.25 Deg 3.7 µg/m3 0.84 µg/m3
2022-01-03 18:00 21.85 µg/m3 0.64 µg/m3 47.76 µg/m3 14.49 µg/m3 10.17 µg/m3 0.27 mg/m3 14.52 °C 78.14 % 1,021.86 mbar 2.15 m/s 254.57 Deg 4.5 µg/m3 1.44 µg/m3
2022-01-03 17:00 21.12 µg/m3 0.63 µg/m3 47.81 µg/m3 15.7 µg/m3 9.76 µg/m3 0.26 mg/m3 14.8 °C 76.71 % 1,021.73 mbar 2.25 m/s 253.2 Deg 5.29 µg/m3 1.31 µg/m3
2022-01-03 16:00 18.87 µg/m3 0.6 µg/m3 45.16 µg/m3 21.52 µg/m3 10.6 µg/m3 0.24 mg/m3 15.04 °C 75.45 % 1,021.90 mbar 2.67 m/s 256.12 Deg 5.55 µg/m3 1.29 µg/m3
2022-01-03 15:00 19.8 µg/m3 0.63 µg/m3 46.9 µg/m3 31.43 µg/m3 12.78 µg/m3 0.23 mg/m3 15.28 °C 74.9 % 1,022.17 mbar 2.95 m/s 259.82 Deg 6.48 µg/m3 1.19 µg/m3
2022-01-03 14:00 19.33 µg/m3 0.68 µg/m3 49.23 µg/m3 29.6 µg/m3 13.67 µg/m3 0.21 mg/m3 15.18 °C 74.57 % 1,022.49 mbar 3.06 m/s 255.35 Deg 5.65 µg/m3 1.68 µg/m3
2022-01-03 13:00 21.57 µg/m3 0.75 µg/m3 49.38 µg/m3 132.77 µg/m3 26.14 µg/m3 0.31 mg/m3 15.21 °C 73.99 % 1,023.04 mbar 3.02 m/s 265.02 Deg 7.2 µg/m3 1.02 µg/m3
2022-01-03 12:00 19.48 µg/m3 0.66 µg/m3 49.73 µg/m3 24.67 µg/m3 10.62 µg/m3 0.23 mg/m3 15.02 °C 73.81 % 1,023.76 mbar 3.29 m/s 264.18 Deg 8.23 µg/m3 1.1 µg/m3
2022-01-03 11:00 21.17 µg/m3 0.66 µg/m3 46.69 µg/m3 27.81 µg/m3 10.1 µg/m3 0.22 mg/m3 14.72 °C 75.6 % 1,024.15 mbar 2.88 m/s 253.98 Deg 7.58 µg/m3 1.39 µg/m3
2022-01-03 10:00 21.67 µg/m3 0.61 µg/m3 45.38 µg/m3 19.83 µg/m3 8.31 µg/m3 0.24 mg/m3 14.56 °C 76.21 % 1,023.91 mbar 3.27 m/s 258.52 Deg 8.64 µg/m3 0.79 µg/m3
2022-01-03 09:00 24.72 µg/m3 0.63 µg/m3 39.3 µg/m3 12.42 µg/m3 8.3 µg/m3 0.24 mg/m3 14.24 °C 76.93 % 1,023.56 mbar 2.39 m/s 259.15 Deg 8.66 µg/m3 1.24 µg/m3
2022-01-03 08:00 30.84 µg/m3 0.69 µg/m3 33.45 µg/m3 11.39 µg/m3 7.75 µg/m3 0.29 mg/m3 14.06 °C 78.66 % 1,023.41 mbar 2.09 m/s 260.35 Deg 8.91 µg/m3 1.36 µg/m3
2022-01-03 07:00 21.79 µg/m3 0.62 µg/m3 42.43 µg/m3 8.93 µg/m3 6.19 µg/m3 0.24 mg/m3 13.99 °C 79.06 % 1,023.47 mbar 2.34 m/s 258.92 Deg 5.52 µg/m3 0.65 µg/m3
2022-01-03 06:00 13.5 µg/m3 0.56 µg/m3 50.61 µg/m3 8.02 µg/m3 5.59 µg/m3 0.18 mg/m3 14.02 °C 79.96 % 1,023.42 mbar 1.81 m/s 246.98 Deg 2.42 µg/m3 0.52 µg/m3
2022-01-03 05:00 6.28 µg/m3 0.49 µg/m3 56.63 µg/m3 7.69 µg/m3 5.55 µg/m3 0.16 mg/m3 14.06 °C 80.07 % 1,023.52 mbar 1.9 m/s 248.7 Deg 0.61 µg/m3 0.44 µg/m3
2022-01-03 04:00 4.11 µg/m3 0.48 µg/m3 57.69 µg/m3 8.63 µg/m3 6.54 µg/m3 0.14 mg/m3 14.13 °C 81.16 % 1,023.91 mbar 1.55 m/s 243.65 Deg -0.05 µg/m3 0.47 µg/m3
2022-01-03 03:00 5.52 µg/m3 0.55 µg/m3 52.26 µg/m3 11.26 µg/m3 8.6 µg/m3 0.14 mg/m3 14.04 °C 83.39 % 1,024.16 mbar 1.24 m/s 235.68 Deg -0.14 µg/m3 0.87 µg/m3
2022-01-03 02:00 14.31 µg/m3 0.52 µg/m3 42.44 µg/m3 11.8 µg/m3 8.62 µg/m3 0.21 mg/m3 13.74 °C 85.1 % 1,024.37 mbar 0.7 m/s 216.58 Deg 0.14 µg/m3 1.47 µg/m3
2022-01-03 01:00 49.32 µg/m3 1.16 µg/m3 2.13 µg/m3 20.83 µg/m3 15.95 µg/m3 0.54 mg/m3 13.36 °C 86.57 % 1,024.82 mbar 0.28 m/s 258.82 Deg 33.37 µg/m3 6.04 µg/m3
2022-01-03 00:00 45.96 µg/m3 1.16 µg/m3 6.27 µg/m3 27.43 µg/m3 21.51 µg/m3 0.55 mg/m3 13.41 °C 86.79 % 1,025.22 mbar 0.16 m/s 187.15 Deg 35.36 µg/m3 4.62 µg/m3
2022-01-02 23:00 43.34 µg/m3 0.96 µg/m3 7.94 µg/m3 27.9 µg/m3 21.63 µg/m3 0.56 mg/m3 13.7 °C 86.8 % 1,025.54 mbar 0.18 m/s 218.89 Deg 26.77 µg/m3 2.99 µg/m3
2022-01-02 22:00 28.39 µg/m3 0.52 µg/m3 25.82 µg/m3 28.08 µg/m3 22.83 µg/m3 0.34 mg/m3 13.91 °C 87.02 % 1,025.52 mbar 0.59 m/s 206.18 Deg 2.18 µg/m3 1.57 µg/m3
2022-01-02 21:00 29.45 µg/m3 0.53 µg/m3 25.92 µg/m3 23.1 µg/m3 18.4 µg/m3 0.33 mg/m3 14.14 °C 87.16 % 1,025.58 mbar 0.6 m/s 210.63 Deg 1.78 µg/m3 1.5 µg/m3
2022-01-02 20:00 31.6 µg/m3 0.61 µg/m3 27.74 µg/m3 19 µg/m3 13.94 µg/m3 0.36 mg/m3 14.39 °C 86.39 % 1,025.44 mbar 0.79 m/s 214.2 Deg 2.93 µg/m3 1.94 µg/m3
2022-01-02 19:00 30.26 µg/m3 0.57 µg/m3 33.72 µg/m3 15.65 µg/m3 10.93 µg/m3 0.33 mg/m3 14.79 °C 85.05 % 1,025.43 mbar 0.79 m/s 213.13 Deg 1.66 µg/m3 1.75 µg/m3
2022-01-02 18:00 25.36 µg/m3 0.63 µg/m3 42.84 µg/m3 13.96 µg/m3 9.76 µg/m3 0.29 mg/m3 15.39 °C 82.65 % 1,025.50 mbar 1.2 m/s 226.67 Deg 2.68 µg/m3 1.36 µg/m3
2022-01-02 17:00 24.48 µg/m3 0.55 µg/m3 46.92 µg/m3 18.55 µg/m3 10.4 µg/m3 0.31 mg/m3 16.6 °C 75.06 % 1,025.23 mbar 1.41 m/s 253.77 Deg 3.99 µg/m3 1.31 µg/m3
2022-01-02 16:00 15.59 µg/m3 0.54 µg/m3 54.74 µg/m3 15.39 µg/m3 8.86 µg/m3 0.27 mg/m3 17.64 °C 69.4 % 1,025.01 mbar 1.85 m/s 241.72 Deg 3.03 µg/m3 1.08 µg/m3
2022-01-02 15:00 15.29 µg/m3 0.6 µg/m3 58.52 µg/m3 17.42 µg/m3 9.41 µg/m3 0.27 mg/m3 17.99 °C 66.27 % 1,025.03 mbar 1.53 m/s 188.42 Deg 7.26 µg/m3 1.89 µg/m3
2022-01-02 14:00 27.01 µg/m3 0.84 µg/m3 51.49 µg/m3 22.2 µg/m3 12.7 µg/m3 0.45 mg/m3 17.31 °C 73.15 % 1,025.27 mbar 2.28 m/s 62.78 Deg 54.92 µg/m3 3.28 µg/m3
2022-01-02 13:00 17.94 µg/m3 0.74 µg/m3 53.68 µg/m3 19.31 µg/m3 12.16 µg/m3 0.34 mg/m3 18.05 °C 66.92 % 1,025.78 mbar 1.6 m/s 154.2 Deg 14.11 µg/m3 1.4 µg/m3
2022-01-02 12:00 27.9 µg/m3 0.89 µg/m3 48.22 µg/m3 18.21 µg/m3 10.92 µg/m3 0.36 mg/m3 18.12 °C 63.4 % 1,026.28 mbar 0.98 m/s 186.07 Deg 26.64 µg/m3 1.76 µg/m3
2022-01-02 11:00 22.41 µg/m3 0.8 µg/m3 44.4 µg/m3 20.07 µg/m3 12.36 µg/m3 0.34 mg/m3 17.26 °C 68.4 % 1,026.61 mbar 0.81 m/s 202.68 Deg 18.36 µg/m3 2.31 µg/m3
2022-01-02 10:00 31.18 µg/m3 0.77 µg/m3 27.86 µg/m3 22.8 µg/m3 16.1 µg/m3 0.45 mg/m3 15.52 °C 77.63 % 1,026.57 mbar 0.9 m/s 220.22 Deg 16.42 µg/m3 4.25 µg/m3
2022-01-02 09:00 28.92 µg/m3 0.75 µg/m3 15.41 µg/m3 18.65 µg/m3 13.58 µg/m3 0.43 mg/m3 13.13 °C 87.35 % 1,026.11 mbar 1 m/s 225.48 Deg 15.36 µg/m3 3.02 µg/m3
2022-01-02 08:00 34.26 µg/m3 0.86 µg/m3 5.31 µg/m3 15.99 µg/m3 11.66 µg/m3 0.45 mg/m3 12.29 °C 89.81 % 1,025.70 mbar 0.76 m/s 222.33 Deg 23.41 µg/m3 3.67 µg/m3
2022-01-02 07:00 35.31 µg/m3 0.74 µg/m3 6.56 µg/m3 15.68 µg/m3 11.51 µg/m3 0.4 mg/m3 12.52 °C 89.95 % 1,025.19 mbar 0.49 m/s 216.57 Deg 18.89 µg/m3 2.68 µg/m3
2022-01-02 06:00 23.99 µg/m3 0.59 µg/m3 16.73 µg/m3 13.98 µg/m3 10.06 µg/m3 0.26 mg/m3 12.82 °C 89.86 % 1,024.71 mbar 0.54 m/s 202.81 Deg 6.09 µg/m3 1.66 µg/m3
2022-01-02 05:00 22.03 µg/m3 0.54 µg/m3 15.85 µg/m3 13.55 µg/m3 9.7 µg/m3 0.22 mg/m3 13.29 °C 89.28 % 1,024.56 mbar 0.26 m/s 224.67 Deg 3.45 µg/m3 3.13 µg/m3
2022-01-02 04:00 12.49 µg/m3 0.47 µg/m3 34.15 µg/m3 14.15 µg/m3 9.74 µg/m3 0.17 mg/m3 13.54 °C 89.02 % 1,024.54 mbar 0.44 m/s 219.89 Deg 1.18 µg/m3 0.87 µg/m3
2022-01-02 03:00 10.1 µg/m3 0.48 µg/m3 35.09 µg/m3 14.7 µg/m3 10.09 µg/m3 0.14 mg/m3 13.91 °C 88.12 % 1,024.57 mbar 0.66 m/s 231.42 Deg 0.24 µg/m3 0.79 µg/m3
2022-01-02 02:00 14.72 µg/m3 0.46 µg/m3 35.91 µg/m3 17.38 µg/m3 11.81 µg/m3 0.23 mg/m3 14.56 °C 86.31 % 1,024.59 mbar 0.64 m/s 238.12 Deg 0.3 µg/m3 0.98 µg/m3
2022-01-02 01:00 12.11 µg/m3 0.37 µg/m3 45.07 µg/m3 16.94 µg/m3 11.67 µg/m3 0.21 mg/m3 15.2 °C 83.79 % 1,024.62 mbar 0.97 m/s 266.18 Deg 0.5 µg/m3 0.49 µg/m3
2022-01-02 00:00 18.12 µg/m3 0.46 µg/m3 39.97 µg/m3 18.29 µg/m3 13.05 µg/m3 0.19 mg/m3 15.4 °C 84.18 % 1,024.78 mbar 1.61 m/s 302.68 Deg 1.02 µg/m3 0.6 µg/m3
2022-01-01 23:00 11.8 µg/m3 0.51 µg/m3 45.54 µg/m3 25.08 µg/m3 18.36 µg/m3 0.24 mg/m3 15.33 °C 85.62 % 1,024.68 mbar 1.68 m/s 291.3 Deg 1.26 µg/m3 0.77 µg/m3
2022-01-01 22:00 12.53 µg/m3 0.47 µg/m3 43.31 µg/m3 33.07 µg/m3 25.42 µg/m3 0.25 mg/m3 15.01 °C 86.4 % 1,024.66 mbar 1.5 m/s 280.68 Deg 2.87 µg/m3 0.98 µg/m3
2022-01-01 21:00 15.9 µg/m3 0.47 µg/m3 36.15 µg/m3 35.16 µg/m3 28.73 µg/m3 0.25 mg/m3 14.68 °C 86.82 % 1,024.48 mbar 1.69 m/s 264.1 Deg 3.42 µg/m3 1.4 µg/m3
2022-01-01 20:00 19.8 µg/m3 0.53 µg/m3 35.03 µg/m3 26.77 µg/m3 21.12 µg/m3 0.27 mg/m3 14.94 °C 86.26 % 1,024.07 mbar 1.83 m/s 265.52 Deg 3.46 µg/m3 1.08 µg/m3
2022-01-01 19:00 20.01 µg/m3 0.5 µg/m3 41.22 µg/m3 19.83 µg/m3 14.16 µg/m3 0.31 mg/m3 15.09 °C 85.8 % 1,023.83 mbar 1.15 m/s 272.6 Deg 3.32 µg/m3 1.89 µg/m3
2022-01-01 18:00 19.5 µg/m3 0.49 µg/m3 45.77 µg/m3 19.68 µg/m3 13.96 µg/m3 0.28 mg/m3 15.31 °C 84.71 % 1,023.37 mbar 1.07 m/s 218.68 Deg 5.41 µg/m3 1.23 µg/m3
2022-01-01 17:00 16.11 µg/m3 0.46 µg/m3 50.74 µg/m3 17.03 µg/m3 12.19 µg/m3 0.26 mg/m3 15.76 °C 82.34 % 1,023.30 mbar 2.16 m/s 250.05 Deg 2.98 µg/m3 0.84 µg/m3
2022-01-01 16:00 9.76 µg/m3 0.47 µg/m3 60.72 µg/m3 15.71 µg/m3 10.31 µg/m3 0.22 mg/m3 16.53 °C 78.71 % 1,023.27 mbar 2.72 m/s 256.93 Deg 1.63 µg/m3 0.82 µg/m3
2022-01-01 15:00 12.31 µg/m3 0.52 µg/m3 55.31 µg/m3 16.09 µg/m3 9.5 µg/m3 0.21 mg/m3 16.93 °C 77.39 % 1,023.32 mbar 2.77 m/s 254.87 Deg 3.1 µg/m3 0.56 µg/m3
2022-01-01 14:00 9.67 µg/m3 0.5 µg/m3 60.37 µg/m3 14.69 µg/m3 9.55 µg/m3 0.21 mg/m3 16.97 °C 76.63 % 1,023.45 mbar 2.95 m/s 255.68 Deg 2.3 µg/m3 1.47 µg/m3
2022-01-01 13:00 13.36 µg/m3 0.54 µg/m3 54.47 µg/m3 15.16 µg/m3 9.24 µg/m3 0.23 mg/m3 17.19 °C 77.49 % 1,024.06 mbar 2.57 m/s 255.35 Deg 3.96 µg/m3 0.86 µg/m3
2022-01-01 12:00 12.42 µg/m3 0.58 µg/m3 53.74 µg/m3 14.16 µg/m3 9.07 µg/m3 0.26 mg/m3 17.18 °C 78.04 % 1,024.61 mbar 2.91 m/s 260.2 Deg 3.65 µg/m3 0.98 µg/m3
2022-01-01 11:00 13.04 µg/m3 0.62 µg/m3 50.99 µg/m3 13.88 µg/m3 9.96 µg/m3 0.28 mg/m3 16.93 °C 80.26 % 1,025.08 mbar 2.18 m/s 257.9 Deg 3.47 µg/m3 1.31 µg/m3
2022-01-01 10:00 11.73 µg/m3 0.61 µg/m3 48.42 µg/m3 13.08 µg/m3 10.45 µg/m3 0.26 mg/m3 15.81 °C 86.5 % 1,025.04 mbar 2.07 m/s 243.4 Deg 2.45 µg/m3 1.12 µg/m3
2022-01-01 09:00 18.03 µg/m3 0.69 µg/m3 37.89 µg/m3 14.97 µg/m3 11.64 µg/m3 0.28 mg/m3 14.84 °C 89.89 % 1,024.65 mbar 1.26 m/s 230.97 Deg 3.33 µg/m3 1.42 µg/m3
2022-01-01 08:00 30.83 µg/m3 0.82 µg/m3 22.59 µg/m3 17.05 µg/m3 13.2 µg/m3 0.36 mg/m3 13.94 °C 90.66 % 1,024.47 mbar 0.6 m/s 271.48 Deg 10.33 µg/m3 2.62 µg/m3
2022-01-01 07:00 35.02 µg/m3 1.11 µg/m3 10.85 µg/m3 17.89 µg/m3 14.11 µg/m3 0.51 mg/m3 13.45 °C 90.22 % 1,024.31 mbar 0.35 m/s 225.14 Deg 27.02 µg/m3 4.07 µg/m3
2022-01-01 06:00 34.85 µg/m3 1.23 µg/m3 2.39 µg/m3 19.33 µg/m3 15.89 µg/m3 0.54 mg/m3 12.9 °C 89.32 % 1,024.24 mbar 0.13 m/s 284 Deg 34.23 µg/m3 4.27 µg/m3
2022-01-01 05:00 44.42 µg/m3 1.09 µg/m3 4.07 µg/m3 18 µg/m3 15.46 µg/m3 0.47 mg/m3 13 °C 88.57 % 1,024.34 mbar 0.32 m/s 306.89 Deg 21.9 µg/m3 2.86 µg/m3
2022-01-01 04:00 40.64 µg/m3 0.97 µg/m3 17.59 µg/m3 16.07 µg/m3 13.55 µg/m3 0.36 mg/m3 13.29 °C 86.06 % 1,024.56 mbar 0.18 m/s 217.16 Deg 12.27 µg/m3 3.36 µg/m3
2022-01-01 03:00 55.73 µg/m3 2.18 µg/m3 5.54 µg/m3 24.25 µg/m3 17.74 µg/m3 0.56 mg/m3 13.2 °C 81.37 % 1,024.99 mbar 0.42 m/s 151.17 Deg 59.82 µg/m3 8.08 µg/m3
2022-01-01 02:00 67.11 µg/m3 2.18 µg/m3 2.12 µg/m3 34.84 µg/m3 24.49 µg/m3 1.05 mg/m3 12.64 °C 73.09 % 1,025.00 mbar 0.13 m/s 95.69 Deg 98.69 µg/m3 7.9 µg/m3
2022-01-01 01:00 51.37 µg/m3 1.28 µg/m3 6.62 µg/m3 27.69 µg/m3 21.3 µg/m3 0.8 mg/m3 12.75 °C 75.25 % 1,025.10 mbar 0.22 m/s 164.16 Deg 32.65 µg/m3 6.28 µg/m3
2022-01-01 00:00 58.96 µg/m3 1.73 µg/m3 2.79 µg/m3 33.12 µg/m3 23.98 µg/m3 1.01 mg/m3 13.26 °C 79.28 % 1,025.27 mbar 0.31 m/s 253.99 Deg 67.09 µg/m3 8.79 µg/m3
2021-12-31 23:00 55.21 µg/m3 1.36 µg/m3 11.29 µg/m3 30.19 µg/m3 22.11 µg/m3 0.78 mg/m3 13.73 °C 73.61 % 1,025.50 mbar 0.3 m/s 208.24 Deg 43.42 µg/m3 5.62 µg/m3
2021-12-31 22:00 54.9 µg/m3 0.96 µg/m3 12.56 µg/m3 37.66 µg/m3 25.27 µg/m3 0.68 mg/m3 13.57 °C 68.32 % 1,025.52 mbar 0.73 m/s 214.03 Deg 18.35 µg/m3 5.09 µg/m3
2021-12-31 21:00 58.7 µg/m3 0.97 µg/m3 7.72 µg/m3 38.77 µg/m3 25.7 µg/m3 0.71 mg/m3 13.51 °C 67.34 % 1,025.40 mbar 0.94 m/s 219 Deg 17.73 µg/m3 5.77 µg/m3
2021-12-31 20:00 61.16 µg/m3 0.98 µg/m3 7.48 µg/m3 34.8 µg/m3 24.36 µg/m3 0.76 mg/m3 14.22 °C 74.26 % 1,025.16 mbar 0.88 m/s 218.82 Deg 20.04 µg/m3 5.41 µg/m3
2021-12-31 19:00 57.07 µg/m3 0.76 µg/m3 16.95 µg/m3 28.36 µg/m3 19.82 µg/m3 0.59 mg/m3 15.08 °C 75.53 % 1,025.01 mbar 0.91 m/s 219.25 Deg 8.13 µg/m3 4.02 µg/m3
2021-12-31 18:00 57.22 µg/m3 0.7 µg/m3 25.58 µg/m3 23.07 µg/m3 14.41 µg/m3 0.51 mg/m3 15.87 °C 72.5 % 1,024.49 mbar 0.61 m/s 256.38 Deg 8.71 µg/m3 2.81 µg/m3
2021-12-31 17:00 27.84 µg/m3 0.65 µg/m3 56.44 µg/m3 16.06 µg/m3 8.07 µg/m3 0.33 mg/m3 16.52 °C 68.89 % 1,023.99 mbar 1.28 m/s 309.42 Deg 5.93 µg/m3 1.52 µg/m3
2021-12-31 16:00 23.03 µg/m3 0.67 µg/m3 64.77 µg/m3 11.79 µg/m3 6.03 µg/m3 0.28 mg/m3 17.33 °C 62.47 % 1,023.61 mbar 1.4 m/s 326.95 Deg 7.72 µg/m3 1.84 µg/m3
2021-12-31 15:00 19.09 µg/m3 0.68 µg/m3 67.06 µg/m3 11.21 µg/m3 6.1 µg/m3 0.28 mg/m3 17.4 °C 61.63 % 1,023.36 mbar 1.73 m/s 316.47 Deg 9.43 µg/m3 1.57 µg/m3
2021-12-31 14:00 19.41 µg/m3 0.57 µg/m3 62.39 µg/m3 14.27 µg/m3 6.91 µg/m3 0.27 mg/m3 17.67 °C 55.95 % 1,023.36 mbar 1.78 m/s 308.27 Deg 7.03 µg/m3 1.03 µg/m3
2021-12-31 13:00 19.18 µg/m3 0.68 µg/m3 60.2 µg/m3 20.95 µg/m3 9.85 µg/m3 0.31 mg/m3 17.93 °C 61.29 % 1,023.54 mbar 1.74 m/s 307.95 Deg 9.84 µg/m3 1.45 µg/m3
2021-12-31 12:00 23.51 µg/m3 0.63 µg/m3 54.79 µg/m3 26.28 µg/m3 10.55 µg/m3 0.27 mg/m3 17.63 °C 63.45 % 1,023.87 mbar 1.74 m/s 257.22 Deg 8.05 µg/m3 1.55 µg/m3
2021-12-31 11:00 26.29 µg/m3 0.76 µg/m3 49.31 µg/m3 25.03 µg/m3 11.49 µg/m3 0.32 mg/m3 16.86 °C 70.41 % 1,023.83 mbar 1.67 m/s 241.78 Deg 9.71 µg/m3 2.17 µg/m3
2021-12-31 10:00 40.71 µg/m3 0.92 µg/m3 28.75 µg/m3 31.23 µg/m3 17.22 µg/m3 0.5 mg/m3 15.71 °C 76.42 % 1,023.47 mbar 1.11 m/s 215.08 Deg 18.9 µg/m3 5.91 µg/m3
2021-12-31 09:00 49.17 µg/m3 1.19 µg/m3 9.67 µg/m3 27.18 µg/m3 18.36 µg/m3 0.58 mg/m3 13.23 °C 80.85 % 1,022.92 mbar 1.16 m/s 223.17 Deg 36.55 µg/m3 5.43 µg/m3
2021-12-31 08:00 47.89 µg/m3 1.59 µg/m3 2.93 µg/m3 25.17 µg/m3 16.88 µg/m3 0.8 mg/m3 11.88 °C 83.27 % 1,022.25 mbar 0.79 m/s 229 Deg 62.3 µg/m3 6.04 µg/m3
2021-12-31 07:00 42.55 µg/m3 1.29 µg/m3 2.12 µg/m3 19.14 µg/m3 13.71 µg/m3 0.64 mg/m3 11.85 °C 84.62 % 1,021.50 mbar 0.88 m/s 233.1 Deg 43.61 µg/m3 4.88 µg/m3
2021-12-31 06:00 33.03 µg/m3 0.83 µg/m3 5.17 µg/m3 16.9 µg/m3 12.63 µg/m3 0.4 mg/m3 12.04 °C 86.09 % 1,020.79 mbar 0.83 m/s 236.43 Deg 16.41 µg/m3 3.04 µg/m3
2021-12-31 05:00 28.96 µg/m3 0.78 µg/m3 5.61 µg/m3 16.46 µg/m3 12.38 µg/m3 0.29 mg/m3 12.57 °C 85.49 % 1,020.47 mbar 0.66 m/s 247.57 Deg 11.6 µg/m3 3.02 µg/m3
2021-12-31 04:00 20.97 µg/m3 0.61 µg/m3 20.74 µg/m3 16.47 µg/m3 12.25 µg/m3 0.28 mg/m3 13.09 °C 84.57 % 1,020.44 mbar 0.62 m/s 234.59 Deg 2.34 µg/m3 2.07 µg/m3
2021-12-31 03:00 32.19 µg/m3 0.62 µg/m3 16.74 µg/m3 17.22 µg/m3 12.87 µg/m3 0.33 mg/m3 14.25 °C 80.17 % 1,020.36 mbar 0.69 m/s 247.38 Deg 2.58 µg/m3 2.5 µg/m3
2021-12-31 02:00 11.76 µg/m3 0.6 µg/m3 51.36 µg/m3 14.6 µg/m3 10.22 µg/m3 0.28 mg/m3 15.39 °C 75.1 % 1,020.15 mbar 1.07 m/s 28.92 Deg 4.86 µg/m3 1.84 µg/m3
2021-12-31 01:00 31.18 µg/m3 0.69 µg/m3 42.12 µg/m3 15.11 µg/m3 10.63 µg/m3 0.41 mg/m3 15.4 °C 75.61 % 1,019.82 mbar 0.86 m/s 32.45 Deg 9.96 µg/m3 1.55 µg/m3
2021-12-31 00:00 29.45 µg/m3 1.19 µg/m3 39.48 µg/m3 16.83 µg/m3 12.27 µg/m3 0.55 mg/m3 15.04 °C 79.02 % 1,019.62 mbar 1.33 m/s 30.63 Deg 32.63 µg/m3 7.72 µg/m3
2021-12-30 23:00 45.91 µg/m3 2.69 µg/m3 2.12 µg/m3 38.47 µg/m3 26.87 µg/m3 1.42 mg/m3 14.59 °C 87.94 % 1,019.12 mbar 0.35 m/s 240.4 Deg 136.39 µg/m3 11.34 µg/m3
2021-12-30 22:00 53.86 µg/m3 2.54 µg/m3 2.25 µg/m3 37.06 µg/m3 25.46 µg/m3 1.36 mg/m3 15.04 °C 87.8 % 1,018.66 mbar 0.29 m/s 239.84 Deg 132.42 µg/m3 10.34 µg/m3
2021-12-30 21:00 62.79 µg/m3 1.97 µg/m3 2.18 µg/m3 31.63 µg/m3 21.45 µg/m3 1.12 mg/m3 15.4 °C 86.72 % 1,017.97 mbar 0.13 m/s 203.33 Deg 90.21 µg/m3 8.53 µg/m3
2021-12-30 20:00 65.72 µg/m3 1.56 µg/m3 2.85 µg/m3 30.53 µg/m3 20.78 µg/m3 0.94 mg/m3 15.74 °C 85.44 % 1,017.52 mbar 0.53 m/s 198.74 Deg 61.1 µg/m3 6.27 µg/m3
2021-12-30 19:00 59.54 µg/m3 1.01 µg/m3 11.04 µg/m3 24.67 µg/m3 16.69 µg/m3 0.6 mg/m3 15.99 °C 84.75 % 1,017.01 mbar 0.5 m/s 292.27 Deg 23.64 µg/m3 3.07 µg/m3
2021-12-30 18:00 44.51 µg/m3 0.73 µg/m3 26.43 µg/m3 19.18 µg/m3 12.98 µg/m3 0.46 mg/m3 16.28 °C 82.45 % 1,016.28 mbar 0.81 m/s 291.35 Deg 10.83 µg/m3 2.62 µg/m3
2021-12-30 17:00 24.96 µg/m3 0.48 µg/m3 48.19 µg/m3 16.38 µg/m3 11.09 µg/m3 0.3 mg/m3 16.73 °C 79.17 % 1,015.94 mbar 1.34 m/s 309.7 Deg 5.02 µg/m3 1.28 µg/m3
2021-12-30 16:00 24.75 µg/m3 0.58 µg/m3 47.77 µg/m3 20.03 µg/m3 11.5 µg/m3 0.35 mg/m3 17.13 °C 78.39 % 1,015.40 mbar 1.39 m/s 256.43 Deg 15.45 µg/m3 1.05 µg/m3
2021-12-30 15:00 12.26 µg/m3 0.44 µg/m3 56.73 µg/m3 17.38 µg/m3 11.81 µg/m3 0.23 mg/m3 17 °C 80.02 % 1,015.10 mbar 2.27 m/s 308.77 Deg 5.25 µg/m3 0.81 µg/m3
2021-12-30 14:00 15.61 µg/m3 0.45 µg/m3 53.66 µg/m3 24.54 µg/m3 13.55 µg/m3 0.24 mg/m3 17.43 °C 78.53 % 1,014.91 mbar 2.77 m/s 298.48 Deg 6.48 µg/m3 0.84 µg/m3
2021-12-30 13:00 16.68 µg/m3 0.52 µg/m3 53.38 µg/m3 24.28 µg/m3 13.01 µg/m3 0.26 mg/m3 17.57 °C 77.73 % 1,014.94 mbar 2.55 m/s 280.03 Deg 6.85 µg/m3 0.89 µg/m3
2021-12-30 12:00 14.03 µg/m3 0.47 µg/m3 54.85 µg/m3 23.29 µg/m3 14.32 µg/m3 0.24 mg/m3 17.19 °C 80.21 % 1,014.99 mbar 2.98 m/s 303.52 Deg 5.94 µg/m3 0.89 µg/m3
2021-12-30 11:00 14.62 µg/m3 0.47 µg/m3 51.83 µg/m3 21.77 µg/m3 13.82 µg/m3 0.25 mg/m3 17.25 °C 80.48 % 1,015.39 mbar 2.86 m/s 296.77 Deg 6.04 µg/m3 0.94 µg/m3
2021-12-30 10:00 20.23 µg/m3 0.53 µg/m3 44.87 µg/m3 22.43 µg/m3 15.23 µg/m3 0.27 mg/m3 16.92 °C 82.84 % 1,015.02 mbar 2.54 m/s 284.22 Deg 8.57 µg/m3 1.07 µg/m3
2021-12-30 09:00 21.63 µg/m3 0.56 µg/m3 42.38 µg/m3 23.82 µg/m3 16.13 µg/m3 0.25 mg/m3 16.33 °C 85.52 % 1,014.22 mbar 2.14 m/s 274.08 Deg 6.52 µg/m3 1.26 µg/m3
2021-12-30 08:00 21.17 µg/m3 0.47 µg/m3 43.03 µg/m3 23.42 µg/m3 16.09 µg/m3 0.24 mg/m3 15.88 °C 86.43 % 1,013.68 mbar 2.31 m/s 274.25 Deg 4.84 µg/m3 0.81 µg/m3
2021-12-30 07:00 20.1 µg/m3 0.45 µg/m3 45 µg/m3 22.1 µg/m3 15.38 µg/m3 0.23 mg/m3 15.87 °C 85.49 % 1,013.05 mbar 2.08 m/s 271.48 Deg 4.05 µg/m3 0.77 µg/m3
2021-12-30 06:00 10.29 µg/m3 0.41 µg/m3 54.48 µg/m3 21.15 µg/m3 14.62 µg/m3 0.16 mg/m3 16 °C 84.37 % 1,012.81 mbar 2.2 m/s 267.03 Deg 0.91 µg/m3 0.49 µg/m3
2021-12-30 05:00 5.06 µg/m3 0.41 µg/m3 61.58 µg/m3 20.43 µg/m3 14.13 µg/m3 0.15 mg/m3 16.16 °C 83.77 % 1,012.85 mbar 2.2 m/s 272.13 Deg 0.25 µg/m3 0.5 µg/m3
2021-12-30 04:00 4.79 µg/m3 0.44 µg/m3 60.73 µg/m3 19.88 µg/m3 13.79 µg/m3 0.15 mg/m3 16.08 °C 83.77 % 1,012.88 mbar 2.15 m/s 272.17 Deg -0.16 µg/m3 1.08 µg/m3
2021-12-30 03:00 3.3 µg/m3 0.37 µg/m3 63.75 µg/m3 20.58 µg/m3 14.22 µg/m3 0.13 mg/m3 16.11 °C 83.68 % 1,013.07 mbar 2.45 m/s 276.38 Deg -0.18 µg/m3 0.37 µg/m3
2021-12-30 02:00 4.51 µg/m3 0.39 µg/m3 62.29 µg/m3 20.97 µg/m3 14.51 µg/m3 0.16 mg/m3 16.15 °C 83.72 % 1,013.11 mbar 2.24 m/s 273.25 Deg 0.23 µg/m3 0.39 µg/m3
2021-12-30 01:00 5.99 µg/m3 0.42 µg/m3 62.47 µg/m3 21.19 µg/m3 14.9 µg/m3 0.18 mg/m3 16.23 °C 82.84 % 1,012.85 mbar 3.03 m/s 276.7 Deg 0.47 µg/m3 0.49 µg/m3
2021-12-30 00:00 6.32 µg/m3 0.46 µg/m3 64.4 µg/m3 20.82 µg/m3 14.57 µg/m3 0.18 mg/m3 16.44 °C 81.16 % 1,012.99 mbar 3.16 m/s 275.17 Deg 0.63 µg/m3 0.52 µg/m3
2021-12-29 23:00 7.68 µg/m3 0.45 µg/m3 64.84 µg/m3 22.13 µg/m3 15.69 µg/m3 0.19 mg/m3 16.5 °C 80.57 % 1,013.02 mbar 3.06 m/s 274.02 Deg 0.8 µg/m3 0.52 µg/m3
2021-12-29 22:00 7.41 µg/m3 0.46 µg/m3 66.38 µg/m3 19.81 µg/m3 14.16 µg/m3 0.19 mg/m3 16.62 °C 79.48 % 1,013.09 mbar 3.77 m/s 264.98 Deg 0.71 µg/m3 0.58 µg/m3
2021-12-29 21:00 8.21 µg/m3 0.47 µg/m3 66.08 µg/m3 20.42 µg/m3 14.87 µg/m3 0.19 mg/m3 16.6 °C 79.82 % 1,012.82 mbar 4.43 m/s 258.33 Deg 0.99 µg/m3 0.65 µg/m3
2021-12-29 20:00 11.63 µg/m3 0.48 µg/m3 63.19 µg/m3 22.78 µg/m3 16.91 µg/m3 0.21 mg/m3 16.56 °C 79.72 % 1,012.44 mbar 4.17 m/s 261.93 Deg 1.83 µg/m3 0.7 µg/m3
2021-12-29 19:00 11.92 µg/m3 0.49 µg/m3 64.8 µg/m3 21.07 µg/m3 15.37 µg/m3 0.21 mg/m3 16.65 °C 78.1 % 1,012.30 mbar 4.84 m/s 260.3 Deg 1.78 µg/m3 0.79 µg/m3
2021-12-29 18:00 14.73 µg/m3 0.52 µg/m3 65.1 µg/m3 21.69 µg/m3 15.79 µg/m3 0.24 mg/m3 16.69 °C 78.43 % 1,012.52 mbar 4.79 m/s 264.12 Deg 2.88 µg/m3 1.1 µg/m3
2021-12-29 17:00 12.65 µg/m3 0.47 µg/m3 66.07 µg/m3 21.73 µg/m3 15.38 µg/m3 0.23 mg/m3 16.97 °C 78.15 % 1,012.04 mbar 4.49 m/s 260.18 Deg 2.2 µg/m3 0.58 µg/m3
2021-12-29 16:00 12.91 µg/m3 0.5 µg/m3 66.6 µg/m3 27.27 µg/m3 16.26 µg/m3 0.21 mg/m3 17.29 °C 75.74 % 1,011.73 mbar 5.23 m/s 262.77 Deg 2.67 µg/m3 0.63 µg/m3
2021-12-29 15:00 16.64 µg/m3 0.49 µg/m3 62.24 µg/m3 39.34 µg/m3 17.14 µg/m3 0.21 mg/m3 17.38 °C 74.62 % 1,012.07 mbar 4.59 m/s 268.83 Deg 4.13 µg/m3 0.91 µg/m3
2021-12-29 14:00 17.66 µg/m3 0.57 µg/m3 58.48 µg/m3 32.26 µg/m3 16.42 µg/m3 0.24 mg/m3 17.33 °C 75.69 % 1,012.31 mbar 4.08 m/s 264.6 Deg 4.36 µg/m3 0.84 µg/m3
2021-12-29 13:00 14.61 µg/m3 0.48 µg/m3 61.18 µg/m3 31.34 µg/m3 16.15 µg/m3 0.23 mg/m3 17.29 °C 75.78 % 1,012.93 mbar 4.92 m/s 260.57 Deg 4.24 µg/m3 0.89 µg/m3
2021-12-29 12:00 16.3 µg/m3 0.57 µg/m3 56.48 µg/m3 24.23 µg/m3 14.81 µg/m3 0.23 mg/m3 16.95 °C 76.57 % 1,013.58 mbar 4.77 m/s 261.53 Deg 5.17 µg/m3 1.15 µg/m3
2021-12-29 11:00 17.76 µg/m3 0.54 µg/m3 53.53 µg/m3 26.82 µg/m3 15.11 µg/m3 0.26 mg/m3 16.84 °C 76.86 % 1,014.05 mbar 3.94 m/s 261.3 Deg 5.34 µg/m3 1.1 µg/m3
2021-12-29 10:00 19.15 µg/m3 0.53 µg/m3 52 µg/m3 23.65 µg/m3 15.44 µg/m3 0.25 mg/m3 16.76 °C 77.94 % 1,014.24 mbar 3.62 m/s 263.33 Deg 5.46 µg/m3 1 µg/m3
2021-12-29 09:00 16.62 µg/m3 0.55 µg/m3 54.37 µg/m3 22.12 µg/m3 15.19 µg/m3 0.22 mg/m3 16.41 °C 80.8 % 1,013.62 mbar 3.85 m/s 259.28 Deg 5 µg/m3 0.79 µg/m3
2021-12-29 08:00 19.17 µg/m3 0.55 µg/m3 50.93 µg/m3 21.62 µg/m3 14.88 µg/m3 0.23 mg/m3 16.19 °C 81.47 % 1,013.37 mbar 3.38 m/s 260.53 Deg 4.96 µg/m3 0.86 µg/m3
2021-12-29 07:00 14.79 µg/m3 0.49 µg/m3 56.58 µg/m3 17.98 µg/m3 12.59 µg/m3 0.22 mg/m3 16.02 °C 80.36 % 1,013.16 mbar 3.13 m/s 258.08 Deg 2.7 µg/m3 0.68 µg/m3
2021-12-29 06:00 7.68 µg/m3 0.48 µg/m3 62.37 µg/m3 17.09 µg/m3 12.08 µg/m3 0.17 mg/m3 15.84 °C 79.86 % 1,012.99 mbar 2.81 m/s 258.27 Deg 0.7 µg/m3 0.49 µg/m3
2021-12-29 05:00 8.38 µg/m3 0.44 µg/m3 59.19 µg/m3 18.22 µg/m3 12.81 µg/m3 0.16 mg/m3 15.7 °C 80.53 % 1,013.06 mbar 1.94 m/s 259.85 Deg 0.08 µg/m3 0.44 µg/m3
2021-12-29 04:00 4.46 µg/m3 0.47 µg/m3 65.15 µg/m3 18.97 µg/m3 13.68 µg/m3 0.15 mg/m3 15.8 °C 80.3 % 1,013.15 mbar 2.43 m/s 273.82 Deg -0.16 µg/m3 0.39 µg/m3
2021-12-29 03:00 5.32 µg/m3 0.44 µg/m3 63.49 µg/m3 19.17 µg/m3 13.54 µg/m3 0.13 mg/m3 15.75 °C 79.93 % 1,013.38 mbar 2.25 m/s 270.05 Deg -0.1 µg/m3 0.42 µg/m3
2021-12-29 02:00 4.24 µg/m3 0.49 µg/m3 66.99 µg/m3 19.08 µg/m3 13.42 µg/m3 0.17 mg/m3 15.74 °C 80.35 % 1,013.26 mbar 2.49 m/s 263.2 Deg -0.05 µg/m3 0.49 µg/m3
2021-12-29 01:00 5.89 µg/m3 0.45 µg/m3 67.07 µg/m3 17.89 µg/m3 12.78 µg/m3 0.18 mg/m3 15.62 °C 79.72 % 1,013.31 mbar 2.51 m/s 260.48 Deg 0.18 µg/m3 0.55 µg/m3
2021-12-29 00:00 6.31 µg/m3 0.44 µg/m3 66.54 µg/m3 19.31 µg/m3 14.1 µg/m3 0.19 mg/m3 15.75 °C 81.49 % 1,013.42 mbar 2.96 m/s 260.02 Deg 0.39 µg/m3 0.52 µg/m3
2021-12-28 23:00 6.85 µg/m3 0.48 µg/m3 67.71 µg/m3 19.33 µg/m3 14.16 µg/m3 0.2 mg/m3 15.9 °C 81.31 % 1,013.49 mbar 3.48 m/s 258.22 Deg 0.81 µg/m3 0.52 µg/m3
2021-12-28 22:00 6.94 µg/m3 0.47 µg/m3 68.32 µg/m3 18.96 µg/m3 13.93 µg/m3 0.19 mg/m3 15.9 °C 80.64 % 1,013.47 mbar 3.2 m/s 256.53 Deg 0.59 µg/m3 0.73 µg/m3
2021-12-28 21:00 8.22 µg/m3 0.46 µg/m3 67.22 µg/m3 20.15 µg/m3 15.23 µg/m3 0.21 mg/m3 15.95 °C 80.45 % 1,013.12 mbar 3.72 m/s 258.67 Deg 1.37 µg/m3 0.73 µg/m3
2021-12-28 20:00 13.61 µg/m3 0.43 µg/m3 61.01 µg/m3 21.35 µg/m3 16.13 µg/m3 0.22 mg/m3 16.2 °C 80.23 % 1,013.12 mbar 3.87 m/s 258.8 Deg 1.98 µg/m3 0.76 µg/m3
2021-12-28 19:00 14.99 µg/m3 0.46 µg/m3 60.37 µg/m3 19.36 µg/m3 14.55 µg/m3 0.22 mg/m3 16.25 °C 78.38 % 1,012.77 mbar 4.11 m/s 258.9 Deg 2.15 µg/m3 1 µg/m3
2021-12-28 18:00 17.39 µg/m3 0.49 µg/m3 58.32 µg/m3 18.75 µg/m3 13.71 µg/m3 0.23 mg/m3 16.29 °C 78.49 % 1,012.51 mbar 3.94 m/s 259.47 Deg 2.9 µg/m3 0.89 µg/m3
2021-12-28 17:00 15.91 µg/m3 0.49 µg/m3 61.21 µg/m3 19.45 µg/m3 13.61 µg/m3 0.24 mg/m3 16.71 °C 76.52 % 1,012.14 mbar 3.85 m/s 259.58 Deg 3.06 µg/m3 0.7 µg/m3
2021-12-28 16:00 11.19 µg/m3 0.49 µg/m3 64.77 µg/m3 23.51 µg/m3 12.32 µg/m3 0.2 mg/m3 17.28 °C 73.78 % 1,011.73 mbar 4.88 m/s 258.77 Deg 2.27 µg/m3 0.73 µg/m3
2021-12-28 15:00 11.24 µg/m3 0.51 µg/m3 65.74 µg/m3 29.49 µg/m3 12.1 µg/m3 0.21 mg/m3 17.53 °C 69.86 % 1,011.16 mbar 4.61 m/s 258.53 Deg 2.99 µg/m3 3.28 µg/m3
2021-12-28 14:00 13.73 µg/m3 0.54 µg/m3 64.86 µg/m3 30.86 µg/m3 12.52 µg/m3 0.22 mg/m3 17.56 °C 68.08 % 1,011.42 mbar 4.57 m/s 263.05 Deg 4.57 µg/m3 0.81 µg/m3
2021-12-28 13:00 17.5 µg/m3 0.56 µg/m3 60.7 µg/m3 27.55 µg/m3 12.13 µg/m3 0.25 mg/m3 17.57 °C 69.17 % 1,011.96 mbar 4.25 m/s 264.53 Deg 6.42 µg/m3 0.86 µg/m3
2021-12-28 12:00 17.03 µg/m3 0.55 µg/m3 56.47 µg/m3 28.75 µg/m3 12.67 µg/m3 0.24 mg/m3 17.35 °C 71.45 % 1,012.34 mbar 4.29 m/s 259.43 Deg 6.57 µg/m3 1.21 µg/m3
2021-12-28 11:00 18.14 µg/m3 0.56 µg/m3 52.35 µg/m3 27.66 µg/m3 13.28 µg/m3 0.25 mg/m3 17.22 °C 73.29 % 1,012.87 mbar 4.38 m/s 262.6 Deg 6.95 µg/m3 1.13 µg/m3
2021-12-28 10:00 17.46 µg/m3 0.58 µg/m3 50.51 µg/m3 25.76 µg/m3 12.89 µg/m3 0.24 mg/m3 17.11 °C 74.18 % 1,012.89 mbar 3.76 m/s 256.72 Deg 6.71 µg/m3 1.15 µg/m3
2021-12-28 09:00 19.04 µg/m3 0.49 µg/m3 47.62 µg/m3 20.27 µg/m3 12.54 µg/m3 0.23 mg/m3 16.5 °C 77.02 % 1,012.35 mbar 3.57 m/s 255.65 Deg 6.5 µg/m3 1.03 µg/m3
2021-12-28 08:00 16.33 µg/m3 0.49 µg/m3 43.95 µg/m3 15.84 µg/m3 11.39 µg/m3 0.23 mg/m3 16.15 °C 79.46 % 1,011.71 mbar 3.59 m/s 253.57 Deg 5.29 µg/m3 1.13 µg/m3
2021-12-28 07:00 13.53 µg/m3 0.49 µg/m3 47.34 µg/m3 13.46 µg/m3 9.72 µg/m3 0.21 mg/m3 16.38 °C 77.45 % 1,011.54 mbar 3.58 m/s 260.75 Deg 3.32 µg/m3 0.89 µg/m3
2021-12-28 06:00 7.27 µg/m3 0.4 µg/m3 51.22 µg/m3 13.19 µg/m3 9.34 µg/m3 0.16 mg/m3 16.47 °C 78.66 % 1,011.22 mbar 3.01 m/s 254.38 Deg 0.76 µg/m3 0.7 µg/m3
2021-12-28 05:00 4.31 µg/m3 0.41 µg/m3 57.92 µg/m3 20.73 µg/m3 13.95 µg/m3 0.16 mg/m3 16.65 °C 77.98 % 1,011.07 mbar 2.49 m/s 241.57 Deg -0.12 µg/m3 0.7 µg/m3
2021-12-28 04:00 3.88 µg/m3 0.42 µg/m3 64.56 µg/m3 21.57 µg/m3 14.44 µg/m3 0.16 mg/m3 16.44 °C 78.33 % 1,011.54 mbar 2.46 m/s 231.67 Deg -0.08 µg/m3 0.63 µg/m3
2021-12-28 03:00 2.14 µg/m3 0.41 µg/m3 68.85 µg/m3 17.77 µg/m3 12.27 µg/m3 0.14 mg/m3 16.24 °C 81.81 % 1,011.23 mbar 3.59 m/s 217.75 Deg -0.35 µg/m3 0.63 µg/m3
2021-12-28 02:00 3.51 µg/m3 0.4 µg/m3 67.93 µg/m3 17.29 µg/m3 12.39 µg/m3 0.18 mg/m3 16.21 °C 84.69 % 1,012.00 mbar 3.19 m/s 216.97 Deg -0.32 µg/m3 0.7 µg/m3
2021-12-28 01:00 5.32 µg/m3 0.45 µg/m3 65.16 µg/m3 16.18 µg/m3 11.55 µg/m3 0.19 mg/m3 16.01 °C 84.38 % 1,012.87 mbar 2.19 m/s 218.33 Deg 0.01 µg/m3 0.65 µg/m3
2021-12-28 00:00 5.37 µg/m3 0.45 µg/m3 67.68 µg/m3 15.93 µg/m3 11.22 µg/m3 0.19 mg/m3 16.34 °C 81.7 % 1,013.57 mbar 2.62 m/s 222.13 Deg 0.08 µg/m3 0.7 µg/m3
2021-12-27 23:00 6.41 µg/m3 0.39 µg/m3 66.69 µg/m3 15.92 µg/m3 11.33 µg/m3 0.2 mg/m3 16.26 °C 84.1 % 1,013.88 mbar 2.47 m/s 223.3 Deg 0.22 µg/m3 0.76 µg/m3
2021-12-27 22:00 10.09 µg/m3 0.49 µg/m3 60.93 µg/m3 18 µg/m3 12.71 µg/m3 0.22 mg/m3 16.19 °C 84.36 % 1,013.88 mbar 1.94 m/s 222.07 Deg 0.44 µg/m3 0.94 µg/m3
2021-12-27 21:00 16.68 µg/m3 0.49 µg/m3 53.85 µg/m3 18.51 µg/m3 12.93 µg/m3 0.27 mg/m3 16.2 °C 83.54 % 1,014.01 mbar 1.73 m/s 219.97 Deg 1.02 µg/m3 1.36 µg/m3
2021-12-27 20:00 26.59 µg/m3 0.5 µg/m3 44.43 µg/m3 21.84 µg/m3 14.9 µg/m3 0.34 mg/m3 16.22 °C 80.99 % 1,014.05 mbar 1.35 m/s 220.25 Deg 2.8 µg/m3 2.08 µg/m3
2021-12-27 19:00 35.48 µg/m3 0.56 µg/m3 36.34 µg/m3 21.27 µg/m3 14.4 µg/m3 0.37 mg/m3 16.21 °C 79.01 % 1,013.91 mbar 1.16 m/s 232.08 Deg 4.57 µg/m3 1.97 µg/m3
2021-12-27 18:00 30.16 µg/m3 0.59 µg/m3 43.39 µg/m3 18.02 µg/m3 12.35 µg/m3 0.34 mg/m3 16.31 °C 78.38 % 1,013.82 mbar 1.82 m/s 249.65 Deg 5.08 µg/m3 1.76 µg/m3
2021-12-27 17:00 25.73 µg/m3 0.55 µg/m3 49.34 µg/m3 17.22 µg/m3 11.8 µg/m3 0.32 mg/m3 16.69 °C 77.44 % 1,013.55 mbar 2.3 m/s 254.85 Deg 5.01 µg/m3 1.66 µg/m3
2021-12-27 16:00 20.18 µg/m3 0.54 µg/m3 54.82 µg/m3 22.19 µg/m3 12 µg/m3 0.29 mg/m3 17.25 °C 73.94 % 1,013.41 mbar 2.91 m/s 258.62 Deg 5.29 µg/m3 0.94 µg/m3
2021-12-27 15:00 20.42 µg/m3 0.55 µg/m3 54.19 µg/m3 21.86 µg/m3 10.48 µg/m3 0.28 mg/m3 17.46 °C 72.29 % 1,013.10 mbar 2.81 m/s 250.5 Deg 6.08 µg/m3 1.47 µg/m3
2021-12-27 14:00 23.77 µg/m3 0.61 µg/m3 51.13 µg/m3 22.05 µg/m3 10.57 µg/m3 0.29 mg/m3 17.72 °C 70.11 % 1,013.17 mbar 2.46 m/s 265 Deg 6.31 µg/m3 1.76 µg/m3
2021-12-27 13:00 24.68 µg/m3 0.69 µg/m3 45.61 µg/m3 22.13 µg/m3 11.22 µg/m3 0.3 mg/m3 17.7 °C 70.47 % 1,013.48 mbar 2.26 m/s 290.12 Deg 7.94 µg/m3 1.76 µg/m3
2021-12-27 12:00 54 µg/m3 0.66 µg/m3 37.92 µg/m3 25.06 µg/m3 11.13 µg/m3 0.3 mg/m3 18.03 °C 68.99 % 1,013.89 mbar 1.9 m/s 297.05 Deg 126.99 µg/m3 2.03 µg/m3
2021-12-27 11:00 19.29 µg/m3 1.58 µg/m3 65.21 µg/m3 28.71 µg/m3 10.94 µg/m3 0.25 mg/m3 18.29 °C 66.21 % 1,014.07 mbar 1.94 m/s 268.55 Deg 8.34 µg/m3 1.84 µg/m3
2021-12-27 10:00 36.52 µg/m3 0.84 µg/m3 25.23 µg/m3 37.04 µg/m3 13.41 µg/m3 0.38 mg/m3 17.45 °C 69.07 % 1,013.73 mbar 1.42 m/s 251.92 Deg 19.73 µg/m3 3.08 µg/m3
2021-12-27 09:00 45.72 µg/m3 1.09 µg/m3 13.97 µg/m3 25.3 µg/m3 15.72 µg/m3 0.46 mg/m3 15.73 °C 82.43 % 1,013.28 mbar 0.79 m/s 216.45 Deg 32.46 µg/m3 6.23 µg/m3
2021-12-27 08:00 58.61 µg/m3 2.25 µg/m3 2.51 µg/m3 31.29 µg/m3 20.86 µg/m3 0.98 mg/m3 14.96 °C 83.22 % 1,012.95 mbar 0.79 m/s 245.57 Deg 114.34 µg/m3 13.33 µg/m3
2021-12-27 07:00 52.3 µg/m3 2.08 µg/m3 1.84 µg/m3 31.14 µg/m3 20.77 µg/m3 0.98 mg/m3 15.17 °C 83.22 % 1,012.49 mbar 0.66 m/s 248.74 Deg 102.89 µg/m3 9.19 µg/m3
2021-12-27 06:00 43.73 µg/m3 1.07 µg/m3 5.76 µg/m3 24.6 µg/m3 16.42 µg/m3 0.48 mg/m3 15.48 °C 83.29 % 1,011.71 mbar 0.53 m/s 194.97 Deg 36.69 µg/m3 3.57 µg/m3
2021-12-27 05:00 36.2 µg/m3 0.73 µg/m3 8.16 µg/m3 20.37 µg/m3 13.64 µg/m3 0.29 mg/m3 15.66 °C 82.93 % 1,011.71 mbar 0.25 m/s 227.09 Deg 12.15 µg/m3 2.33 µg/m3
2021-12-27 04:00 20.39 µg/m3 0.67 µg/m3 34.86 µg/m3 18.32 µg/m3 12.22 µg/m3 0.21 mg/m3 15.92 °C 82.45 % 1,011.80 mbar 0.5 m/s 259.18 Deg 5.89 µg/m3 1.87 µg/m3
2021-12-27 03:00 6.69 µg/m3 0.46 µg/m3 56.58 µg/m3 18.33 µg/m3 12.22 µg/m3 0.16 mg/m3 16.47 °C 80.81 % 1,012.26 mbar 0.67 m/s 221.42 Deg -0.24 µg/m3 1.03 µg/m3
2021-12-27 02:00 8.45 µg/m3 0.46 µg/m3 60.63 µg/m3 16.93 µg/m3 11.29 µg/m3 0.18 mg/m3 16.77 °C 79.29 % 1,012.55 mbar 0.98 m/s 220.72 Deg 0.25 µg/m3 1.08 µg/m3
2021-12-27 01:00 8.02 µg/m3 0.47 µg/m3 60.89 µg/m3 17.17 µg/m3 11.46 µg/m3 0.19 mg/m3 16.75 °C 81.88 % 1,013.17 mbar 1.17 m/s 214.85 Deg 1.47 µg/m3 0.94 µg/m3
2021-12-27 00:00 10.04 µg/m3 0.52 µg/m3 59.37 µg/m3 16.66 µg/m3 11.11 µg/m3 0.21 mg/m3 16.76 °C 82.34 % 1,013.57 mbar 1.27 m/s 220.88 Deg 0.27 µg/m3 1.03 µg/m3
2021-12-26 23:00 11.09 µg/m3 0.56 µg/m3 59.02 µg/m3 16.25 µg/m3 10.85 µg/m3 0.22 mg/m3 16.8 °C 79.66 % 1,013.72 mbar 1.43 m/s 220.23 Deg 0.4 µg/m3 0.73 µg/m3
2021-12-26 22:00 10.32 µg/m3 0.52 µg/m3 59.27 µg/m3 15.1 µg/m3 10.09 µg/m3 0.21 mg/m3 16.67 °C 79.82 % 1,013.70 mbar 1.84 m/s 219.47 Deg 0.7 µg/m3 0.86 µg/m3
2021-12-26 21:00 14.11 µg/m3 0.55 µg/m3 51.85 µg/m3 15.4 µg/m3 10.29 µg/m3 0.24 mg/m3 16.58 °C 83.01 % 1,013.79 mbar 1.18 m/s 202.35 Deg 1.6 µg/m3 1.23 µg/m3
2021-12-26 20:00 19.18 µg/m3 0.6 µg/m3 44.21 µg/m3 16.31 µg/m3 10.92 µg/m3 0.29 mg/m3 16.73 °C 82.87 % 1,013.88 mbar 1.35 m/s 210.6 Deg 2.11 µg/m3 3.12 µg/m3
2021-12-26 19:00 26.29 µg/m3 0.6 µg/m3 39 µg/m3 17.73 µg/m3 11.84 µg/m3 0.35 mg/m3 17.13 °C 78.45 % 1,013.63 mbar 0.9 m/s 210.3 Deg 3.07 µg/m3 1.44 µg/m3
2021-12-26 18:00 19.12 µg/m3 0.55 µg/m3 49.26 µg/m3 18.68 µg/m3 11.26 µg/m3 0.28 mg/m3 17.45 °C 73.85 % 1,013.27 mbar 1.25 m/s 210.07 Deg 1.36 µg/m3 1.52 µg/m3
2021-12-26 17:00 14.02 µg/m3 0.53 µg/m3 57.05 µg/m3 22.07 µg/m3 10.63 µg/m3 0.23 mg/m3 17.98 °C 67.99 % 1,012.88 mbar 2.01 m/s 212.67 Deg 1.08 µg/m3 1.42 µg/m3
2021-12-26 16:00 11.9 µg/m3 0.54 µg/m3 61.27 µg/m3 20.33 µg/m3 9 µg/m3 0.21 mg/m3 18.67 °C 58.84 % 1,012.92 mbar 2.62 m/s 217.3 Deg 1.29 µg/m3 1.05 µg/m3
2021-12-26 15:00 9.21 µg/m3 0.52 µg/m3 65.77 µg/m3 21.14 µg/m3 9.88 µg/m3 0.21 mg/m3 19.1 °C 58.47 % 1,013.20 mbar 2.95 m/s 216.3 Deg 1.38 µg/m3 1.45 µg/m3
2021-12-26 14:00 10.11 µg/m3 0.52 µg/m3 66.28 µg/m3 23.64 µg/m3 11.36 µg/m3 0.24 mg/m3 19.37 °C 58.41 % 1,013.44 mbar 3.15 m/s 219.17 Deg 1.57 µg/m3 2.08 µg/m3
2021-12-26 13:00 15.73 µg/m3 0.59 µg/m3 58.49 µg/m3 32.19 µg/m3 15.45 µg/m3 0.31 mg/m3 19.63 °C 57.03 % 1,013.87 mbar 2.92 m/s 211.77 Deg 3.75 µg/m3 3.39 µg/m3
2021-12-26 12:00 15.83 µg/m3 0.63 µg/m3 54.91 µg/m3 33.07 µg/m3 14.51 µg/m3 0.3 mg/m3 19.77 °C 53.9 % 1,014.60 mbar 2.2 m/s 201.27 Deg 3.88 µg/m3 2.47 µg/m3
2021-12-26 11:00 25.74 µg/m3 0.88 µg/m3 41.53 µg/m3 44.72 µg/m3 15.94 µg/m3 0.49 mg/m3 19.19 °C 56.14 % 1,015.26 mbar 1.14 m/s 174.78 Deg 19.03 µg/m3 2.97 µg/m3
2021-12-26 10:00 29.36 µg/m3 0.8 µg/m3 30.79 µg/m3 47.81 µg/m3 18.55 µg/m3 0.51 mg/m3 17.38 °C 70.32 % 1,015.44 mbar 0.86 m/s 209.33 Deg 12.93 µg/m3 7.45 µg/m3
2021-12-26 09:00 48.98 µg/m3 1.5 µg/m3 12.5 µg/m3 38.05 µg/m3 20.39 µg/m3 0.93 mg/m3 17.02 °C 71.96 % 1,015.08 mbar 0.46 m/s 236.94 Deg 54.39 µg/m3 9.43 µg/m3
2021-12-26 08:00 43.91 µg/m3 1.01 µg/m3 18.54 µg/m3 26.34 µg/m3 17.56 µg/m3 0.71 mg/m3 16.44 °C 77.7 % 1,014.80 mbar 0.48 m/s 178.05 Deg 29.43 µg/m3 2.89 µg/m3
2021-12-26 07:00 24.69 µg/m3 0.55 µg/m3 36.37 µg/m3 26.22 µg/m3 13.72 µg/m3 0.29 mg/m3 16.64 °C 72.96 % 1,014.59 mbar 1.06 m/s 204.18 Deg 6.36 µg/m3 1.5 µg/m3
2021-12-26 06:00 11.18 µg/m3 0.45 µg/m3 53.37 µg/m3 25.7 µg/m3 12.3 µg/m3 0.18 mg/m3 16.69 °C 71.62 % 1,014.47 mbar 1.09 m/s 223.97 Deg 0.17 µg/m3 0.7 µg/m3
2021-12-26 05:00 6.89 µg/m3 0.5 µg/m3 55.22 µg/m3 19.54 µg/m3 13.03 µg/m3 0.16 mg/m3 16.86 °C 76.55 % 1,014.03 mbar 2 m/s 219 Deg 0.04 µg/m3 0.5 µg/m3
2021-12-26 04:00 3.48 µg/m3 0.5 µg/m3 59.24 µg/m3 19.52 µg/m3 13.01 µg/m3 0.14 mg/m3 16.71 °C 78.2 % 1,014.07 mbar 2.01 m/s 214.2 Deg -0.24 µg/m3 0.39 µg/m3
2021-12-26 03:00 2.66 µg/m3 0.5 µg/m3 60.14 µg/m3 20.77 µg/m3 13.85 µg/m3 0.14 mg/m3 16.7 °C 78.05 % 1,014.44 mbar 1.78 m/s 216.12 Deg -0.19 µg/m3 0.42 µg/m3
2021-12-26 02:00 3.11 µg/m3 0.48 µg/m3 61.74 µg/m3 19.96 µg/m3 13.31 µg/m3 0.17 mg/m3 16.6 °C 77.45 % 1,014.45 mbar 2.22 m/s 218.1 Deg -0.17 µg/m3 0.73 µg/m3
2021-12-26 01:00 9.81 µg/m3 0.53 µg/m3 56.31 µg/m3 19.26 µg/m3 12.86 µg/m3 0.21 mg/m3 16.37 °C 79.03 % 1,014.70 mbar 1.46 m/s 217.18 Deg 0.27 µg/m3 0.81 µg/m3
2021-12-26 00:00 8.3 µg/m3 0.51 µg/m3 58.29 µg/m3 19.86 µg/m3 13.26 µg/m3 0.21 mg/m3 16.29 °C 78.08 % 1,014.98 mbar 1.84 m/s 220.83 Deg 0.19 µg/m3 0.94 µg/m3
2021-12-25 23:00 8.65 µg/m3 0.51 µg/m3 59.09 µg/m3 20.95 µg/m3 14 µg/m3 0.21 mg/m3 16.24 °C 78.92 % 1,015.16 mbar 2.04 m/s 218.3 Deg 0.39 µg/m3 1.03 µg/m3
2021-12-25 22:00 13.57 µg/m3 0.55 µg/m3 53.27 µg/m3 24.37 µg/m3 16.27 µg/m3 0.25 mg/m3 16.25 °C 81.53 % 1,015.51 mbar 1.46 m/s 219.7 Deg 0.8 µg/m3 1.63 µg/m3
2021-12-25 21:00 13.77 µg/m3 0.53 µg/m3 52.64 µg/m3 25.79 µg/m3 17.21 µg/m3 0.25 mg/m3 16.35 °C 80.54 % 1,015.63 mbar 1.57 m/s 217.73 Deg 0.87 µg/m3 1.86 µg/m3
2021-12-25 20:00 20.04 µg/m3 0.54 µg/m3 45.69 µg/m3 27.59 µg/m3 18.41 µg/m3 0.28 mg/m3 16.47 °C 79.84 % 1,015.54 mbar 1.25 m/s 208.38 Deg 2.03 µg/m3 2.2 µg/m3
2021-12-25 19:00 27.97 µg/m3 0.6 µg/m3 40.58 µg/m3 29.19 µg/m3 19.47 µg/m3 0.33 mg/m3 16.73 °C 78.56 % 1,015.70 mbar 0.68 m/s 219.08 Deg 4.62 µg/m3 1.94 µg/m3
2021-12-25 18:00 20.04 µg/m3 0.55 µg/m3 49.75 µg/m3 28.91 µg/m3 19.29 µg/m3 0.29 mg/m3 17.09 °C 76.9 % 1,015.60 mbar 1.19 m/s 185.08 Deg 3.45 µg/m3 1.23 µg/m3
2021-12-25 17:00 13 µg/m3 0.51 µg/m3 61.33 µg/m3 33.95 µg/m3 18.21 µg/m3 0.25 mg/m3 17.51 °C 73.85 % 1,015.47 mbar 1.73 m/s 207.37 Deg 1.07 µg/m3 1.78 µg/m3
2021-12-25 16:00 11.42 µg/m3 0.51 µg/m3 71.43 µg/m3 37.56 µg/m3 19.19 µg/m3 0.28 mg/m3 18.02 °C 73.06 % 1,015.62 mbar 2.09 m/s 198.72 Deg 0.94 µg/m3 1.47 µg/m3
2021-12-25 15:00 7.47 µg/m3 0.51 µg/m3 76.44 µg/m3 33.68 µg/m3 17.49 µg/m3 0.23 mg/m3 18.4 °C 71.2 % 1,015.77 mbar 2.64 m/s 197.85 Deg 0.63 µg/m3 1.03 µg/m3
2021-12-25 14:00 6.88 µg/m3 0.53 µg/m3 77.08 µg/m3 30.12 µg/m3 14.83 µg/m3 0.21 mg/m3 18.62 °C 70.49 % 1,016.15 mbar 2.71 m/s 207 Deg 0.8 µg/m3 1.1 µg/m3
2021-12-25 13:00 10.87 µg/m3 0.56 µg/m3 73.65 µg/m3 32.32 µg/m3 15.68 µg/m3 0.24 mg/m3 18.52 °C 71.92 % 1,016.85 mbar 2.56 m/s 198.83 Deg 2.14 µg/m3 1.31 µg/m3
2021-12-25 12:00 15 µg/m3 0.63 µg/m3 66.62 µg/m3 37.94 µg/m3 17.44 µg/m3 0.3 mg/m3 18.42 °C 73.76 % 1,017.56 mbar 2.37 m/s 196.38 Deg 3.87 µg/m3 2.17 µg/m3
2021-12-25 11:00 16.03 µg/m3 0.75 µg/m3 58.86 µg/m3 34.68 µg/m3 18.08 µg/m3 0.32 mg/m3 18.2 °C 76.1 % 1,018.29 mbar 2.22 m/s 184.87 Deg 9.44 µg/m3 2.59 µg/m3
2021-12-25 10:00 13.1 µg/m3 0.63 µg/m3 63.62 µg/m3 23.67 µg/m3 15.62 µg/m3 0.3 mg/m3 17.69 °C 79.39 % 1,018.87 mbar 1.66 m/s 174.47 Deg 3.45 µg/m3 1.6 µg/m3
2021-12-25 09:00 23.94 µg/m3 0.78 µg/m3 49.93 µg/m3 23.76 µg/m3 16.04 µg/m3 0.38 mg/m3 16.73 °C 82.48 % 1,019.03 mbar 0.87 m/s 199.88 Deg 5.49 µg/m3 3.46 µg/m3
2021-12-25 08:00 44.8 µg/m3 1.03 µg/m3 22.3 µg/m3 27.95 µg/m3 19.23 µg/m3 0.59 mg/m3 15.59 °C 84.68 % 1,018.91 mbar 0.85 m/s 222.05 Deg 24.13 µg/m3 5.62 µg/m3
2021-12-25 07:00 45.53 µg/m3 0.89 µg/m3 24.71 µg/m3 24.46 µg/m3 16.72 µg/m3 0.42 mg/m3 15.51 °C 83.44 % 1,018.67 mbar 0.83 m/s 230.57 Deg 19.3 µg/m3 1.92 µg/m3
2021-12-25 06:00 16.63 µg/m3 0.68 µg/m3 60.88 µg/m3 18.36 µg/m3 12.61 µg/m3 0.23 mg/m3 15.63 °C 81.57 % 1,018.51 mbar 1.24 m/s 215.92 Deg 1.19 µg/m3 0.92 µg/m3
2021-12-25 05:00 6.89 µg/m3 0.6 µg/m3 69.8 µg/m3 15.37 µg/m3 10.75 µg/m3 0.19 mg/m3 15.41 °C 81.94 % 1,018.49 mbar 1.53 m/s 218.15 Deg -0.12 µg/m3 0.92 µg/m3
2021-12-25 04:00 18.54 µg/m3 0.73 µg/m3 49.33 µg/m3 13.56 µg/m3 9.78 µg/m3 0.23 mg/m3 15.03 °C 82.07 % 1,018.78 mbar 1.29 m/s 228.77 Deg 1.67 µg/m3 1.52 µg/m3
2021-12-25 03:00 42.42 µg/m3 1.06 µg/m3 17.58 µg/m3 20.48 µg/m3 14.76 µg/m3 0.43 mg/m3 14.57 °C 82.16 % 1,019.04 mbar 1.03 m/s 237.17 Deg 10.8 µg/m3 5.41 µg/m3
2021-12-25 02:00 51.88 µg/m3 1.55 µg/m3 2.1 µg/m3 26.33 µg/m3 18.98 µg/m3 0.93 mg/m3 14.01 °C 82.65 % 1,019.33 mbar 0.7 m/s 242.62 Deg 52.1 µg/m3 8.74 µg/m3
2021-12-25 01:00 52.22 µg/m3 1.71 µg/m3 1.76 µg/m3 30.71 µg/m3 21.84 µg/m3 1.06 mg/m3 13.69 °C 82.98 % 1,019.86 mbar 0.8 m/s 243.85 Deg 58.77 µg/m3 10.66 µg/m3
2021-12-25 00:00 54.57 µg/m3 1.84 µg/m3 2.05 µg/m3 37.12 µg/m3 27.1 µg/m3 1.17 mg/m3 13.38 °C 83.53 % 1,020.36 mbar 0.96 m/s 245.33 Deg 63.52 µg/m3 11.44 µg/m3
2021-12-24 23:00 51.12 µg/m3 2.21 µg/m3 3.25 µg/m3 53.03 µg/m3 38.09 µg/m3 1.39 mg/m3 13.2 °C 82.79 % 1,020.64 mbar 0.84 m/s 243.18 Deg 89 µg/m3 12.73 µg/m3
2021-12-24 22:00 55.87 µg/m3 2.12 µg/m3 2.87 µg/m3 49.85 µg/m3 34.18 µg/m3 1.26 mg/m3 13.34 °C 82.14 % 1,020.73 mbar 0.77 m/s 240.7 Deg 83.14 µg/m3 11.07 µg/m3
2021-12-24 21:00 65.73 µg/m3 2.07 µg/m3 2.91 µg/m3 50.73 µg/m3 34.13 µg/m3 1.3 mg/m3 13.88 °C 80.5 % 1,020.88 mbar 0.69 m/s 235.97 Deg 89.14 µg/m3 12.15 µg/m3
2021-12-24 20:00 69.84 µg/m3 1.86 µg/m3 3.78 µg/m3 39.89 µg/m3 26.91 µg/m3 1.1 mg/m3 14.31 °C 78.65 % 1,021.22 mbar 0.66 m/s 221.72 Deg 72.8 µg/m3 9.21 µg/m3
2021-12-24 19:00 78.82 µg/m3 1.84 µg/m3 3.37 µg/m3 27.95 µg/m3 18.85 µg/m3 0.89 mg/m3 15.01 °C 75.62 % 1,021.16 mbar 0.31 m/s 98.37 Deg 75.56 µg/m3 7.32 µg/m3
2021-12-24 18:00 44.33 µg/m3 0.75 µg/m3 34.39 µg/m3 17.76 µg/m3 11.69 µg/m3 0.37 mg/m3 15.47 °C 72.45 % 1,021.08 mbar 0.52 m/s 178.71 Deg 6.71 µg/m3 1.42 µg/m3
2021-12-24 17:00 18.1 µg/m3 0.61 µg/m3 62.5 µg/m3 11.98 µg/m3 7.2 µg/m3 0.24 mg/m3 15.99 °C 68.57 % 1,021.07 mbar 1.07 m/s 191.03 Deg 2.68 µg/m3 1.02 µg/m3
2021-12-24 16:00 20.2 µg/m3 0.79 µg/m3 63.25 µg/m3 11.86 µg/m3 6.68 µg/m3 0.29 mg/m3 16.69 °C 64.1 % 1,020.96 mbar 1.15 m/s 127.5 Deg 12.67 µg/m3 1.28 µg/m3
2021-12-24 15:00 25.36 µg/m3 0.86 µg/m3 59.89 µg/m3 12.25 µg/m3 6.41 µg/m3 0.29 mg/m3 17.39 °C 57.88 % 1,021.21 mbar 0.89 m/s 219.32 Deg 16.08 µg/m3 1.36 µg/m3
2021-12-24 14:00 17.4 µg/m3 0.68 µg/m3 66.52 µg/m3 11.86 µg/m3 6.74 µg/m3 0.24 mg/m3 17.08 °C 61.52 % 1,021.57 mbar 1.7 m/s 245.37 Deg 4.4 µg/m3 1.89 µg/m3
2021-12-24 13:00 16.62 µg/m3 0.78 µg/m3 64.47 µg/m3 12.57 µg/m3 6.2 µg/m3 0.25 mg/m3 16.77 °C 61.91 % 1,022.08 mbar 1.77 m/s 206.28 Deg 7.75 µg/m3 1.05 µg/m3
2021-12-24 12:00 19.37 µg/m3 0.83 µg/m3 66.83 µg/m3 11.52 µg/m3 6.13 µg/m3 0.26 mg/m3 16.31 °C 66.21 % 1,022.96 mbar 1.54 m/s 204.37 Deg 6.99 µg/m3 1.26 µg/m3
2021-12-24 11:00 44.66 µg/m3 1.22 µg/m3 42.3 µg/m3 27.61 µg/m3 13.19 µg/m3 0.44 mg/m3 16.03 °C 69.79 % 1,023.69 mbar 0.84 m/s 200.73 Deg 28.78 µg/m3 3.94 µg/m3
2021-12-24 10:00 60.66 µg/m3 1.66 µg/m3 18.01 µg/m3 42.95 µg/m3 19.09 µg/m3 0.68 mg/m3 14.82 °C 73.98 % 1,023.93 mbar 0.69 m/s 213.22 Deg 48.52 µg/m3 7.8 µg/m3
2021-12-24 09:00 57.96 µg/m3 2.48 µg/m3 5.05 µg/m3 42.9 µg/m3 28.6 µg/m3 1.05 mg/m3 12.5 °C 81.04 % 1,023.63 mbar 0.57 m/s 227 Deg 102.03 µg/m3 10.53 µg/m3
2021-12-24 08:00 51.73 µg/m3 2.9 µg/m3 2.32 µg/m3 32.41 µg/m3 21.63 µg/m3 1.16 mg/m3 10.91 °C 85.15 % 1,023.36 mbar 0.57 m/s 235.95 Deg 128.19 µg/m3 11.13 µg/m3
2021-12-24 07:00 44.53 µg/m3 2.17 µg/m3 1.84 µg/m3 27.41 µg/m3 18.68 µg/m3 0.99 mg/m3 10.88 °C 85.34 % 1,023.11 mbar 0.64 m/s 239.88 Deg 95.14 µg/m3 7.87 µg/m3
2021-12-24 06:00 38.04 µg/m3 1.14 µg/m3 2.8 µg/m3 20.33 µg/m3 14.79 µg/m3 0.48 mg/m3 11.04 °C 85.28 % 1,022.94 mbar 0.67 m/s 243.15 Deg 26.3 µg/m3 6.33 µg/m3
2021-12-24 05:00 31.94 µg/m3 0.94 µg/m3 3.68 µg/m3 21.36 µg/m3 15.83 µg/m3 0.42 mg/m3 11.21 °C 85.05 % 1,022.86 mbar 0.73 m/s 241.12 Deg 14.58 µg/m3 4.3 µg/m3
2021-12-24 04:00 33.94 µg/m3 0.83 µg/m3 3.1 µg/m3 20.83 µg/m3 15.7 µg/m3 0.54 mg/m3 11.52 °C 84.27 % 1,022.92 mbar 0.74 m/s 241.23 Deg 6.05 µg/m3 3.99 µg/m3
2021-12-24 03:00 39.04 µg/m3 0.98 µg/m3 2.41 µg/m3 23.19 µg/m3 16.81 µg/m3 0.51 mg/m3 11.98 °C 83.33 % 1,022.94 mbar 0.72 m/s 242.6 Deg 12.39 µg/m3 4.28 µg/m3
2021-12-24 02:00 46.77 µg/m3 1.12 µg/m3 2.1 µg/m3 28.67 µg/m3 20.43 µg/m3 0.64 mg/m3 12.35 °C 82.26 % 1,022.99 mbar 0.77 m/s 245.07 Deg 22.1 µg/m3 4.91 µg/m3
2021-12-24 01:00 56.44 µg/m3 1.37 µg/m3 2.66 µg/m3 22.4 µg/m3 15.39 µg/m3 0.66 mg/m3 13 °C 79.71 % 1,023.04 mbar 0.86 m/s 242.6 Deg 41.16 µg/m3 5.7 µg/m3
2021-12-24 00:00 61.13 µg/m3 1.29 µg/m3 11.54 µg/m3 17.96 µg/m3 12.03 µg/m3 0.69 mg/m3 14.04 °C 75.09 % 1,023.25 mbar 0.45 m/s 201.43 Deg 41.09 µg/m3 6.49 µg/m3
2021-12-23 23:00 40.01 µg/m3 0.94 µg/m3 38.29 µg/m3 12.61 µg/m3 8.55 µg/m3 0.44 mg/m3 14.43 °C 73.56 % 1,023.30 mbar 1.18 m/s 71.9 Deg 24.95 µg/m3 1.03 µg/m3
2021-12-23 22:00 24.13 µg/m3 0.85 µg/m3 62.16 µg/m3 10.35 µg/m3 6.48 µg/m3 0.29 mg/m3 14.79 °C 72.52 % 1,023.20 mbar 2.32 m/s 60.62 Deg 15.32 µg/m3 1.12 µg/m3
2021-12-23 21:00 20.2 µg/m3 0.88 µg/m3 67.12 µg/m3 12.78 µg/m3 7.39 µg/m3 0.33 mg/m3 14.91 °C 72.86 % 1,023.16 mbar 3.04 m/s 53.72 Deg 23.02 µg/m3 0.97 µg/m3
2021-12-23 20:00 22.15 µg/m3 0.84 µg/m3 69.48 µg/m3 10.9 µg/m3 6.35 µg/m3 0.31 mg/m3 14.99 °C 72.54 % 1,022.78 mbar 4.19 m/s 49.4 Deg 20.55 µg/m3 1.31 µg/m3
2021-12-23 19:00 17.93 µg/m3 0.86 µg/m3 68.06 µg/m3 10.47 µg/m3 6.77 µg/m3 0.35 mg/m3 15.02 °C 73.98 % 1,022.36 mbar 3.93 m/s 50.5 Deg 21.39 µg/m3 1.94 µg/m3
2021-12-23 18:00 25.79 µg/m3 0.95 µg/m3 64.5 µg/m3 11.07 µg/m3 6.78 µg/m3 0.35 mg/m3 14.98 °C 73.06 % 1,021.97 mbar 4.2 m/s 49.63 Deg 24.83 µg/m3 2.89 µg/m3
2021-12-23 17:00 18.86 µg/m3 0.9 µg/m3 66.52 µg/m3 12.38 µg/m3 7.81 µg/m3 0.31 mg/m3 15.02 °C 73.98 % 1,021.79 mbar 4.69 m/s 49.37 Deg 23.87 µg/m3 1.23 µg/m3
2021-12-23 16:00 18.24 µg/m3 0.87 µg/m3 69.03 µg/m3 11.26 µg/m3 7.32 µg/m3 0.3 mg/m3 14.97 °C 74.77 % 1,021.90 mbar 4.81 m/s 49.6 Deg 20.64 µg/m3 1.65 µg/m3
2021-12-23 15:00 16.45 µg/m3 0.96 µg/m3 64.5 µg/m3 11.19 µg/m3 7.05 µg/m3 0.32 mg/m3 15.12 °C 73.29 % 1,021.69 mbar 4 m/s 51.08 Deg 28.74 µg/m3 2.97 µg/m3
2021-12-23 14:00 18.81 µg/m3 0.95 µg/m3 69.22 µg/m3 13.1 µg/m3 7.27 µg/m3 0.32 mg/m3 15.25 °C 72.9 % 1,021.60 mbar 4.5 m/s 51.6 Deg 26.23 µg/m3 0.91 µg/m3
2021-12-23 13:00 21.44 µg/m3 0.99 µg/m3 68.89 µg/m3 10.86 µg/m3 6.24 µg/m3 0.32 mg/m3 15.19 °C 70.04 % 1,021.89 mbar 4.4 m/s 50.57 Deg 27.81 µg/m3 1.03 µg/m3
2021-12-23 12:00 25.43 µg/m3 1.02 µg/m3 67.46 µg/m3 10.93 µg/m3 6.41 µg/m3 0.31 mg/m3 15.19 °C 71.01 % 1,022.19 mbar 4.32 m/s 53.1 Deg 27.92 µg/m3 1.73 µg/m3
2021-12-23 11:00 18.79 µg/m3 0.98 µg/m3 63.56 µg/m3 13.61 µg/m3 7.42 µg/m3 0.32 mg/m3 15.18 °C 72.41 % 1,022.74 mbar 3.72 m/s 57.43 Deg 32.98 µg/m3 1.21 µg/m3
2021-12-23 10:00 20.21 µg/m3 0.93 µg/m3 68.73 µg/m3 12.23 µg/m3 6.62 µg/m3 0.28 mg/m3 15.01 °C 72.43 % 1,022.63 mbar 4.39 m/s 49.47 Deg 23.5 µg/m3 0.86 µg/m3
2021-12-23 09:00 17.98 µg/m3 0.89 µg/m3 70.01 µg/m3 10.67 µg/m3 6.43 µg/m3 0.28 mg/m3 14.78 °C 74.45 % 1,022.05 mbar 4.62 m/s 50.23 Deg 20.65 µg/m3 1.99 µg/m3
2021-12-23 08:00 16.37 µg/m3 0.89 µg/m3 67.3 µg/m3 11.98 µg/m3 7.21 µg/m3 0.32 mg/m3 14.5 °C 74.8 % 1,021.77 mbar 4.16 m/s 46.75 Deg 22.81 µg/m3 0.89 µg/m3
2021-12-23 07:00 12.15 µg/m3 0.84 µg/m3 71.84 µg/m3 7.97 µg/m3 5.74 µg/m3 0.25 mg/m3 14.57 °C 75.3 % 1,021.65 mbar 4.61 m/s 47.68 Deg 15.03 µg/m3 0.89 µg/m3
2021-12-23 06:00 7.49 µg/m3 0.69 µg/m3 74.05 µg/m3 7.05 µg/m3 5.26 µg/m3 0.19 mg/m3 14.57 °C 76.47 % 1,021.44 mbar 4.42 m/s 48.38 Deg 6.2 µg/m3 0.63 µg/m3
2021-12-23 05:00 2.75 µg/m3 0.63 µg/m3 78.16 µg/m3 5.42 µg/m3 4.12 µg/m3 0.16 mg/m3 14.48 °C 74.43 % 1,021.31 mbar 4.12 m/s 46.67 Deg 1.41 µg/m3 0.65 µg/m3
2021-12-23 04:00 0.89 µg/m3 0.66 µg/m3 79.92 µg/m3 5.82 µg/m3 4.41 µg/m3 0.16 mg/m3 14.63 °C 73.88 % 1,021.40 mbar 4.62 m/s 49.58 Deg 0.26 µg/m3 0.68 µg/m3
2021-12-23 03:00 3.53 µg/m3 0.7 µg/m3 76.37 µg/m3 6.34 µg/m3 4.5 µg/m3 0.16 mg/m3 14.53 °C 72.27 % 1,021.53 mbar 3.94 m/s 48.72 Deg 1.08 µg/m3 0.89 µg/m3
2021-12-23 02:00 5.24 µg/m3 0.62 µg/m3 76.61 µg/m3 6.84 µg/m3 4.96 µg/m3 0.18 mg/m3 14.68 °C 72.98 % 1,021.63 mbar 3.63 m/s 49.1 Deg 1.98 µg/m3 0.68 µg/m3
2021-12-23 01:00 7.54 µg/m3 0.69 µg/m3 70.59 µg/m3 7.75 µg/m3 5.22 µg/m3 0.19 mg/m3 14.73 °C 72.22 % 1,021.67 mbar 3.35 m/s 48.93 Deg 5.9 µg/m3 0.94 µg/m3
2021-12-23 00:00 12.98 µg/m3 0.77 µg/m3 68.24 µg/m3 9.55 µg/m3 5.66 µg/m3 0.23 mg/m3 14.87 °C 70.25 % 1,021.79 mbar 3.19 m/s 51.87 Deg 9.14 µg/m3 1.47 µg/m3
2021-12-22 23:00 20.13 µg/m3 0.84 µg/m3 59.6 µg/m3 11.79 µg/m3 6.69 µg/m3 0.25 mg/m3 14.86 °C 68.55 % 1,021.91 mbar 2.13 m/s 59.27 Deg 16.43 µg/m3 1.42 µg/m3
2021-12-22 22:00 29.81 µg/m3 0.88 µg/m3 55.43 µg/m3 12.18 µg/m3 7.25 µg/m3 0.31 mg/m3 14.78 °C 69.62 % 1,021.75 mbar 2.27 m/s 58.07 Deg 16.09 µg/m3 1.68 µg/m3
2021-12-22 21:00 52.98 µg/m3 1.17 µg/m3 37.41 µg/m3 18.95 µg/m3 8.9 µg/m3 0.41 mg/m3 14.77 °C 70.15 % 1,021.86 mbar 1.6 m/s 67.25 Deg 33.91 µg/m3 4.44 µg/m3
2021-12-22 20:00 51.26 µg/m3 1.63 µg/m3 31.16 µg/m3 27.45 µg/m3 12.64 µg/m3 0.58 mg/m3 14.77 °C 70.55 % 1,021.83 mbar 1.25 m/s 71.58 Deg 76.76 µg/m3 2.31 µg/m3
2021-12-22 19:00 36.48 µg/m3 1.4 µg/m3 45.64 µg/m3 21.55 µg/m3 9.87 µg/m3 0.51 mg/m3 14.87 °C 70.79 % 1,021.49 mbar 2 m/s 51.45 Deg 57.33 µg/m3 5.53 µg/m3
2021-12-22 18:00 45.66 µg/m3 1.24 µg/m3 50.23 µg/m3 19.95 µg/m3 8.81 µg/m3 0.54 mg/m3 15.05 °C 69.48 % 1,021.41 mbar 1.59 m/s 49.7 Deg 39.13 µg/m3 3.99 µg/m3
2021-12-22 17:00 40.55 µg/m3 1.25 µg/m3 54.9 µg/m3 20.28 µg/m3 9.2 µg/m3 0.58 mg/m3 15.2 °C 67.15 % 1,021.44 mbar 1.45 m/s 56.6 Deg 41.17 µg/m3 5.93 µg/m3
2021-12-22 16:00 37.41 µg/m3 1.16 µg/m3 58.42 µg/m3 15.45 µg/m3 7.1 µg/m3 0.39 mg/m3 15.26 °C 67.06 % 1,021.17 mbar 1.64 m/s 53.72 Deg 34.22 µg/m3 2.39 µg/m3
2021-12-22 15:00 30.55 µg/m3 1.19 µg/m3 58.14 µg/m3 17.74 µg/m3 7.97 µg/m3 0.38 mg/m3 15.28 °C 67 % 1,021.01 mbar 1.98 m/s 57.12 Deg 45.02 µg/m3 2.08 µg/m3
2021-12-22 14:00 33.93 µg/m3 1.11 µg/m3 53.47 µg/m3 22.29 µg/m3 8.95 µg/m3 0.37 mg/m3 15.85 °C 63.03 % 1,020.94 mbar 1.45 m/s 113.87 Deg 33.22 µg/m3 3.15 µg/m3
2021-12-22 13:00 31.21 µg/m3 0.93 µg/m3 53.61 µg/m3 21.52 µg/m3 8.83 µg/m3 0.3 mg/m3 16.28 °C 59.55 % 1,021.26 mbar 1.11 m/s 307.33 Deg 16.71 µg/m3 1.08 µg/m3
2021-12-22 12:00 33.97 µg/m3 0.95 µg/m3 50.56 µg/m3 31.26 µg/m3 9.92 µg/m3 0.35 mg/m3 16.12 °C 60.56 % 1,022.05 mbar 1.13 m/s 296.17 Deg 15.77 µg/m3 1.29 µg/m3
2021-12-22 11:00 47.61 µg/m3 1.02 µg/m3 35.95 µg/m3 57.6 µg/m3 13.11 µg/m3 0.42 mg/m3 15.32 °C 62.41 % 1,022.90 mbar 1.09 m/s 265.13 Deg 16.97 µg/m3 2.65 µg/m3
2021-12-22 10:00 65.71 µg/m3 1.89 µg/m3 20.35 µg/m3 81.58 µg/m3 24 µg/m3 0.88 mg/m3 14.78 °C 67.67 % 1,022.88 mbar 0.89 m/s 229.63 Deg 61.96 µg/m3 9.4 µg/m3
2021-12-22 09:00 77.78 µg/m3 3.65 µg/m3 4.02 µg/m3 103.85 µg/m3 39.88 µg/m3 0 mg/m3 12.65 °C 75.13 % 1,022.51 mbar 0.62 m/s 223.98 Deg 175.2 µg/m3 11.88 µg/m3
2021-12-22 08:00 62.83 µg/m3 4.06 µg/m3 2.82 µg/m3 41.45 µg/m3 27.64 µg/m3 0 mg/m3 11.01 °C 81.94 % 1,022.45 mbar 0.95 m/s 234.45 Deg 212.82 µg/m3 12.52 µg/m3
2021-12-22 07:00 51.09 µg/m3 2.9 µg/m3 2.12 µg/m3 28.14 µg/m3 19.2 µg/m3 0 mg/m3 11.03 °C 83.4 % 1,022.30 mbar 0.76 m/s 240.12 Deg 139.56 µg/m3 9.13 µg/m3
2021-12-22 06:00 41.93 µg/m3 1.26 µg/m3 5.13 µg/m3 17.86 µg/m3 13.44 µg/m3 0 mg/m3 11.54 °C 83.08 % 1,021.89 mbar 0.9 m/s 238.58 Deg 35.31 µg/m3 2.6 µg/m3
2021-12-22 05:00 30.81 µg/m3 0.88 µg/m3 14.46 µg/m3 15.25 µg/m3 11.59 µg/m3 0 mg/m3 12.18 °C 81.78 % 1,021.70 mbar 0.72 m/s 249.2 Deg 5.24 µg/m3 2.68 µg/m3
2021-12-22 04:00 29.72 µg/m3 0.93 µg/m3 14.57 µg/m3 17.45 µg/m3 13.79 µg/m3 0 mg/m3 12.92 °C 78.79 % 1,021.92 mbar 0.37 m/s 246.6 Deg 3.67 µg/m3 2.83 µg/m3
2021-12-22 03:00 30.71 µg/m3 0.89 µg/m3 12.61 µg/m3 20.03 µg/m3 14.49 µg/m3 0 mg/m3 12.68 °C 78.22 % 1,022.33 mbar 0.6 m/s 238.7 Deg 3.69 µg/m3 2.97 µg/m3
2021-12-22 02:00 42.49 µg/m3 0.99 µg/m3 7.69 µg/m3 25.69 µg/m3 18.18 µg/m3 0 mg/m3 12.5 °C 78.01 % 1,022.28 mbar 0.62 m/s 232.63 Deg 9.27 µg/m3 6 µg/m3
2021-12-22 01:00 52.01 µg/m3 1.32 µg/m3 2.45 µg/m3 39.9 µg/m3 27.84 µg/m3 0 mg/m3 12.51 °C 77.68 % 1,022.52 mbar 0.43 m/s 231.95 Deg 26.43 µg/m3 7.87 µg/m3
2021-12-22 00:00 54.08 µg/m3 1.77 µg/m3 3.41 µg/m3 56.4 µg/m3 39.29 µg/m3 0 mg/m3 12.19 °C 78.16 % 1,022.70 mbar 0.55 m/s 233.93 Deg 49.81 µg/m3 9.85 µg/m3
2021-12-21 23:00 56.57 µg/m3 2.09 µg/m3 4.55 µg/m3 56.58 µg/m3 38.47 µg/m3 0 mg/m3 11.96 °C 77.89 % 1,022.75 mbar 0.8 m/s 228.48 Deg 72.83 µg/m3 12.23 µg/m3
2021-12-21 22:00 62.48 µg/m3 2.4 µg/m3 4.28 µg/m3 58.65 µg/m3 39.27 µg/m3 0 mg/m3 12.19 °C 76.63 % 1,022.69 mbar 0.72 m/s 231.93 Deg 93.77 µg/m3 13.98 µg/m3
2021-12-21 21:00 68.69 µg/m3 3.23 µg/m3 4.59 µg/m3 55.7 µg/m3 37.13 µg/m3 0 mg/m3 12.81 °C 74.46 % 1,022.63 mbar 0.7 m/s 233.5 Deg 148.67 µg/m3 14.7 µg/m3
2021-12-21 20:00 75.83 µg/m3 2.76 µg/m3 4.44 µg/m3 45.92 µg/m3 30.62 µg/m3 0 mg/m3 13.35 °C 72.12 % 1,022.51 mbar 0.63 m/s 233.25 Deg 122.8 µg/m3 9.58 µg/m3
2021-12-21 19:00 82.21 µg/m3 2.35 µg/m3 3.29 µg/m3 78.2 µg/m3 28.32 µg/m3 0 mg/m3 13.87 °C 69.76 % 1,022.34 mbar 0.83 m/s 232.83 Deg 103.17 µg/m3 8.29 µg/m3
2021-12-21 18:00 72.81 µg/m3 1.03 µg/m3 12.51 µg/m3 38.93 µg/m3 14.96 µg/m3 0 mg/m3 14.64 °C 66.17 % 1,021.96 mbar 0.71 m/s 260.55 Deg 23.79 µg/m3 3.04 µg/m3
2021-12-21 17:00 48.9 µg/m3 0.93 µg/m3 36.64 µg/m3 35.59 µg/m3 12.82 µg/m3 0 mg/m3 15.12 °C 63.42 % 1,021.71 mbar 1.06 m/s 298.97 Deg 17.48 µg/m3 2.57 µg/m3
2021-12-21 16:00 36.27 µg/m3 0.8 µg/m3 49.25 µg/m3 32.25 µg/m3 11.06 µg/m3 0 mg/m3 15.76 °C 60.54 % 1,021.50 mbar 1.28 m/s 273.05 Deg 11.96 µg/m3 1.33 µg/m3
2021-12-21 15:00 23.1 µg/m3 0.8 µg/m3 62.8 µg/m3 19.03 µg/m3 7.81 µg/m3 0 mg/m3 15.82 °C 60.63 % 1,021.23 mbar 2.03 m/s 306.75 Deg 8.54 µg/m3 1.47 µg/m3
2021-12-21 14:00 24.3 µg/m3 0.82 µg/m3 62.62 µg/m3 19.35 µg/m3 7.77 µg/m3 0 mg/m3 16.05 °C 59.38 % 1,021.34 mbar 1.97 m/s 306.72 Deg 10.35 µg/m3 1.45 µg/m3
2021-12-21 13:00 26.88 µg/m3 0.8 µg/m3 60.69 µg/m3 22.39 µg/m3 9.33 µg/m3 0 mg/m3 16.03 °C 58.41 % 1,021.76 mbar 1.77 m/s 306.47 Deg 12.39 µg/m3 2.2 µg/m3
2021-12-21 12:00 29.53 µg/m3 0.83 µg/m3 56.25 µg/m3 24.02 µg/m3 8.01 µg/m3 0 mg/m3 16.11 °C 59.74 % 1,022.35 mbar 1.75 m/s 287.02 Deg 11.66 µg/m3 1.52 µg/m3
2021-12-21 11:00 29.85 µg/m3 0.9 µg/m3 54.21 µg/m3 22.95 µg/m3 7.8 µg/m3 0 mg/m3 15.71 °C 65.11 % 1,022.48 mbar 1.81 m/s 303.22 Deg 12.59 µg/m3 1.75 µg/m3
2021-12-21 10:00 39.51 µg/m3 0.96 µg/m3 43.38 µg/m3 29.82 µg/m3 9.04 µg/m3 0.31 mg/m3 15.02 °C 68.15 % 1,022.39 mbar 1.41 m/s 296.53 Deg 15.51 µg/m3 2.38 µg/m3
2021-12-21 09:00 59.04 µg/m3 1.2 µg/m3 24.11 µg/m3 46.3 µg/m3 12.38 µg/m3 0.4 mg/m3 14.41 °C 70.87 % 1,021.68 mbar 1.33 m/s 281.52 Deg 28.24 µg/m3 4.85 µg/m3
2021-12-21 08:00 69.26 µg/m3 1.41 µg/m3 12.71 µg/m3 39.51 µg/m3 14.13 µg/m3 0.5 mg/m3 14.03 °C 72.14 % 1,021.18 mbar 0.87 m/s 276.02 Deg 42.89 µg/m3 4.93 µg/m3
2021-12-21 07:00 69.79 µg/m3 2.14 µg/m3 7.49 µg/m3 21.27 µg/m3 14.28 µg/m3 0.77 mg/m3 13.37 °C 74.49 % 1,020.74 mbar 0.83 m/s 259.37 Deg 83.24 µg/m3 7.24 µg/m3

It is to be noted that the data is provisional and subject to quality assurance procedures. For validated data kindly refer your request to contact.air@era.org.mt